[[{"header":{"parameterUnit":"m.s-1","parameterCategory":1,"la1":30.6,"la2":28.766,"lo1":-90.7593,"lo2":-88.6598,"dy":0.0162,"dx":0.0183,"nx":116,"ny":114,"refTime":"2023-10-21T18:00:00:Z","depth":0,"parameterNumber":2,"parameterNumberName":"U-component_of_WINDS"},"data":[0.0,0.0,0.0,0.0,0.0,0.0,0.0,0.0,0.0,0.0,0.0,0.0,0.0,0.0,0.0,0.0,0.0,0.0,0.0,0.0,0.0,0.0,0.0,0.0,0.0,0.0,0.0,0.0,0.0,0.0,0.0,0.0,0.0,0.0,0.0,0.0,0.0,0.0,0.0,0.0,0.0,0.0,0.0,0.0,0.0,0.0,0.0,0.0,0.0,0.0,0.0,0.0,0.0,0.0,0.0,0.0,0.0,0.0,0.0,0.0,0.0,0.0,0.0,0.0,0.0,0.0,0.0,0.0,0.0,0.0,0.0,0.0,0.0,0.0,0.0,0.0,0.0,0.0,0.0,0.0,0.0,0.0,0.0,0.0,0.0,0.0,0.0,0.0,0.0,0.0,0.0,0.0,0.0,0.0,0.0,0.0,0.0,0.0,0.0,0.0,0.0,0.0,0.0,0.0,0.0,0.0,0.0,0.0,0.0,0.0,0.0,0.0,0.0,0.0,0.0,0.0,0.0,0.0,0.0,0.0,0.0,0.0,0.0,0.0,0.0,0.0,0.0,0.0,0.0,0.0,0.0,0.0,0.0,0.0,0.0,0.0,0.0,0.0,0.0,0.0,0.0,0.0,0.0,0.0,0.0,0.0,0.0,0.0,0.0,0.0,0.0,0.0,0.0,0.0,0.0,0.0,0.0,0.0,0.0,0.0,0.0,0.0,0.0,0.0,0.0,0.0,0.0,0.0,0.0,0.0,0.0,0.0,0.0,0.0,0.0,0.0,0.0,0.0,0.0,0.0,0.0,0.0,0.0,0.0,0.0,0.0,0.0,0.0,0.0,0.0,0.0,0.0,0.0,0.0,0.0,0.0,0.0,0.0,0.0,0.0,0.0,0.0,0.0,0.0,0.0,0.0,0.0,0.0,0.0,0.0,0.0,0.0,0.0,0.0,0.0,0.0,0.0,0.0,0.0,0.0,0.0,0.0,0.0,0.0,0.0,0.0,0.0,0.0,0.0,0.0,0.0,0.0,0.0,0.0,0.0,0.0,0.0,0.0,0.0,0.0,0.0,0.0,0.0,0.0,0.0,0.0,0.0,0.0,0.0,0.0,0.0,0.0,0.0,0.0,0.0,0.0,0.0,0.0,0.0,0.0,0.0,0.0,0.0,0.0,0.0,0.0,0.0,0.0,0.0,0.0,0.0,0.0,0.0,0.0,0.0,0.0,0.0,0.0,0.0,0.0,0.0,0.0,0.0,0.0,0.0,0.0,0.0,0.0,0.0,0.0,0.0,0.0,0.0,0.0,0.0,0.0,0.0,0.0,0.0,0.0,0.0,0.0,0.0,0.0,0.0,0.0,0.0,0.0,0.0,0.0,0.0,0.0,0.0,0.0,0.0,0.0,0.0,0.0,0.0,0.0,0.0,0.0,0.0,0.0,0.0,0.0,0.0,0.0,0.0,0.0,0.0,0.0,0.0,0.0,0.0,0.0,0.0,0.0,0.0,0.0,0.0,0.0,0.0,0.0,0.0,0.0,0.0,0.0,0.0,0.0,0.0,0.0,0.0,0.0,0.0,0.0,0.0,0.0,0.0,0.0,0.0,0.0,0.0,0.0,0.0,0.0,0.0,0.0,0.0,0.0,0.0,0.0,0.0,0.0,0.0,0.0,0.0,0.0,0.0,0.0,0.0,0.0,0.0,0.0,0.0,0.0,0.0,0.0,0.0,0.0,0.0,0.0,0.0,0.0,0.0,0.0,0.0,0.0,0.0,0.0,0.0,0.0,0.0,0.0,0.0,0.0,0.0,0.0,0.0,0.0,0.0,0.0,0.0,0.0,0.0,0.0,0.0,0.0,0.0,0.0,0.0,0.0,0.0,0.0,0.0,0.0,0.0,0.0,0.0,0.0,0.0,0.0,0.0,0.0,0.0,0.0,0.0,0.0,0.0,0.0,0.0,0.0,0.0,0.0,0.0,0.0,0.0,0.0,0.0,0.0,0.0,0.0,0.0,0.0,0.0,0.0,0.0,0.0,0.0,0.0,0.0,0.0,0.0,0.0,0.0,0.0,0.0,0.0,0.0,0.0,0.0,0.0,0.0,0.0,0.0,0.0,0.0,0.0,0.0,0.0,0.0,0.0,0.0,0.0,0.0,0.0,0.0,0.0,0.0,0.0,0.0,0.0,0.0,0.0,0.0,0.0,0.0,0.0,0.0,0.0,0.0,0.0,0.0,0.0,0.0,0.0,0.0,0.0,0.0,0.0,0.0,0.0,0.0,0.0,0.0,0.0,0.0,0.0,0.0,0.0,0.0,0.0,0.0,0.0,0.0,0.0,0.0,0.0,0.0,0.0,0.0,0.0,0.0,0.0,0.0,0.0,0.0,0.0,0.0,0.0,0.0,0.0,0.0,0.0,0.0,0.0,0.0,0.0,0.0,0.0,0.0,0.0,0.0,0.0,0.0,0.0,0.0,0.0,0.0,0.0,0.0,0.0,0.0,0.0,0.0,0.0,0.0,0.0,0.0,0.0,0.0,0.0,0.0,0.0,0.0,0.0,0.0,0.0,0.0,0.0,0.0,0.0,0.0,0.0,0.0,0.0,0.0,0.0,0.0,0.0,0.0,0.0,0.0,0.0,0.0,0.0,0.0,0.0,0.0,0.0,0.0,0.0,0.0,0.0,0.0,0.0,0.0,0.0,0.0,0.0,0.0,0.0,0.0,0.0,0.0,0.0,0.0,0.0,0.0,0.0,0.0,0.0,0.0,0.0,0.0,0.0,0.0,0.0,0.0,0.0,0.0,0.0,0.0,0.0,0.0,0.0,0.0,0.0,0.0,0.0,0.0,0.0,0.0,0.0,0.0,0.0,0.0,0.0,0.0,0.0,0.0,0.0,0.0,0.0,0.0,0.0,0.0,0.0,0.0,0.0,0.0,0.0,0.0,0.0,0.0,0.0,0.0,0.0,0.0,0.0,0.0,0.0,0.0,0.0,0.0,0.0,0.0,0.0,0.0,0.0,0.0,0.0,0.0,0.0,0.0,0.0,0.0,0.0,0.0,0.0,0.0,0.0,0.0,0.0,0.0,0.0,0.0,0.0,0.0,0.0,0.0,0.0,0.0,0.0,0.0,0.0,0.0,0.0,0.0,0.0,0.0,0.0,0.0,0.0,0.0,0.0,0.0,0.0,0.0,0.0,0.0,0.0,0.0,0.0,0.0,0.0,0.0,0.0,0.0,0.0,0.0,0.0,0.0,0.0,0.0,0.0,0.0,0.0,0.0,0.0,0.0,0.0,0.0,0.0,0.0,0.0,0.0,0.0,0.0,0.0,0.0,0.0,0.0,0.0,0.0,0.0,0.0,0.0,0.0,0.0,0.0,0.0,0.0,0.0,0.0,0.0,0.0,0.0,0.0,0.0,0.0,0.0,0.0,0.0,0.0,0.0,0.0,0.0,0.0,0.0,0.0,0.0,0.0,0.0,0.0,0.0,0.0,0.0,0.0,0.0,0.0,0.0,0.0,0.0,0.0,0.0,0.0,0.0,0.0,0.0,0.0,0.0,0.0,0.0,0.0,0.0,0.0,0.0,0.0,0.0,0.0,0.0,0.0,0.0,0.0,0.0,0.0,0.0,0.0,0.0,0.0,0.0,0.0,0.0,0.0,0.0,0.0,0.0,0.0,0.0,0.0,0.0,0.0,0.0,0.0,0.0,0.0,0.0,0.0,0.0,0.0,0.0,0.0,0.0,0.0,0.0,0.0,0.0,0.0,0.0,0.0,0.0,0.0,0.0,0.0,0.0,0.0,0.0,0.0,0.0,0.0,0.0,0.0,0.0,0.0,0.0,0.0,0.0,0.0,0.0,0.0,0.0,0.0,0.0,0.0,0.0,0.0,0.0,0.0,0.0,0.0,0.0,0.0,0.0,0.0,0.0,0.0,0.0,0.0,0.0,0.0,0.0,0.0,0.0,0.0,0.0,0.0,0.0,0.0,0.0,0.0,0.0,0.0,0.0,0.0,0.0,0.0,0.0,0.0,0.0,0.0,0.0,0.0,0.0,0.0,0.0,0.0,0.0,0.0,0.0,0.0,0.0,0.0,0.0,0.0,0.0,0.0,0.0,0.0,0.0,0.0,0.0,0.0,0.0,0.0,0.0,0.0,0.0,0.0,0.0,0.0,0.0,0.0,0.0,0.0,0.0,0.0,0.0,0.0,0.0,0.0,0.0,0.0,0.0,0.0,0.0,0.0,0.0,0.0,0.0,0.0,0.0,0.0,0.0,0.0,0.0,0.0,0.0,0.0,0.0,0.0,0.0,0.0,0.0,0.0,0.0,0.0,0.0,0.0,0.0,0.0,0.0,0.0,0.0,0.0,0.0,0.0,0.0,0.0,0.0,0.0,0.0,0.0,0.0,0.0,0.0,0.0,0.0,0.0,0.0,0.0,0.0,0.0,0.0,0.0,0.0,0.0,0.0,0.0,0.0,0.0,0.0,0.0,0.0,0.0,0.0,0.0,0.0,0.0,0.0,0.0,0.0,0.0,0.0,0.0,0.0,0.0,0.0,0.0,0.0,0.0,0.0,0.0,0.0,0.0,0.0,0.0,0.0,0.0,0.0,0.0,0.0,0.0,0.0,0.0,0.0,0.0,0.0,0.0,0.0,0.0,0.0,0.0,0.0,0.0,0.0,0.0,0.0,0.0,0.0,0.0,0.0,0.0,0.0,0.0,0.0,0.0,0.0,0.0,0.0,0.0,0.0,0.0,0.0,0.0,0.0,0.0,0.0,0.0,0.0,0.0,0.0,0.0,0.0,0.0,0.0,0.0,0.0,0.0,0.0,0.0,0.0,0.0,0.0,0.0,0.0,0.0,0.0,0.0,0.0,0.0,0.0,0.0,0.0,0.0,0.0,0.0,0.0,0.0,0.0,0.0,0.0,0.0,0.0,0.0,0.0,0.0,0.0,0.0,0.0,0.0,0.0,0.0,0.0,0.0,0.0,0.0,0.0,0.0,0.0,0.0,0.0,0.0,0.0,0.0,0.0,0.0,0.0,0.0,0.0,0.0,0.0,0.0,0.0,0.0,0.0,0.0,0.0,0.0,0.0,0.0,0.0,0.0,0.0,0.0,0.0,0.0,0.0,0.0,0.0,0.0,0.0,0.0,0.0,0.0,0.0,0.0,0.0,0.0,0.0,0.0,0.0,0.0,0.0,0.0,0.0,0.0,0.0,0.0,0.0,0.0,0.0,0.0,0.0,0.0,0.0,0.0,0.0,0.0,0.0,0.0,0.0,0.0,0.0,0.0,0.0,0.0,0.0,0.0,0.0,0.0,0.0,0.0,0.0,0.0,0.0,0.0,0.0,0.0,0.0,0.0,0.0,0.0,0.0,0.0,0.0,0.0,0.0,0.0,0.0,0.0,0.0,0.0,0.0,0.0,0.0,0.0,0.0,0.0,0.0,0.0,0.0,0.0,0.0,0.0,0.0,0.0,0.0,0.0,0.0,0.0,0.0,0.0,0.0,0.0,0.0,0.0,0.0,0.0,0.0,0.0,0.0,0.0,0.0,0.0,0.0,0.0,0.0,0.0,0.0,0.0,0.0,0.0,0.0,0.0,0.0,0.0,0.0,0.0,0.0,0.0,0.0,0.0,0.0,0.0,0.0,0.0,0.0,0.0,0.0,0.0,0.0,0.0,0.0,0.0,0.0,0.0,0.0,0.0,0.0,0.0,0.0,0.0,0.0,0.0,0.0,0.0,0.0,0.0,0.0,0.0,0.0,0.0,0.0,0.0,0.0,0.0,0.0,0.0,0.0,0.0,0.0,0.0,0.0,0.0,0.0,0.0,0.0,0.0,0.0,0.0,0.0,0.0,0.0,0.0,0.0,0.0,0.0,0.0,0.0,0.0,0.0,0.0,0.0,0.0,0.0,0.0,0.0,0.0,0.0,0.0,0.0,0.0,0.0,0.0,0.0,0.0,0.0,0.0,0.0,0.0,0.0,0.0,0.0,0.0,0.0,0.0,0.0,0.0,0.0,0.0,0.0,0.0,0.0,0.0,0.0,0.0,0.0,0.0,0.0,0.0,0.0,0.0,0.0,0.0,0.0,0.0,0.0,0.0,0.0,-3.2843,0.0,0.0,0.0,0.0,0.0,0.0,0.0,0.0,0.0,0.0,0.0,0.0,0.0,0.0,0.0,0.0,0.0,0.0,0.0,0.0,0.0,0.0,0.0,0.0,0.0,0.0,0.0,0.0,0.0,0.0,0.0,0.0,0.0,0.0,0.0,0.0,0.0,0.0,0.0,0.0,0.0,0.0,0.0,0.0,0.0,0.0,0.0,0.0,0.0,0.0,0.0,0.0,0.0,0.0,0.0,0.0,0.0,0.0,0.0,0.0,0.0,0.0,0.0,0.0,0.0,0.0,0.0,0.0,0.0,0.0,0.0,0.0,0.0,0.0,0.0,0.0,0.0,0.0,0.0,0.0,0.0,0.0,0.0,0.0,0.0,0.0,0.0,0.0,0.0,0.0,0.0,0.0,0.0,0.0,0.0,0.0,0.0,0.0,0.0,0.0,0.0,0.0,0.0,0.0,0.0,0.0,0.0,0.0,0.0,0.0,0.0,0.0,0.0,0.0,0.0,0.0,-3.3823,0.0,0.0,0.0,0.0,0.0,0.0,0.0,0.0,0.0,0.0,0.0,0.0,0.0,0.0,0.0,0.0,0.0,0.0,0.0,0.0,0.0,0.0,0.0,0.0,0.0,0.0,0.0,0.0,0.0,0.0,0.0,0.0,0.0,0.0,0.0,0.0,0.0,0.0,0.0,0.0,0.0,0.0,0.0,0.0,0.0,0.0,0.0,0.0,0.0,0.0,0.0,0.0,0.0,0.0,0.0,0.0,0.0,0.0,0.0,0.0,0.0,0.0,0.0,0.0,0.0,0.0,0.0,0.0,0.0,0.0,0.0,0.0,0.0,0.0,0.0,0.0,0.0,0.0,0.0,0.0,0.0,0.0,0.0,0.0,0.0,0.0,0.0,0.0,0.0,0.0,0.0,0.0,0.0,0.0,0.0,0.0,0.0,0.0,0.0,0.0,0.0,0.0,0.0,0.0,0.0,0.0,0.0,0.0,0.0,-4.0422,-4.016,-4.0296,-4.0754,-4.1247,-3.8279,-3.6733,-3.6196,0.0,0.0,0.0,0.0,0.0,0.0,0.0,0.0,0.0,0.0,0.0,0.0,0.0,0.0,0.0,0.0,0.0,0.0,0.0,0.0,0.0,0.0,0.0,0.0,0.0,0.0,0.0,0.0,0.0,0.0,0.0,0.0,0.0,0.0,0.0,0.0,0.0,0.0,0.0,-2.6356,-2.6541,-2.7215,-2.8247,-2.7385,0.0,0.0,0.0,0.0,0.0,0.0,0.0,0.0,0.0,0.0,0.0,0.0,0.0,0.0,0.0,0.0,0.0,0.0,0.0,0.0,0.0,0.0,0.0,0.0,0.0,0.0,0.0,0.0,0.0,0.0,0.0,0.0,0.0,0.0,0.0,0.0,0.0,0.0,0.0,0.0,0.0,0.0,0.0,-3.3985,-3.4734,0.0,0.0,0.0,0.0,0.0,0.0,0.0,0.0,0.0,0.0,0.0,0.0,0.0,0.0,-3.7428,-3.9913,-4.08,-4.0068,-4.3265,-4.4071,-4.2749,-4.3492,-4.3566,-4.3027,-4.1804,0.0,-3.7926,-3.613,0.0,0.0,0.0,0.0,0.0,0.0,0.0,0.0,0.0,0.0,0.0,0.0,0.0,0.0,0.0,0.0,0.0,0.0,0.0,0.0,0.0,0.0,0.0,0.0,0.0,0.0,0.0,0.0,0.0,0.0,0.0,0.0,0.0,0.0,0.0,0.0,-2.4416,-2.4945,-2.5204,-2.6612,-2.7533,-2.808,-2.8452,-2.9244,-3.0225,-2.8397,0.0,0.0,0.0,0.0,0.0,0.0,0.0,0.0,0.0,0.0,0.0,0.0,0.0,0.0,0.0,0.0,0.0,0.0,0.0,0.0,0.0,0.0,0.0,0.0,0.0,0.0,0.0,0.0,0.0,0.0,0.0,0.0,0.0,0.0,0.0,0.0,0.0,0.0,0.0,-3.2447,-3.3776,-3.3222,-3.2545,-3.1221,0.0,0.0,0.0,0.0,0.0,0.0,0.0,0.0,0.0,-3.6332,-3.7314,-3.8457,-3.9893,-4.1913,-4.2831,-4.2662,-4.4643,-4.4963,-4.3829,-4.4214,-4.3987,-4.3236,-4.233,-4.135,-4.026,-3.8052,-3.6445,-3.5236,0.0,0.0,0.0,0.0,0.0,-3.2834,0.0,0.0,0.0,0.0,0.0,0.0,0.0,0.0,0.0,0.0,0.0,0.0,0.0,0.0,0.0,-2.5057,0.0,0.0,0.0,0.0,0.0,0.0,0.0,0.0,0.0,0.0,0.0,-2.2904,-2.3811,-2.439,-2.467,-2.6517,-2.7366,-2.7417,-2.8686,-2.9919,-3.0906,-2.9532,-2.8259,0.0,0.0,0.0,0.0,0.0,0.0,0.0,0.0,0.0,0.0,0.0,0.0,0.0,0.0,0.0,0.0,0.0,0.0,0.0,0.0,0.0,0.0,0.0,0.0,0.0,0.0,0.0,0.0,0.0,0.0,0.0,0.0,0.0,0.0,0.0,0.0,0.0,0.0,-3.3259,-3.398,-3.2502,-3.314,-3.2316,0.0,0.0,0.0,0.0,0.0,0.0,-3.3705,-3.4795,-3.6246,-3.8235,-3.9707,-4.1005,-4.2126,-4.3384,-4.405,-4.419,-4.4823,-4.4744,-4.3989,-4.3989,-4.3701,-4.3117,-4.2187,-4.187,-4.177,-3.95,-3.7751,-3.6376,-3.5493,-3.4528,-3.3626,-3.3587,-3.3607,-3.3834,0.0,0.0,0.0,0.0,0.0,0.0,0.0,0.0,0.0,0.0,0.0,0.0,0.0,0.0,-2.2126,-2.2447,-2.2665,-2.2221,0.0,0.0,0.0,0.0,0.0,0.0,0.0,0.0,0.0,-2.1786,-2.1849,-2.3422,-2.6371,-2.6464,-2.6558,-2.6628,-2.754,-2.9718,-3.2407,-2.7994,-2.7305,-2.8854,0.0,0.0,0.0,0.0,0.0,0.0,0.0,0.0,0.0,0.0,0.0,0.0,0.0,0.0,0.0,0.0,0.0,0.0,0.0,0.0,0.0,0.0,0.0,0.0,0.0,0.0,0.0,0.0,0.0,0.0,0.0,0.0,0.0,0.0,0.0,0.0,0.0,0.0,0.0,-3.4954,-3.547,0.0,0.0,0.0,0.0,-3.0878,-3.2053,-3.3552,-3.528,-3.687,-3.8957,-4.1657,-4.2624,-4.3542,-4.4417,-4.4511,-4.4326,-4.3819,-4.3857,-4.3637,-4.3162,-4.3162,-4.3143,-4.3063,-4.2181,-4.1797,-4.1694,-4.0018,-3.8814,-3.7917,-3.7164,-3.5914,-3.4521,-3.4521,-3.4562,-3.4648,0.0,0.0,0.0,0.0,0.0,0.0,0.0,0.0,0.0,0.0,0.0,0.0,0.0,-1.8617,-1.9518,-1.963,-2.0172,-1.9743,-1.7917,0.0,0.0,0.0,0.0,0.0,0.0,0.0,-1.8898,-2.0295,-2.0238,-2.088,-2.2026,-2.3507,-2.4289,-2.4374,-2.6146,-2.762,-2.8735,-2.8617,-2.7991,-2.7061,-2.6005,-2.4826,0.0,0.0,0.0,0.0,0.0,0.0,0.0,0.0,0.0,0.0,0.0,0.0,0.0,0.0,0.0,0.0,0.0,0.0,0.0,0.0,0.0,0.0,0.0,0.0,0.0,0.0,0.0,0.0,0.0,0.0,0.0,0.0,0.0,0.0,0.0,0.0,0.0,-3.556,-3.664,0.0,0.0,-3.3764,-3.4279,-3.4573,-3.5973,-3.7729,-3.9773,-4.0431,-4.1434,-4.2928,-4.2773,-4.2895,-4.3446,-4.2922,-4.2679,-4.2716,-4.2716,-4.2348,-4.1696,-4.1858,-4.1341,-4.0327,-4.0233,-3.9873,-3.9315,-3.8753,-3.8331,-3.802,-3.725,-3.627,-3.5318,-3.5318,-3.5315,-3.5279,0.0,0.0,0.0,0.0,0.0,0.0,0.0,0.0,0.0,0.0,0.0,-1.4846,-1.521,-1.6421,-1.7217,-1.7355,-1.7769,-1.7334,-1.5698,0.0,0.0,0.0,0.0,0.0,0.0,-1.566,-1.6577,-1.8042,-1.815,-1.8621,-1.9488,-2.1069,-2.185,-2.185,-2.3421,-2.4118,-2.4248,-2.6177,-2.6452,-2.561,-2.5792,-2.4874,-2.3491,0.0,0.0,0.0,0.0,0.0,0.0,0.0,0.0,0.0,0.0,0.0,0.0,0.0,0.0,0.0,0.0,0.0,0.0,0.0,0.0,0.0,0.0,0.0,0.0,0.0,0.0,0.0,0.0,0.0,0.0,0.0,0.0,0.0,0.0,0.0,-3.5173,-3.5018,-3.6835,-3.7016,-3.4332,-3.5697,-3.6865,-3.7248,-3.8665,-4.0182,-4.1633,-4.2159,-4.2539,-4.2758,-4.2475,-4.2271,-4.2236,-4.1698,-4.1455,-4.1487,-4.123,-4.0734,-4.0061,-3.9956,-3.9316,-3.827,-3.8495,-3.8259,-3.7723,-3.74,-3.7375,-3.745,-3.7018,-3.6212,-3.5295,-3.5295,-3.5132,-3.4846,0.0,0.0,0.0,0.0,0.0,0.0,0.0,0.0,0.0,0.0,-1.262,-1.3407,-1.3893,-1.4648,-1.5215,-1.5642,-1.54,-1.4947,-1.4247,-1.3702,0.0,0.0,0.0,0.0,-1.0744,-1.1546,-1.2948,-1.4952,-1.5234,-1.6718,-1.9289,-1.9289,-1.9389,-1.9397,-1.9389,-1.948,-1.9579,-2.0641,-2.2432,-2.4603,-2.4232,-2.363,-2.2983,0.0,0.0,0.0,0.0,0.0,0.0,0.0,0.0,0.0,0.0,0.0,0.0,0.0,0.0,0.0,0.0,0.0,0.0,0.0,0.0,0.0,0.0,0.0,0.0,0.0,0.0,0.0,0.0,0.0,0.0,0.0,0.0,0.0,-3.0778,-3.2673,-3.3942,-3.358,-3.6056,-3.7251,-3.579,-3.7425,-3.8545,-3.8607,-3.9841,-4.0577,-4.0583,-4.1877,-4.224,-4.1412,-4.1883,-4.1812,-4.1075,-4.1005,-4.0719,-4.0179,-3.9407,-3.8814,-3.8316,-3.7548,-3.7171,-3.7133,-3.7154,-3.7154,-3.706,-3.6207,-3.6026,-3.6266,-3.6516,-3.5739,-3.4484,-3.4464,-3.3973,-3.33,0.0,0.0,0.0,0.0,0.0,0.0,0.0,0.0,0.0,0.0,-1.0638,-1.0787,-1.0824,-1.1416,-1.1919,-1.219,-1.1717,-1.1579,-1.1897,0.0,0.0,0.0,0.0,0.0,-1.0802,-1.1004,-1.1589,-1.2614,-1.2681,-1.3117,-1.383,-1.4718,-1.5756,-1.6743,-1.7515,-1.847,-1.9497,-1.9819,-2.0312,-2.1094,-2.2695,-2.3729,-2.4282,0.0,0.0,0.0,0.0,0.0,0.0,0.0,0.0,0.0,0.0,0.0,0.0,0.0,0.0,0.0,0.0,0.0,0.0,0.0,0.0,0.0,0.0,0.0,0.0,0.0,0.0,0.0,0.0,0.0,0.0,0.0,0.0,-2.9283,-3.1514,-3.3736,-3.5514,-3.649,-3.6867,-3.7113,-3.7184,-3.7269,-3.7686,-3.8589,-3.9521,-3.9991,-3.9886,-4.0758,-4.1049,-4.0618,-3.9857,-3.9716,-4.023,-3.9279,-3.8601,-3.828,-3.8058,-3.7562,-3.6877,-3.6839,-3.6531,-3.597,-3.6158,-3.5943,-3.5375,-3.5148,-3.5075,-3.5097,-3.4742,-3.4471,-3.4218,-3.3561,-3.2473,-3.1288,0.0,0.0,0.0,0.0,0.0,0.0,0.0,0.0,0.0,0.0,-0.8863,-0.8919,-0.8997,-0.9438,-0.9803,-0.9867,-0.9457,-0.932,-0.9497,0.0,0.0,0.0,0.0,-0.7843,-0.765,-0.8271,-0.8984,-0.9912,-1.0491,-1.1057,-1.1701,-1.2406,-1.3124,-1.4039,-1.4699,-1.5382,-1.619,-1.6225,-1.6762,-1.7807,-1.9281,-2.0968,-2.2665,-2.2482,-2.2455,-2.2617,-2.3432,-2.4026,-2.4384,-2.4657,0.0,0.0,0.0,0.0,0.0,0.0,0.0,0.0,0.0,0.0,0.0,0.0,0.0,0.0,0.0,0.0,0.0,0.0,0.0,0.0,0.0,0.0,0.0,0.0,-2.7399,-2.9275,-3.118,-3.3006,-3.4675,-3.6144,-3.6075,-3.6191,-3.6901,-3.6878,-3.712,-3.7827,-3.8584,-3.8946,-3.8877,-3.9501,-3.9752,-3.9457,-3.8463,-3.8169,-3.8583,-3.7298,-3.6566,-3.6395,-3.6069,-3.567,-3.5217,-3.5219,-3.4962,0.0,-3.4878,-3.4554,-3.3803,-3.3803,-3.3687,0.0,0.0,0.0,0.0,0.0,-3.081,-2.9898,0.0,0.0,0.0,0.0,0.0,0.0,0.0,0.0,0.0,0.0,0.0,-0.7481,-0.7723,-0.8042,-0.823,-0.8394,-0.8158,-0.7744,0.0,0.0,0.0,-0.413,-0.4261,-0.3994,-0.3399,-0.4617,-0.586,-0.7128,-0.8144,-0.9409,-1.0858,-1.0662,-1.0876,-1.1278,-1.1278,-1.1376,-1.1508,-1.1645,-1.2904,-1.479,-1.5048,-1.6861,-1.9537,-2.0692,-2.1099,-2.1244,-2.2485,-2.2681,-2.2527,-2.3194,0.0,0.0,0.0,0.0,0.0,0.0,0.0,0.0,0.0,0.0,0.0,0.0,0.0,0.0,0.0,0.0,0.0,0.0,0.0,0.0,0.0,0.0,0.0,0.0,-2.8424,-2.9821,-3.0217,-3.113,-3.2392,-3.3891,-3.4166,-3.454,-3.5329,-3.589,-3.6253,-3.6321,-3.7168,-3.759,-3.7422,0.0,0.0,0.0,0.0,-3.6772,-3.6579,-3.5419,-3.4783,-3.4764,-3.3967,-3.3525,-3.3434,-3.3042,-3.2883,-3.2883,-3.3295,-3.3075,-3.2415,-3.2441,-3.2072,-3.1595,-3.2692,-3.2775,-3.2033,-3.0059,-2.9198,0.0,0.0,0.0,0.0,0.0,0.0,0.0,0.0,0.0,0.0,-0.5336,-0.5246,-0.5147,-0.4841,-0.537,-0.6141,-0.7021,-0.6778,-0.5982,0.0,0.0,-0.4185,-0.3376,-0.3617,-0.3739,-0.373,-0.393,-0.4217,-0.4503,-0.478,-0.4982,-0.5291,-0.5271,-0.6423,-0.852,-0.852,-0.9707,-1.1655,-1.1783,-1.2138,-1.2475,-1.2619,-1.5252,-1.9262,-1.9664,-1.9894,-2.0047,-2.1209,-2.2418,-2.3433,-2.4137,-2.4599,-2.4648,-2.3854,0.0,0.0,0.0,0.0,0.0,0.0,0.0,0.0,0.0,0.0,0.0,0.0,0.0,0.0,0.0,0.0,0.0,0.0,0.0,0.0,-2.7626,-2.8563,-2.9094,-2.9187,-2.962,-3.0761,-3.3071,-3.1999,-3.1692,-3.3068,-3.2839,-3.2807,-3.3401,-3.5087,-3.5611,-3.4419,-3.5537,0.0,-3.5014,-3.4444,-3.4515,-3.5242,-3.4672,-3.4212,-3.3931,0.0,0.0,-3.182,-3.1169,-3.0873,-3.0873,-3.1289,-3.1374,-3.1257,-3.1521,-3.0827,-2.9673,-3.0959,-3.0973,-3.0148,-2.9243,-2.8447,-2.7733,0.0,0.0,0.0,0.0,0.0,0.0,0.0,0.0,0.0,0.0,-0.4679,-0.4603,-0.4379,-0.4697,-0.5107,-0.5624,-0.5118,0.0,0.0,-0.173,-0.1118,0.017,0.0088,-0.0269,-0.0997,-0.1629,-0.2174,-0.2814,-0.3447,-0.3758,-0.3831,-0.3755,-0.4416,-0.5761,-0.5797,-0.645,-0.7729,-0.8467,-0.9116,-0.9693,-1.0477,-1.262,-1.5487,-1.7006,-1.8003,-1.8772,-1.9943,-2.0852,-2.159,-2.1952,-2.2254,-2.2464,-2.2274,-2.1299,-2.0313,0.0,0.0,0.0,0.0,0.0,0.0,0.0,0.0,0.0,0.0,0.0,0.0,0.0,0.0,-2.3801,0.0,0.0,-2.6624,-2.8311,-2.8783,-2.8925,-2.8925,-2.8791,-2.9149,-3.0278,-3.0063,-3.0003,-3.0462,-3.0853,-3.1243,-3.1568,-3.2852,-3.3355,-3.2592,-3.3524,-3.397,-3.3757,-3.3148,-3.3225,-3.4004,-3.3118,-3.2414,-3.1878,-3.1514,-3.0942,-3.0195,-3.0044,-2.9948,-2.998,-3.0398,-3.0378,-2.993,-2.935,-2.8474,-2.7606,-2.8292,-2.8444,-2.8218,-2.7619,-2.711,-2.665,0.0,0.0,0.0,0.0,0.0,0.0,0.0,0.0,0.0,0.0,-0.4381,-0.4455,-0.4455,-0.4455,-0.4455,0.0,0.0,0.0,0.0,0.0684,0.1691,0.3433,0.3496,0.3093,0.2134,0.1148,0.0,-0.1074,-0.2134,-0.2714,-0.3096,-0.2995,-0.3092,-0.3377,-0.3443,-0.3521,-0.3711,-0.4937,-0.6029,-0.7171,-0.8545,-0.9949,-1.1487,-1.4034,-1.5752,-1.7109,-1.858,-1.9131,-1.9231,-1.9479,-1.9546,-1.9637,-2.0394,-1.9615,-1.8801,-2.0562,-2.0362,0.0,0.0,0.0,0.0,0.0,0.0,0.0,0.0,0.0,-2.2026,-2.2979,-2.3618,-2.4261,-2.5146,-2.6186,-2.7419,-2.8863,-2.9001,-2.8888,-2.8787,-2.8197,-2.764,-2.7155,-2.803,-2.8509,-2.8224,-2.9304,-3.0053,-3.0186,-3.0935,-3.1342,-3.1198,-3.1765,-3.2255,-3.253,-3.2001,-3.1894,-3.2162,-3.1168,-3.0348,-2.9719,-2.9585,-2.9188,-2.8571,-2.8733,-2.8745,-2.8639,-2.9084,-2.8971,-2.8308,-2.7085,-2.6247,-2.5775,-2.5775,-2.5943,-2.6153,-2.6008,-2.5951,-2.5838,0.0,0.0,0.0,0.0,0.0,0.0,0.0,0.0,0.0,0.0,0.0,0.0,0.0,0.0,0.0,0.0,0.0,0.0,0.0144,0.099,0.2001,0.3104,0.3117,0.3151,0.3214,0.2896,0.2321,0.1431,0.1141,0.0529,-0.0452,-0.045,-0.0989,-0.1986,-0.2148,-0.2748,-0.3794,-0.4128,-0.4988,-0.6187,-0.6302,-0.7888,-1.0356,-1.1736,-1.3193,-1.4638,-1.7008,-1.7963,-1.828,-1.9581,-1.9845,-1.972,-2.0096,-1.9745,-1.9166,-1.8456,0.0,-1.7641,-1.7995,-1.8101,-1.8052,-1.7717,-1.8696,-2.0397,0.0,0.0,-2.5114,-2.5764,-2.6691,-2.7321,-2.7044,-2.7924,-2.8888,-2.9578,-2.9264,-2.875,-2.8273,-2.7306,-2.6294,-2.5252,-2.5827,-2.6612,-2.7494,-2.7766,-2.8106,-2.8786,-2.9997,-3.0413,-2.9772,-3.037,-3.0438,-2.9871,-2.9774,-2.9463,-2.8913,-2.8796,-2.8632,-2.8406,-2.7739,-2.7264,-2.6928,-2.6334,-2.5705,-2.5091,-2.5507,-2.5805,-2.5975,-2.5798,-2.5265,-2.4597,-2.4597,-2.4195,-2.3786,-2.5208,-2.5723,-2.5646,0.0,0.0,0.0,0.0,0.0,0.0,0.0,0.0,0.0,0.0,0.0,0.0,0.0,0.0,0.0,0.0,0.0,0.0,0.1908,0.2868,0.3912,0.5178,0.5189,0.4905,0.4409,0.4236,0.3679,0.2858,0.2712,0.238,0.2094,0.2069,0.145,0.0278,0.0276,-0.0468,-0.1645,-0.2527,-0.3644,-0.492,-0.5727,-0.7617,-1.0083,-1.1216,-1.2506,-1.3838,-1.5737,-1.6401,0.0,0.0,-1.7032,-1.7124,-1.7959,-1.7382,-1.6537,-1.7373,-1.704,0.0,-1.7809,-1.7772,0.0,0.0,-1.8558,-1.9658,-2.1664,-2.2371,-2.3018,-2.4193,-2.588,-2.707,-2.6852,-2.8282,-2.9515,0.0,-2.9302,-2.8737,-2.8185,-2.7155,-2.5937,-2.4519,-2.462,-2.504,-2.56,-2.5715,-2.6044,-2.6755,-2.7045,-2.7214,-2.7215,-2.7813,-2.8021,-2.7737,-2.8029,-2.81,-2.7837,-2.7795,-2.7582,-2.7088,-2.6373,-2.5881,-2.5562,-2.4913,-2.459,-2.4506,-2.4671,-2.4689,-2.4602,-2.4413,-2.3971,-2.3395,-2.3395,-2.3203,-2.3056,-2.4124,-2.4553,-2.4537,0.0,0.0,0.0,0.0,0.0,0.0,0.0,0.0,0.0,0.0,0.0,0.0,0.0,0.0,0.0,0.0,0.0,0.0,0.0,0.4447,0.557,0.6896,0.6993,0.6695,0.5984,0.5569,0.4962,0.4105,0.3934,0.3703,0.356,0.3595,0.3187,0.2355,0.2392,0.1685,0.049,-0.0873,-0.245,-0.4116,-0.5425,-0.7595,-0.9998,-1.1029,-1.2122,-1.3371,-1.4682,-1.5104,0.0,0.0,-1.4603,-1.4751,-1.5583,-1.5036,-1.4398,-1.6009,-1.5881,-1.5457,-1.6171,0.0,0.0,-1.6861,-1.7423,-1.8237,-1.9977,-2.0703,-2.1405,-2.2527,-2.4654,-2.6223,-2.6423,-2.8039,0.0,-2.9792,-2.9176,-2.8561,-2.816,-2.6892,-2.5693,-2.4645,-2.4053,-2.3895,-2.4274,-2.4229,-2.4498,-2.5142,-2.4876,-2.4839,-2.5047,-2.5818,-2.6182,-2.6016,-2.658,-2.6803,-2.6614,-2.6451,-2.6066,-2.5489,-2.4828,-2.4349,-2.4045,-2.3506,-2.3498,-2.3883,-2.3883,-2.3726,-2.344,-2.3204,-2.2903,-2.2599,-2.2599,-2.2599,-2.2652,-2.323,-2.3482,-2.361,0.0,0.0,0.0,0.0,0.0,0.0,0.0,0.0,0.0,0.0,0.0,0.0,0.0,0.0,0.0,0.0,0.0,0.0,0.0,0.5068,0.6268,0.743,0.7785,0.7982,0.8086,0.7109,0.6244,0.5359,0.5155,0.4546,0.3573,0.3571,0.3612,0.3783,0.3759,0.3068,0.186,0.0497,-0.1601,-0.4116,-0.5425,-0.7438,-0.961,-1.072,-1.178,-1.2751,-1.4093,0.0,0.0,0.0,-1.3599,-1.3634,-1.3353,-1.3641,0.0,-1.3823,-1.3764,0.0,0.0,0.0,-1.246,-1.3058,-1.428,-1.5913,-1.7896,-2.0212,-2.1989,-2.2007,-2.388,-2.5679,-2.6407,-2.736,-2.8505,-2.9624,-2.8863,-2.8122,-2.8109,-2.6239,-2.5077,-2.5769,-2.4208,-2.3437,0.0,-2.3794,-2.3755,-2.4498,-2.4625,-2.4418,-2.3803,-2.4936,-2.5349,-2.4776,-2.5334,-2.5347,-2.4702,-2.4028,-2.3648,-2.3468,-2.2823,-2.2378,-2.2163,-2.1822,-2.1919,-2.2378,-2.2378,-2.2361,-2.2344,-2.2344,-2.2327,-2.231,-2.231,-2.231,-2.2349,-2.2625,-2.2947,-2.3259,0.0,0.0,0.0,0.0,0.0,0.0,0.0,0.0,0.0,0.0,0.0,0.0,0.0,0.0,0.0,0.0,0.0,0.0,0.0,0.5445,0.6716,0.736,0.813,0.8793,0.9285,0.8926,0.8442,0.7893,0.7735,0.7177,0.6233,0.6233,0.5826,0.5168,0.5069,0.3915,0.189,0.0577,-0.1538,-0.3941,-0.5248,-0.777,-1.0705,-1.0622,-1.1849,-1.354,0.0,0.0,0.0,-1.2926,-1.2752,-1.2772,-1.2866,-1.2772,-1.2556,-1.1941,-1.1412,-1.1024,0.0,0.0,-1.1887,-1.3501,-1.4082,-1.5057,-1.7581,-1.9301,-2.0603,-2.1329,-2.2683,-2.3945,-2.4714,-2.5663,-2.6687,-2.7913,-2.8109,-2.8109,-2.8109,-2.6841,-2.5618,-2.4746,-2.4102,0.0,0.0,0.0,0.0,-2.3071,-2.2471,-2.2199,-2.2367,-2.2766,-2.2909,-2.2718,-2.291,-2.2892,-2.2673,-2.2443,-2.234,-2.2258,-2.187,-2.1377,-2.0913,-2.1119,-2.1291,-2.1462,-2.1462,-2.1584,-2.184,-2.184,-2.2032,-2.231,-2.231,-2.231,-2.231,-2.2398,-2.2209,-2.2038,0.0,0.0,0.0,0.0,0.0,0.0,0.0,0.0,0.0,0.0,0.0,0.0,0.0,0.0,0.0,0.0,0.0,0.0,0.0,0.0,0.7505,0.7841,0.8694,0.9322,0.9848,0.9571,0.9308,0.9002,0.87,0.8233,0.7717,0.751,0.6996,0.6306,0.5871,0.4536,0.2457,0.0375,-0.1765,-0.3782,-0.5734,-0.8271,-1.0762,-1.0573,-1.1852,0.0,0.0,0.0,0.0,-1.2158,-1.2058,-1.2072,-1.1747,-1.1332,-1.0918,-1.0503,-0.9936,-0.9466,-1.0173,-1.0076,-1.03,-1.2294,-1.3024,-1.3817,-1.6115,-1.8077,-1.9637,-2.0303,-2.1425,-2.2543,-2.3199,-2.3959,-2.4837,-2.5857,-2.6539,-2.6992,-2.718,-2.6264,-2.5454,-2.5001,-2.4583,0.0,0.0,0.0,0.0,-2.2076,-2.1446,-2.1057,-2.1002,-2.1267,-2.1313,-2.1111,-2.1111,-2.1197,-2.1427,-2.1193,-2.1045,-2.0961,-2.0831,-2.0573,-2.0314,-2.0616,-2.0829,-2.0991,-2.0991,-2.115,-2.1399,-2.1399,-2.1645,-2.2032,-2.2032,-2.2135,-2.231,-2.231,-2.2006,-2.1681,0.0,0.0,0.0,0.0,0.0,0.0,0.0,0.0,0.0,0.0,0.0,0.0,0.0,0.0,0.0,0.0,0.0,0.0,0.0,0.0,0.0,0.876,0.9363,0.9702,0.98,0.9249,0.8959,0.8917,0.8186,0.7897,0.7914,0.7179,0.7065,0.7242,0.6045,0.4813,0.339,-0.0184,-0.2344,-0.3726,-0.6919,-0.8953,-1.0059,-1.0556,0.0,0.0,0.0,0.0,0.0,0.0,0.0,0.0,0.0,-0.9405,-0.9294,-0.9541,-0.9155,-0.8681,-0.8938,-0.8352,-0.8065,-0.9718,-1.0974,-1.2231,-1.3669,-1.685,-1.9348,-1.8855,-1.9994,-2.1263,0.0,0.0,-2.2924,-2.3494,-2.4296,-2.4987,-2.5515,-2.4691,-2.4672,0.0,0.0,0.0,0.0,0.0,0.0,-2.1419,0.0,-2.1017,-1.9875,-2.042,-2.0533,-1.9985,-1.9966,-2.0259,-2.0765,-2.0186,-1.9836,-1.969,-1.969,-1.9909,-2.028,-2.028,-2.0516,-2.0926,-2.0926,-2.0959,-2.0959,-2.0959,-2.1213,-2.1552,-2.1552,-2.1853,-2.2265,-2.2231,-2.2198,-2.2101,0.0,0.0,0.0,0.0,0.0,0.0,0.0,0.0,0.0,0.0,0.0,0.0,0.0,0.0,0.0,0.0,0.0,0.0,0.0,0.0,0.0,0.0,0.0,0.0,0.0,0.0,0.0,0.9064,0.8889,0.8164,0.7026,0.6822,0.6457,0.5832,0.4794,0.321,0.1292,-0.1973,-0.4072,-0.5366,0.0,-0.9526,-1.0695,0.0,0.0,0.0,0.0,0.0,0.0,0.0,0.0,0.0,0.0,-0.9223,-0.8869,-0.897,-0.8448,-0.7908,-0.7937,-0.7948,-0.8427,-1.0849,-1.1653,-1.2485,-1.4503,-1.7106,-1.8756,-1.7768,-1.8455,-1.9278,0.0,0.0,0.0,-2.2275,-2.4093,0.0,-2.5148,-2.5168,0.0,0.0,0.0,-2.311,-2.2739,-2.1886,0.0,0.0,-2.0042,-2.0104,-1.9811,-1.9583,-1.9387,-1.9253,-1.8871,-1.894,-1.9419,-1.9624,-1.973,-1.969,-1.969,-1.9747,-1.9839,-1.9839,-1.9909,-2.0015,-2.0015,-2.0208,-2.0483,-2.0483,-2.0748,-2.115,-2.115,-2.1415,-2.1728,-2.1164,-2.0799,-2.05,0.0,0.0,0.0,0.0,0.0,0.0,0.0,0.0,0.0,0.0,0.0,0.0,0.0,0.0,0.0,0.0,0.0,0.0,0.0,0.0,0.0,0.0,0.0,0.0,0.0,0.0,0.0,0.0,0.0,0.0,0.5711,0.5005,0.4516,0.4084,0.2234,0.0775,-0.0713,-0.3716,0.0,0.0,0.0,0.0,0.0,0.0,0.0,0.0,0.0,0.0,0.0,0.0,0.0,-0.8914,-0.909,-0.8623,-0.804,-0.8192,0.0,-0.7529,-0.7658,-0.8144,-0.8891,-1.0419,-1.1557,-1.2664,-1.3907,-1.6233,-1.7811,-1.6874,-1.746,0.0,0.0,0.0,0.0,0.0,0.0,0.0,-2.388,-2.397,-2.3779,0.0,-2.2759,0.0,-2.1748,-2.1263,-2.0605,0.0,-1.9989,-1.9858,-1.8988,-1.8747,-1.8555,-1.8317,-1.7753,-1.7686,-1.8193,-1.8744,-1.9006,-1.9006,-1.9244,-1.9369,-1.9369,-1.9603,-1.969,-1.969,0.0,-1.9854,-2.0035,-2.0035,-2.0296,-2.0682,-2.0682,-2.0959,-2.1289,-2.0882,-2.0397,-1.9915,0.0,0.0,0.0,0.0,0.0,0.0,0.0,0.0,0.0,0.0,0.0,0.0,0.0,0.0,0.0,0.0,0.0,0.0,0.0,0.0,0.0,0.0,0.0,0.0,0.0,0.0,0.0,0.0,0.0,0.0,0.0,0.0,0.0,0.0,0.0,0.0,0.0,0.0,0.0,0.0,0.0,0.0,0.0,0.0,0.0,0.0,0.0,0.0,0.0,0.0,-0.8328,-0.8058,-0.8452,-0.7949,-0.7309,-0.7556,-0.7612,-0.7636,-0.7875,-0.8757,-0.9627,-0.981,-1.1535,-1.3221,-1.306,-1.5212,-1.6921,-1.6105,0.0,-1.7148,-1.665,0.0,-1.8383,-1.8516,0.0,-2.1626,-2.2241,-2.2056,-2.2081,-2.2522,-2.219,-2.1665,-2.1052,-2.0717,-2.0321,-1.9692,-1.9987,-1.958,-1.8091,-1.8129,-1.7915,-1.7287,-1.686,-1.6837,-1.7312,-1.7827,-1.8106,-1.8106,-1.865,-1.8893,-1.893,-1.9442,-1.969,-1.969,0.0,0.0,-1.969,-1.969,-1.9909,-2.0212,-2.0212,-2.0483,-2.0862,-2.0687,-2.0304,-1.9785,0.0,0.0,0.0,0.0,0.0,0.0,0.0,0.0,0.0,0.0,0.0,0.0,0.0,0.0,0.0,0.0,0.0,0.0,0.0,0.0,0.0,0.0,0.0,0.0,0.0,0.0,0.0,0.0,0.0,0.0,0.0,0.0,0.0,0.0,0.0,0.0,0.0,0.0,0.0,0.0,0.0,0.0,0.0,0.0,0.0,0.0,0.0,0.0,0.0,0.0,-0.784,-0.7813,-0.796,-0.7876,-0.7868,-0.7794,-0.8233,-0.883,-0.8738,-0.9897,-1.1456,-1.2484,-1.3756,-1.471,-1.4736,-1.617,0.0,0.0,0.0,-1.6602,-1.5791,-1.6412,0.0,-1.8439,0.0,0.0,0.0,0.0,-2.1702,0.0,0.0,0.0,0.0,0.0,0.0,0.0,0.0,0.0,-1.8772,-1.8396,-1.7739,-1.6697,-1.696,-1.7188,-1.7312,-1.7827,-1.8106,-1.8106,-1.865,-1.8893,-1.893,-1.9442,-1.969,-1.969,0.0,0.0,-1.969,-1.969,-1.9747,-1.9803,-1.9803,-2.007,-2.0276,-1.9107,-1.8854,-1.8908,0.0,0.0,0.0,0.0,0.0,0.0,0.0,0.0,0.0,0.0,0.0,0.0,0.0,0.0,0.0,0.0,0.0,0.0,0.0,0.0,0.0,0.0,0.0,0.0,0.0,0.0,0.0,0.0,0.0,0.0,0.0,0.0,0.0,0.0,0.0,0.0,0.0,0.0,0.0,0.0,0.0,0.0,0.0,0.0,0.0,0.0,0.0,0.0,0.0,0.0,-0.8564,-0.9084,-0.814,-0.8247,-0.8743,-0.8487,-0.9025,-0.9821,-1.0115,-1.1533,-1.3185,-1.4301,-1.5426,-1.6032,-1.5601,0.0,0.0,0.0,0.0,-1.5918,-1.5488,0.0,0.0,0.0,0.0,0.0,0.0,0.0,0.0,0.0,0.0,0.0,0.0,0.0,0.0,0.0,0.0,0.0,-1.7411,-1.7345,-1.7074,-1.6534,-1.6752,-1.6879,-1.6879,-1.7146,-1.7271,-1.7271,-1.7827,-1.8224,-1.8496,-1.9043,-1.9442,-1.969,-1.969,0.0,-1.969,-1.969,-1.969,-1.969,-1.969,-1.9818,-1.9843,-1.8855,-1.8389,-1.816,0.0,0.0,0.0,0.0,0.0,0.0,0.0,0.0,0.0,0.0,0.0,0.0,0.0,0.0,0.0,0.0,0.0,0.0,0.0,0.0,0.0,0.0,0.0,0.0,0.0,0.0,0.0,0.0,0.0,0.0,0.0,0.0,0.0,0.0,0.0,0.0,0.0,0.0,0.0,0.0,0.0,0.0,0.0,0.0,0.0,0.0,0.0,0.0,0.0,0.0,-0.9672,-1.0604,-0.8934,-0.9031,-0.9703,-0.9451,-1.0082,-1.1074,-1.2002,-1.3571,-1.5213,-1.6142,-1.7225,-1.7647,-1.626,-1.6056,0.0,0.0,-1.4814,-1.541,-1.541,0.0,0.0,0.0,0.0,0.0,0.0,0.0,0.0,0.0,0.0,0.0,0.0,0.0,0.0,0.0,0.0,0.0,0.0,-1.6111,-1.6238,-1.6479,-1.638,-1.638,-1.6522,-1.6522,-1.6522,-1.6522,-1.7034,-1.7504,-1.7947,-1.8496,-1.8968,-1.9369,-1.9369,0.0,0.0,-1.953,-1.9603,-1.9675,-1.9525,-1.948,-1.939,-1.8732,-1.8041,-1.7492,0.0,0.0,0.0,0.0,0.0,0.0,0.0,0.0,0.0,0.0,0.0,0.0,0.0,0.0,0.0,0.0,0.0,0.0,0.0,0.0,0.0,0.0,0.0,0.0,0.0,0.0,0.0,0.0,0.0,0.0,0.0,0.0,0.0,0.0,0.0,0.0,0.0,0.0,0.0,0.0,0.0,0.0,0.0,0.0,0.0,0.0,0.0,0.0,0.0,0.0,0.0,-1.1623,-1.0686,-1.0484,-1.0509,-1.0672,0.0,0.0,-1.4433,-1.6209,-1.7794,-1.8639,-1.9573,-1.9659,-1.7164,0.0,0.0,-1.4602,-1.4814,-1.541,-1.541,-1.5166,-1.5361,0.0,0.0,-1.6924,0.0,0.0,0.0,0.0,0.0,0.0,0.0,0.0,0.0,0.0,0.0,0.0,0.0,-1.5407,-1.5389,-1.6479,-1.5952,-1.5964,-1.6466,-1.6522,-1.6522,-1.6522,-1.7034,-1.7353,-1.7394,-1.7947,-1.8224,-1.8263,0.0,0.0,0.0,-1.8968,-1.9244,-1.963,-1.9031,-1.8792,-1.8717,-1.8059,-1.7369,-1.6876,0.0,0.0,0.0,0.0,0.0,0.0,0.0,0.0,0.0,0.0,0.0,0.0,0.0,0.0,0.0,0.0,0.0,0.0,0.0,0.0,0.0,0.0,0.0,0.0,0.0,0.0,0.0,0.0,0.0,0.0,0.0,0.0,0.0,0.0,0.0,0.0,0.0,0.0,0.0,0.0,0.0,0.0,0.0,0.0,0.0,0.0,0.0,0.0,0.0,0.0,0.0,0.0,-1.3134,-1.3064,0.0,0.0,-1.3278,-1.4801,-1.6404,-1.8143,-1.9839,-2.1016,-2.1055,-2.0445,-1.8918,0.0,-1.6566,-1.5022,-1.5093,-1.541,-1.541,-1.5273,-1.5332,-1.5859,0.0,0.0,0.0,0.0,0.0,0.0,0.0,0.0,0.0,0.0,0.0,0.0,0.0,0.0,0.0,-1.4753,-1.4926,-1.5377,-1.5197,-1.5332,-1.5964,-1.5952,-1.6139,-1.6522,-1.671,-1.6993,-1.7312,-1.7504,-1.7787,-1.8106,0.0,0.0,0.0,-1.8893,-1.9207,-1.966,-1.939,-1.9046,-1.8627,-1.7936,-1.7279,-1.6697,0.0,0.0,0.0,0.0,0.0,0.0,0.0,0.0,0.0,0.0,0.0,0.0,0.0,0.0,0.0,0.0,0.0,0.0,0.0,0.0,0.0,0.0,0.0,0.0,0.0,0.0,0.0,0.0,0.0,0.0,0.0,0.0,0.0,0.0,0.0,0.0,0.0,0.0,0.0,0.0,0.0,0.0,0.0,0.0,0.0,0.0,0.0,0.0,0.0,0.0,0.0,0.0,0.0,0.0,0.0,0.0,-1.4911,-1.6386,-1.7929,-1.9645,-2.1297,-2.2484,-2.2007,-2.0909,0.0,0.0,-1.672,-1.5405,-1.5359,-1.5501,-1.5282,-1.5225,-1.5264,-1.5391,0.0,-1.6025,0.0,0.0,0.0,0.0,0.0,0.0,0.0,0.0,0.0,0.0,0.0,0.0,0.0,-1.3931,-1.434,-1.4709,-1.4525,-1.4732,-1.532,-1.532,-1.5644,-1.6238,-1.6238,-1.6539,-1.7076,-1.7076,-1.7353,-1.7867,0.0,0.0,0.0,-1.8574,-1.8855,-1.9427,-1.9235,-1.8762,-1.814,-1.7829,-1.716,-1.6413,0.0,0.0,0.0,0.0,0.0,0.0,0.0,0.0,0.0,0.0,0.0,0.0,0.0,0.0,0.0,0.0,0.0,0.0,0.0,0.0,0.0,0.0,0.0,0.0,0.0,0.0,0.0,-1.1353,-1.3411,0.0,0.0,0.0,0.0,0.0,0.0,0.0,0.0,0.0,0.0,0.0,0.0,0.0,0.0,0.0,0.0,0.0,0.0,0.0,0.0,0.0,0.0,0.0,0.0,-1.7188,-1.7246,0.0,-1.6159,-1.7516,-1.8874,-2.0537,-2.2075,-2.2896,-2.2309,-2.1176,0.0,0.0,-1.8037,-1.5676,-1.5563,-1.5683,-1.4952,-1.4795,-1.4932,-1.5342,-1.542,0.0,0.0,0.0,0.0,0.0,0.0,0.0,0.0,0.0,0.0,0.0,0.0,0.0,0.0,0.0,-1.3478,-1.4663,-1.4097,-1.4097,-1.4698,-1.4698,-1.5017,-1.5632,-1.5632,-1.5908,-1.6522,-1.6522,-1.6795,0.0,0.0,0.0,0.0,-1.7747,-1.7947,-1.8835,-1.8165,-1.7497,-1.6987,-1.7519,-1.6907,-1.5993,0.0,0.0,0.0,0.0,0.0,0.0,0.0,0.0,0.0,0.0,0.0,0.0,0.0,0.0,0.0,0.0,0.0,0.0,0.0,0.0,0.0,0.0,0.0,0.0,0.0,0.0,0.0,-1.393,-1.5593,-1.7868,-2.0673,0.0,0.0,0.0,0.0,0.0,0.0,0.0,0.0,0.0,0.0,0.0,0.0,0.0,0.0,0.0,0.0,0.0,0.0,0.0,0.0,0.0,0.0,0.0,0.0,-1.7463,-1.7498,-1.8121,-1.9516,-2.0558,-2.1451,-2.2325,-2.1443,-2.0235,-1.9837,0.0,-1.7305,-1.6198,-1.622,-1.6321,-1.5529,-1.543,-1.5406,-1.54,-1.541,0.0,0.0,0.0,0.0,0.0,0.0,0.0,0.0,0.0,0.0,0.0,0.0,0.0,0.0,0.0,-1.3065,-1.3478,-1.3286,-1.3467,-1.4097,-1.3774,-1.4261,-1.5576,-1.5317,-1.5654,-1.6522,-1.6522,0.0,0.0,0.0,0.0,0.0,-1.7195,-1.7408,-1.8303,-1.7723,-1.6874,-1.5994,-1.6438,-1.6074,-1.5447,0.0,0.0,0.0,0.0,0.0,0.0,0.0,0.0,0.0,0.0,0.0,0.0,0.0,0.0,0.0,0.0,0.0,0.0,0.0,0.0,0.0,0.0,0.0,0.0,0.0,0.0,-1.465,-1.6397,-1.8187,-2.0461,-2.3234,-2.4264,-2.5706,0.0,0.0,0.0,0.0,0.0,0.0,0.0,0.0,0.0,-2.4252,0.0,0.0,0.0,0.0,0.0,0.0,0.0,0.0,0.0,0.0,0.0,0.0,0.0,-1.8625,-1.8643,0.0,-2.0409,-2.1277,-2.1881,-2.0891,0.0,0.0,0.0,-1.758,-1.672,-1.6598,-1.6378,-1.5499,-1.5243,-1.5159,-1.537,-1.541,0.0,0.0,0.0,0.0,0.0,0.0,0.0,0.0,0.0,0.0,0.0,0.0,0.0,0.0,0.0,-1.2881,-1.2881,-1.2881,-1.3055,-1.3467,-1.3181,-1.3573,-1.4663,-1.4824,-1.5238,-1.5941,-1.6123,0.0,0.0,0.0,0.0,0.0,-1.644,-1.6416,-1.7155,-1.6826,-1.6077,-1.5264,-1.5698,-1.5541,-1.5134,0.0,0.0,0.0,0.0,0.0,0.0,0.0,0.0,0.0,0.0,0.0,0.0,0.0,0.0,0.0,0.0,0.0,0.0,0.0,0.0,0.0,0.0,0.0,0.0,0.0,-1.5362,-1.7074,-1.8891,-2.1063,-2.3321,-2.5595,-2.668,-2.7455,-2.7984,-2.7551,-2.7194,-2.6869,-2.6722,-2.6497,-2.6265,-2.6322,-2.5629,0.0,0.0,0.0,0.0,0.0,0.0,0.0,0.0,0.0,0.0,0.0,0.0,0.0,0.0,0.0,0.0,0.0,-2.0096,0.0,0.0,0.0,0.0,0.0,0.0,0.0,-1.7185,-1.6638,-1.6133,-1.5084,-1.4508,-1.4443,-1.5273,-1.541,0.0,0.0,0.0,0.0,0.0,0.0,0.0,0.0,0.0,0.0,0.0,0.0,0.0,0.0,0.0,0.0,-1.2881,-1.2881,-1.2881,-1.2881,-1.2852,-1.2939,-1.3165,-1.4114,-1.4662,-1.4947,-1.5373,0.0,0.0,0.0,0.0,0.0,-1.5517,-1.5171,-1.5628,-1.5591,-1.5174,-1.466,-1.5195,-1.5244,-1.5013,0.0,0.0,0.0,0.0,0.0,0.0,0.0,0.0,0.0,0.0,0.0,0.0,0.0,0.0,0.0,0.0,0.0,0.0,0.0,0.0,0.0,0.0,0.0,0.0,0.0,-1.8189,-1.9768,-2.1568,-2.334,-2.522,-2.7187,-2.7643,-2.8294,-2.9042,-2.8923,-2.8427,-2.7611,-2.7266,-2.7071,-2.6852,-2.5604,-2.5157,0.0,0.0,0.0,0.0,-2.1066,-2.0718,0.0,0.0,0.0,0.0,0.0,0.0,0.0,0.0,-2.0024,-2.0213,-1.9731,0.0,-1.9698,-2.01,-1.9698,-1.9083,0.0,0.0,0.0,0.0,0.0,-1.6455,-1.5618,-1.5393,-1.534,-1.538,-1.541,0.0,0.0,0.0,0.0,0.0,0.0,0.0,0.0,0.0,0.0,0.0,0.0,0.0,0.0,0.0,0.0,-1.2881,-1.2881,-1.2881,-1.2881,-1.2549,-1.2813,-1.3696,-1.3227,-1.3457,-1.4329,-1.441,0.0,0.0,0.0,0.0,-1.5992,-1.521,-1.494,-1.4972,-1.4627,-1.4113,-1.3616,-1.4099,-1.4238,-1.4214,0.0,0.0,0.0,0.0,0.0,0.0,0.0,0.0,0.0,0.0,0.0,0.0,0.0,0.0,0.0,0.0,0.0,0.0,0.0,0.0,0.0,0.0,0.0,0.0,0.0,-2.063,-2.2036,-2.3365,-2.5253,-2.6705,-2.773,-2.8483,-2.9045,-2.9392,-2.9267,-2.8737,-2.7858,-2.7467,-2.6908,-2.6179,-2.5116,0.0,0.0,0.0,0.0,0.0,-2.1255,-2.0932,0.0,-2.1016,-2.0526,-1.9861,0.0,0.0,0.0,0.0,-2.0426,-2.0706,-2.0589,-2.0376,-2.0225,-2.0514,-2.0085,-1.9543,-1.9144,0.0,0.0,0.0,0.0,-1.6224,-1.5629,-1.5568,0.0,0.0,0.0,0.0,0.0,0.0,0.0,0.0,0.0,0.0,0.0,0.0,0.0,0.0,0.0,0.0,0.0,0.0,0.0,0.0,-1.2881,-1.2881,-1.2881,-1.2451,-1.2428,-1.2859,-1.2605,-1.2685,-1.306,-1.3321,0.0,0.0,0.0,0.0,-1.4574,-1.4249,-1.4116,-1.4033,-1.3778,-1.3496,-1.3232,-1.348,-1.3702,-1.3934,0.0,0.0,0.0,0.0,0.0,0.0,0.0,0.0,0.0,0.0,0.0,0.0,0.0,0.0,0.0,0.0,0.0,0.0,0.0,0.0,0.0,0.0,0.0,0.0,-2.074,-2.2508,-2.3795,-2.4572,-2.6698,-2.7809,-2.8019,-2.9158,-2.9607,-2.9415,-2.8942,-2.8424,-2.7858,-2.7299,-2.6339,-2.5156,-2.4488,0.0,0.0,0.0,0.0,0.0,0.0,0.0,0.0,-2.0991,-2.0552,-1.9949,-1.992,0.0,0.0,0.0,0.0,0.0,-2.0884,-2.1243,-2.144,-2.1319,-2.0836,-2.0284,-1.997,0.0,0.0,0.0,0.0,0.0,0.0,0.0,0.0,0.0,0.0,0.0,0.0,0.0,0.0,0.0,0.0,0.0,0.0,0.0,0.0,0.0,0.0,0.0,0.0,0.0,0.0,0.0,-1.2881,-1.2852,-1.2783,-1.2412,-1.2047,-1.1727,-1.2076,-1.2047,-1.1675,-1.2157,0.0,0.0,0.0,0.0,-1.3176,-1.3178,-1.3204,-1.3198,-1.3198,-1.3198,-1.3198,-1.3198,-1.3459,-1.3802,0.0,0.0,0.0,0.0,0.0,0.0,0.0,0.0,0.0,0.0,0.0,0.0,0.0,0.0,0.0,0.0,0.0,0.0,0.0,0.0,0.0,0.0,0.0,-2.0774,-2.0938,-2.3018,-2.4512,-2.5438,-2.7068,-2.8397,-2.94,-2.9603,-2.9678,-2.9587,-2.8132,-2.7635,-2.7823,-2.6556,-2.5707,-2.5014,-2.2997,0.0,0.0,0.0,0.0,0.0,0.0,0.0,0.0,-2.2447,-2.1769,-2.0548,-2.039,0.0,0.0,0.0,0.0,0.0,-1.8817,-2.0011,-2.1117,-2.0558,-2.0411,-1.9889,0.0,0.0,0.0,0.0,0.0,0.0,0.0,0.0,0.0,0.0,0.0,0.0,0.0,0.0,0.0,0.0,0.0,0.0,0.0,0.0,0.0,0.0,0.0,0.0,0.0,0.0,0.0,-1.2881,-1.2881,-1.2705,-1.2334,-1.2219,-1.2218,-1.217,-1.1466,-1.1136,-1.1124,-1.12,-1.127,0.0,0.0,-1.2588,-1.2651,-1.3093,-1.324,-1.3198,-1.3198,-1.3198,-1.3198,-1.3198,-1.3267,-1.3288,0.0,0.0,0.0,0.0,0.0,0.0,0.0,0.0,0.0,0.0,0.0,0.0,0.0,0.0,0.0,0.0,0.0,0.0,0.0,0.0,0.0,0.0,-2.0973,-2.1462,-2.1729,-2.3387,-2.4565,-2.5208,-2.6516,-2.7508,-2.8201,-2.8633,-2.9083,-2.9476,-2.8346,-2.787,-2.7823,-2.6421,-2.5335,-2.4487,0.0,0.0,0.0,0.0,0.0,0.0,0.0,0.0,0.0,0.0,-2.0859,-1.9575,-1.9533,0.0,0.0,0.0,0.0,0.0,-1.8767,-1.9902,-2.0758,-1.995,-2.0309,-2.0643,0.0,0.0,0.0,0.0,0.0,0.0,0.0,0.0,0.0,0.0,0.0,0.0,0.0,0.0,0.0,0.0,0.0,0.0,0.0,0.0,0.0,0.0,0.0,0.0,0.0,0.0,0.0,0.0,-1.2646,-1.2432,-1.218,-1.1713,-1.1492,-1.1528,-1.0893,-1.0706,-1.0954,-1.0722,-1.0742,-1.0964,0.0,-1.1713,-1.1737,-1.2539,-1.283,-1.2838,-1.3094,-1.3198,-1.3198,-1.3198,-1.3198,-1.3198,0.0,0.0,0.0,0.0,0.0,0.0,0.0,0.0,0.0,0.0,0.0,0.0,0.0,0.0,0.0,0.0,0.0,0.0,0.0,0.0,-2.1267,-2.0292,-2.105,-2.1636,-2.1941,-2.3232,-2.4089,-2.4527,-2.5529,-2.638,-2.7102,-2.7715,-2.8609,-2.9651,-2.8992,-2.8506,-2.8088,-2.6674,-2.5287,-2.386,0.0,0.0,0.0,0.0,0.0,0.0,0.0,0.0,0.0,0.0,0.0,0.0,0.0,0.0,0.0,-1.7707,-1.7759,-1.7868,-1.8408,-1.9106,-1.9566,-1.901,0.0,0.0,0.0,0.0,0.0,0.0,0.0,0.0,0.0,0.0,0.0,0.0,0.0,0.0,0.0,0.0,0.0,0.0,0.0,0.0,0.0,0.0,0.0,0.0,0.0,0.0,0.0,0.0,0.0,0.0,-1.2396,-1.2285,-1.207,-1.1504,-1.1113,-1.0908,-1.0586,-1.0547,-1.0752,-1.0537,-1.0547,-1.0742,-1.083,-1.0905,-1.1057,-1.1836,-1.221,-1.2389,-1.2838,-1.3094,-1.3198,-1.3198,-1.3198,-1.3198,0.0,0.0,0.0,0.0,0.0,0.0,0.0,0.0,0.0,0.0,0.0,0.0,0.0,0.0,0.0,0.0,0.0,0.0,0.0,0.0,-2.1683,-2.1594,-2.1086,-2.0777,-2.0548,-2.1919,-2.2886,-2.342,-2.4172,-2.5597,-2.7638,-2.7693,-2.8743,-3.0469,-2.9794,-2.934,-2.8942,-2.7503,-2.5534,-2.3253,-2.214,0.0,0.0,0.0,0.0,0.0,0.0,0.0,0.0,0.0,0.0,0.0,0.0,0.0,-1.6436,-1.5788,-1.5624,-1.5723,-1.6227,-1.6383,-1.6618,-1.7337,-1.8291,0.0,-1.9362,-1.7189,0.0,0.0,0.0,0.0,0.0,0.0,0.0,0.0,0.0,0.0,0.0,0.0,0.0,0.0,0.0,0.0,0.0,0.0,0.0,0.0,0.0,0.0,0.0,0.0,0.0,0.0,0.0,-1.2441,-1.1655,-1.1963,-1.1684,-1.0908,-1.0879,-1.0674,-1.0342,-1.0703,-1.0674,-1.0322,-1.0332,-1.0611,-1.1019,-1.1094,-1.1394,-1.1884,-1.2354,-1.2838,-1.3198,-1.3198,-1.3198,-1.3198,0.0,0.0,0.0,0.0,0.0,0.0,0.0,0.0,0.0,0.0,0.0,0.0,0.0,0.0,0.0,0.0,0.0,0.0,0.0,0.0,-2.2321,-2.121,-2.093,-2.0772,-2.0656,-2.1413,-2.1613,-2.1263,-2.3081,-2.542,-2.8202,-2.8136,-2.9472,-3.1808,-3.0846,-3.0184,-2.966,-2.7791,-2.6066,-2.4441,-2.248,-2.1197,0.0,0.0,0.0,0.0,0.0,0.0,0.0,0.0,-1.8014,-1.7202,-1.6916,-1.6399,-1.5748,-1.5468,-1.541,-1.5449,-1.5615,-1.5641,-1.5676,-1.6086,-1.6058,0.0,0.0,-1.6812,-1.535,0.0,0.0,0.0,0.0,0.0,0.0,0.0,0.0,0.0,0.0,0.0,0.0,0.0,0.0,0.0,0.0,0.0,0.0,0.0,0.0,0.0,0.0,0.0,0.0,0.0,0.0,-1.1779,-1.1606,-1.1773,-1.1504,-1.0908,-1.0908,-1.0967,-1.1106,-1.0693,-1.0576,-1.0654,-1.04,-1.039,-1.0572,-1.0867,-1.1132,-1.1356,-1.1884,-1.2174,-1.2318,-1.2318,-1.2508,-1.272,0.0,0.0,0.0,0.0,0.0,0.0,0.0,0.0,0.0,0.0,0.0,0.0,0.0,0.0,0.0,0.0,0.0,0.0,0.0,0.0,-2.3098,-2.1697,-2.1459,-2.1185,-2.0822,-2.1067,-2.0932,-2.0404,-2.2175,-2.4667,-2.7781,-2.8156,-2.9899,-3.2757,-3.1972,-3.1374,-3.079,-2.8384,-2.6571,-2.5195,-2.2672,-2.1342,0.0,0.0,0.0,0.0,0.0,0.0,0.0,0.0,-1.6754,-1.612,-1.5987,-1.5605,-1.5215,-1.5215,-1.5071,-1.502,-1.5153,-1.4781,-1.4444,-1.4897,0.0,0.0,-1.59,-1.5552,-1.4702,0.0,0.0,0.0,0.0,0.0,0.0,0.0,0.0,0.0,0.0,0.0,0.0,0.0,0.0,0.0,0.0,0.0,0.0,0.0,0.0,0.0,0.0,0.0,0.0,0.0,0.0,0.0,-1.1777,-1.1768,-1.1621,-1.1318,-1.1045,-1.0996,-1.1185,-1.0684,-1.0566,-1.0693,-1.041,-1.0283,-1.0322,-1.0649,-1.0867,-1.1057,-1.1394,-1.1664,-1.1811,-1.1811,-1.1993,-1.2246,0.0,0.0,0.0,0.0,0.0,0.0,0.0,0.0,0.0,0.0,0.0,0.0,0.0,0.0,0.0,0.0,0.0,0.0,0.0,-2.4862,-2.3989,-2.3518,-2.2878,-2.2024,-2.0959,-2.0812,-2.0931,-2.1286,-2.152,-2.321,-2.6259,-2.755,-2.9948,-3.3214,-3.3214,-3.2983,-3.2393,-2.9369,-2.7048,-2.5195,-2.2718,-2.1342,-2.0633,0.0,0.0,0.0,0.0,0.0,0.0,0.0,-1.5979,-1.5342,-1.4922,-1.4795,-1.4795,-1.4785,-1.4438,-1.4114,-1.4568,-1.3465,-1.2462,0.0,0.0,0.0,-1.3307,-1.3285,0.0,0.0,0.0,0.0,0.0,0.0,0.0,0.0,0.0,0.0,0.0,0.0,0.0,0.0,0.0,0.0,0.0,0.0,0.0,0.0,0.0,0.0,0.0,0.0,0.0,0.0,0.0,0.0,-1.219,-1.218,-1.218,-1.2161,-1.1285,-1.0693,-1.0303,-1.0713,-1.0674,-1.0283,-1.0283,-1.0283,-1.0283,-1.0283,-1.0572,-1.0971,-1.0971,-1.1319,-1.1774,-1.1774,-1.1774,-1.1774,0.0,0.0,0.0,0.0,0.0,0.0,0.0,0.0,0.0,0.0,0.0,0.0,0.0,0.0,0.0,0.0,0.0,0.0,0.0,-2.4801,-2.4222,-2.3243,-2.2685,-2.251,-2.2717,-2.273,-2.247,-2.1845,-2.2769,-2.509,-2.8697,-2.9938,-3.1762,-3.4026,-3.3497,-3.2709,-3.1579,-2.8956,-2.7118,-2.5844,-2.3773,-2.2321,-2.128,0.0,0.0,0.0,0.0,0.0,0.0,0.0,0.0,0.0,-1.5264,-1.502,-1.4763,-1.5139,-1.4432,-1.3721,-1.4187,-1.3268,0.0,0.0,0.0,0.0,0.0,0.0,0.0,0.0,0.0,0.0,0.0,0.0,0.0,0.0,0.0,0.0,0.0,0.0,0.0,0.0,0.0,0.0,0.0,0.0,0.0,0.0,0.0,0.0,0.0,0.0,0.0,0.0,0.0,0.0,-1.0772,-1.0867,-1.0971,-1.1067,-1.0566,-1.046,-1.0713,-1.0547,-1.04,-1.0283,-1.0283,-1.0283,-1.0283,-1.0283,-1.039,-1.0505,-1.0505,-1.0611,-1.0725,-1.0725,-1.0943,-1.1207,0.0,0.0,0.0,0.0,0.0,0.0,0.0,0.0,0.0,0.0,-2.5098,-2.5356,0.0,0.0,0.0,0.0,0.0,0.0,0.0,0.0,-2.4478,-2.3528,-2.3226,-2.3097,-2.3203,-2.3915,-2.3738,-2.26,-2.3522,0.0,0.0,0.0,-3.1437,-3.339,0.0,-3.214,-3.1017,-2.8816,-2.7214,-2.6025,-2.4234,-2.279,-2.1555,0.0,0.0,0.0,0.0,0.0,0.0,0.0,0.0,0.0,-1.5215,-1.474,-1.4321,-1.4715,-1.3822,-1.2869,-1.3586,-1.2856,0.0,0.0,0.0,0.0,0.0,0.0,0.0,0.0,0.0,0.0,0.0,0.0,0.0,0.0,0.0,0.0,0.0,0.0,0.0,0.0,0.0,0.0,0.0,0.0,0.0,0.0,0.0,0.0,0.0,0.0,0.0,0.0,0.0,0.0,-1.0293,-1.0184,-1.0119,-1.0057,-0.9935,-1.0036,-1.0362,-1.0312,-1.0283,-1.0283,-1.0283,-1.0283,-1.0283,-1.0283,-1.0283,-1.0283,-1.0283,-1.0283,-1.0283,-1.0283,-1.0467,-1.0687,0.0,0.0,0.0,0.0,0.0,0.0,0.0,0.0,0.0,0.0,-2.5947,-2.6243,0.0,0.0,0.0,0.0,0.0,0.0,0.0,0.0,0.0,-2.4197,-2.4175,-2.3779,-2.2798,0.0,0.0,0.0,0.0,0.0,0.0,0.0,-2.9848,-3.188,0.0,-3.1323,-3.0577,-2.8807,-2.7238,-2.5872,-2.4209,-2.2842,-2.1614,-2.0175,0.0,0.0,0.0,0.0,0.0,0.0,0.0,0.0,-1.4781,-1.4109,-1.35,-1.3817,-1.2773,-1.1765,-1.2726,0.0,0.0,0.0,0.0,0.0,0.0,0.0,0.0,0.0,0.0,0.0,0.0,0.0,0.0,0.0,0.0,0.0,0.0,0.0,0.0,0.0,0.0,0.0,0.0,0.0,0.0,0.0,0.0,0.0,0.0,0.0,0.0,0.0,0.0,0.0,-1.0238,-0.9784,-0.9481,0.0,-0.9345,-0.9395,-0.9439,-1.004,-1.0283,-1.0283,-1.0283,-1.0283,-1.0283,-1.0283,-1.0283,-1.0283,-1.0283,-1.0283,-1.0283,-1.0283,-1.0283,-1.0283,0.0,0.0,0.0,0.0,0.0,0.0,0.0,0.0,0.0,0.0,0.0,0.0,0.0,0.0,0.0,0.0,0.0,0.0,0.0,0.0,0.0,0.0,0.0,0.0,0.0,0.0,0.0,0.0,0.0,0.0,0.0,0.0,0.0,-3.179,0.0,-3.0594,-2.9745,-2.7845,-2.6616,-2.5875,-2.4596,-2.3365,-2.2054,-1.984,-1.8447,0.0,0.0,0.0,0.0,0.0,0.0,0.0,-1.3639,-1.2952,-1.257,-1.3058,-1.221,-1.1321,0.0,-1.1162,0.0,0.0,0.0,0.0,0.0,0.0,0.0,0.0,0.0,0.0,0.0,0.0,0.0,0.0,0.0,0.0,0.0,0.0,0.0,0.0,0.0,0.0,0.0,0.0,0.0,0.0,0.0,0.0,0.0,0.0,0.0,0.0,0.0,-0.9079,-0.9165,-0.8862,-0.8738,0.0,-0.8666,-0.8662,-0.8918,-0.9883,-1.0283,-1.0283,-1.0283,-1.0283,-1.0283,-1.0283,-1.0283,-1.0283,-1.0283,-1.0283,-1.0283,-1.0283,-1.0283,-1.0283,0.0,0.0,0.0,0.0,0.0,0.0,0.0,0.0,0.0,0.0,0.0,0.0,0.0,0.0,0.0,0.0,0.0,0.0,0.0,0.0,0.0,0.0,0.0,0.0,0.0,0.0,0.0,0.0,0.0,0.0,0.0,0.0,0.0,-3.0535,0.0,-2.9566,-2.8648,-2.7657,-2.6673,-2.5712,-2.483,-2.3671,-2.2267,-2.0653,-1.9003,-1.7353,-1.6115,0.0,0.0,0.0,0.0,0.0,0.0,0.0,-1.1669,-1.2085,-1.1421,-1.0692,0.0,0.0,0.0,0.0,0.0,0.0,0.0,0.0,0.0,0.0,0.0,0.0,0.0,0.0,0.0,0.0,0.0,0.0,0.0,0.0,0.0,0.0,0.0,0.0,0.0,0.0,0.0,0.0,0.0,0.0,0.0,0.0,0.0,0.0,-0.8804,-0.8744,-0.8604,-0.845,-0.8371,-0.8334,-0.8296,-0.8435,-0.8716,-0.9558,-1.004,-1.0283,-1.0283,-1.0283,-1.0283,-1.0283,-1.0283,-1.0283,-1.0283,-1.0283,-1.0283,-1.0283,-1.0283,-1.0283,0.0,0.0,0.0,0.0,0.0,0.0,0.0,0.0,0.0,0.0,0.0,0.0,0.0,0.0,0.0,0.0,0.0,0.0,0.0,0.0,0.0,0.0,0.0,0.0,0.0,0.0,0.0,0.0,0.0,0.0,0.0,0.0,0.0,-2.9206,0.0,-2.8467,-2.7851,-2.7582,-2.6775,-2.5527,-2.4912,-2.3719,-2.2269,-2.1394,-1.9515,-1.72,-1.6633,-1.5893,-1.4955,-1.3898,0.0,0.0,0.0,0.0,-1.0731,-1.0938,-1.0559,-1.0099,0.0,0.0,0.0,0.0,0.0,0.0,0.0,0.0,0.0,0.0,0.0,0.0,0.0,0.0,0.0,0.0,0.0,0.0,0.0,0.0,0.0,0.0,0.0,0.0,0.0,0.0,0.0,0.0,0.0,0.0,0.0,0.0,-0.8804,-0.8804,-0.8804,-0.8691,-0.845,-0.845,-0.8297,-0.8003,-0.8091,-0.8313,-0.8553,-0.9039,-0.9518,-1.004,-1.0118,-1.0157,-1.0166,-1.0244,-1.0283,-1.0283,-1.0283,-1.0283,-1.0283,-1.0283,-1.0283,-1.0283,0.0,0.0,0.0,0.0,0.0,0.0,0.0,0.0,0.0,0.0,-2.6472,-2.7,0.0,0.0,0.0,0.0,0.0,0.0,0.0,0.0,0.0,0.0,0.0,0.0,0.0,0.0,0.0,0.0,0.0,0.0,0.0,0.0,0.0,-2.9347,0.0,0.0,-2.7998,-2.6763,-2.598,-2.5526,-2.4431,-2.3258,-2.1961,-2.0447,-1.906,-1.7869,-1.7251,-1.6232,-1.5132,-1.4108,-1.2978,0.0,0.0,0.0,-0.986,-0.9901,-0.9856,-0.9695,0.0,0.0,0.0,0.0,0.0,0.0,0.0,0.0,0.0,0.0,0.0,0.0,0.0,0.0,0.0,0.0,0.0,0.0,0.0,0.0,0.0,0.0,0.0,0.0,0.0,0.0,0.0,0.0,0.0,0.0,0.0,-0.8804,-0.8804,-0.8804,-0.8804,-0.8791,-0.8751,-0.8751,-0.8604,-0.831,-0.7828,-0.7751,-0.7995,-0.8077,-0.8398,-0.8958,-0.9399,-0.9597,-0.9637,-1.0127,-1.0283,-1.0283,-1.0283,-1.0283,-1.0283,-1.0283,-1.0283,-1.0283,0.0,0.0,0.0,0.0,0.0,0.0,0.0,0.0,0.0,0.0,0.0,-2.7261,0.0,0.0,0.0,0.0,0.0,0.0,0.0,0.0,0.0,0.0,0.0,0.0,0.0,0.0,0.0,0.0,0.0,0.0,0.0,-2.4473,-2.5967,0.0,0.0,0.0,0.0,-2.614,-2.5389,-2.5046,-2.3896,-2.3135,-2.2476,-2.0667,-1.9605,-1.8885,-1.7222,-1.6106,-1.5222,-1.379,-1.2389,-1.1239,-1.0875,0.0,0.0,0.0,-0.9019,0.0,-0.7934,0.0,0.0,0.0,0.0,0.0,0.0,0.0,0.0,0.0,0.0,0.0,0.0,0.0,0.0,0.0,0.0,0.0,0.0,0.0,0.0,0.0,0.0,0.0,0.0,0.0,0.0,0.0,0.0,0.0,-0.8804,-0.8804,-0.8804,-0.8804,-0.8804,-0.8804,-0.8804,-0.8804,-0.8577,-0.8123,-0.7856,-0.7616,-0.7405,-0.7405,-0.7855,-0.8716,-0.8958,-0.9239,-0.9518,-0.9755,-1.004,-1.0283,-1.0283,-1.0283,-1.0283,-1.0283,-1.0283,-1.0283,0.0,0.0,0.0,0.0,0.0,0.0,0.0,0.0,0.0,0.0,0.0,0.0,0.0,0.0,0.0,0.0,0.0,0.0,0.0,0.0,0.0,0.0,0.0,0.0,0.0,0.0,0.0,0.0,0.0,0.0,-2.253,-2.2145,-2.3484,0.0,-2.5604,-2.5834,0.0,0.0,0.0,0.0,-2.3533,-2.2996,-2.2726,-2.1132,-2.0279,-1.9612,-1.7515,-1.6206,-1.5283,-1.3815,-1.2227,-1.0813,-1.0813,-0.9865,0.0,0.0,0.0,0.0,0.0,0.0,0.0,0.0,0.0,0.0,0.0,0.0,0.0,0.0,0.0,0.0,0.0,0.0,0.0,0.0,0.0,0.0,0.0,0.0,0.0,0.0,0.0,0.0,0.0,0.0,0.0,0.0,0.0,0.0,-0.8804,-0.8804,-0.8804,-0.8804,-0.8804,-0.8804,-0.8804,-0.8804,-0.855,-0.8043,-0.7922,-0.7649,-0.7134,-0.7054,-0.7474,-0.8267,-0.8431,-0.8716,-0.9119,-0.9239,-0.9597,-1.0079,-1.0079,-1.0166,-1.0283,-1.0283,-1.0283,-1.0283,0.0,0.0,0.0,0.0,0.0,0.0,0.0,0.0,0.0,0.0,0.0,0.0,0.0,0.0,-2.8536,-2.7898,0.0,0.0,0.0,0.0,0.0,0.0,0.0,0.0,0.0,0.0,0.0,0.0,0.0,0.0,-1.9982,-1.9982,-2.104,-2.3027,-2.4755,-2.516,-2.4656,0.0,0.0,0.0,0.0,0.0,-2.2276,-2.1518,-2.0685,0.0,0.0,0.0,-1.5416,-1.4812,-1.2908,-1.0813,-1.0813,-0.9865,-0.8646,0.0,0.0,0.0,0.0,0.0,0.0,0.0,0.0,0.0,0.0,0.0,0.0,0.0,0.0,0.0,0.0,0.0,0.0,0.0,0.0,0.0,0.0,0.0,0.0,0.0,0.0,0.0,0.0,0.0,0.0,0.0,0.0,0.0,-0.8804,-0.8804,-0.8804,-0.8804,-0.8804,-0.8804,-0.8804,-0.8804,-0.8657,-0.835,-0.8063,-0.7756,-0.7479,-0.7154,-0.7021,-0.7105,-0.7697,-0.7953,-0.8036,-0.8513,-0.9039,-0.9558,-0.9558,-0.9843,-1.0283,-1.0283,-1.0283,-1.0283,0.0,0.0,0.0,0.0,0.0,0.0,0.0,0.0,0.0,0.0,0.0,0.0,0.0,-2.843,-2.8286,-2.6993,-2.6472,0.0,0.0,0.0,0.0,0.0,0.0,0.0,0.0,0.0,0.0,0.0,0.0,-2.0011,-2.0713,-2.0069,-2.0351,-2.1389,-2.215,-2.2845,-2.3422,-2.2906,0.0,0.0,0.0,0.0,0.0,0.0,0.0,0.0,0.0,0.0,0.0,-1.5843,-1.3522,-1.1332,-1.0906,0.0,0.0,0.0,0.0,0.0,0.0,0.0,0.0,0.0,0.0,0.0,0.0,0.0,0.0,0.0,0.0,0.0,0.0,0.0,0.0,0.0,0.0,0.0,0.0,0.0,0.0,0.0,0.0,0.0,0.0,0.0,0.0,0.0,0.0,0.0,-0.8804,-0.8804,-0.8804,-0.8804,-0.8804,-0.8804,-0.8804,-0.8804,-0.8664,-0.8377,-0.827,-0.7949,-0.7506,-0.7355,-0.7201,-0.7021,-0.7231,-0.753,-0.7912,-0.8118,-0.8521,-0.9039,-0.9359,-0.9399,-0.9359,-1.004,-1.0079,-0.9843,0.0,0.0,0.0,0.0,0.0,0.0,0.0,0.0,0.0,0.0,0.0,0.0,0.0,0.0,-2.7632,-2.6101,-2.5559,-2.5149,-2.4818,-2.4273,0.0,0.0,0.0,0.0,0.0,0.0,0.0,0.0,0.0,0.0,0.0,-2.0022,-1.9978,-2.0348,-2.0205,-2.0891,0.0,0.0,0.0,-2.2097,0.0,0.0,-2.3542,0.0,0.0,0.0,0.0,0.0,0.0,0.0,0.0,0.0,0.0,0.0,0.0,0.0,0.0,0.0,-0.4809,0.0,0.0,0.0,0.0,0.0,0.0,0.0,0.0,0.0,0.0,0.0,0.0,0.0,0.0,0.0,0.0,0.0,0.0,0.0,0.0,0.0,0.0,0.0,0.0,0.0,0.0,0.0,0.0,0.0,-0.8804,-0.8804,-0.8804,-0.8804,-0.8804,-0.8804,-0.8804,-0.8804,-0.8711,-0.8517,-0.8424,-0.8212,-0.7809,-0.7607,-0.7361,-0.7168,-0.7068,-0.7231,-0.7614,-0.7614,-0.7946,-0.848,-0.8837,-0.8837,-0.8797,-0.9518,-0.9637,-0.9558,0.0,0.0,0.0,0.0,0.0,0.0,0.0,0.0,0.0,0.0,0.0,0.0,0.0,0.0,0.0,-2.5465,-2.5341,-2.5198,-2.487,-2.4511,0.0,0.0,0.0,0.0,0.0,0.0,0.0,0.0,0.0,0.0,0.0,0.0,-1.9723,-1.9883,-1.9237,-1.9586,-2.0721,0.0,-2.2273,-2.3211,0.0,-2.2793,-2.4246,0.0,0.0,0.0,-2.2033,-2.105,0.0,0.0,0.0,0.0,0.0,0.0,0.0,0.0,0.0,0.0,0.0,0.0,0.0,0.0,0.0,0.0,0.0,0.0,0.0,0.0,0.0,0.0,0.0,0.0,0.0,0.0,0.0,0.0,0.0,0.0,0.0,0.0,0.0,0.0,0.0,0.0,0.0,0.0,0.0,-0.8804,-0.8804,-0.8804,-0.8804,-0.8804,-0.8804,-0.8804,-0.8804,-0.8804,-0.8804,-0.8804,-0.8524,-0.8434,-0.84,-0.7809,-0.7533,-0.7506,-0.7174,-0.6999,-0.7034,-0.6985,-0.7363,-0.7878,-0.787,-0.8193,-0.8635,-0.8683,-0.9039,-0.9439,0.0,0.0,0.0,0.0,0.0,0.0,0.0,0.0,0.0,0.0,0.0,0.0,-2.714,-2.7137,-2.7127,-2.6912,-2.6488,-2.6143,-2.5901,-2.4888,-2.4026,-2.3426,-2.2968,0.0,0.0,0.0,0.0,0.0,0.0,0.0,0.0,0.0,0.0,0.0,-1.9679,-1.9648,-1.9982,-2.0152,0.0,0.0,-2.2033,-2.2842,0.0,0.0,0.0,0.0,0.0,-2.3151,0.0,0.0,-1.8235,-1.5394,0.0,0.0,0.0,0.0,0.0,0.0,-0.5273,0.0,0.0,0.0,0.0,0.0,0.0,0.0,0.0,0.0,0.0,0.0,0.0,0.0,0.0,0.0,0.0,0.0,0.0,0.0,0.0,0.0,0.0,0.0,0.0,0.0,0.0,0.0,-0.8804,-0.8804,-0.8804,-0.8804,-0.8804,-0.8804,-0.8804,-0.8804,-0.8804,-0.8804,-0.8804,-0.8804,-0.8724,-0.8577,-0.842,-0.8252,-0.8003,-0.7796,-0.7669,-0.7548,-0.7328,-0.7108,-0.7105,-0.728,-0.7746,-0.7739,-0.7558,-0.839,-0.8561,-0.8398,0.0,0.0,0.0,0.0,0.0,0.0,0.0,0.0,0.0,0.0,0.0,0.0,-2.7843,-2.7922,-2.7894,-2.7422,-2.6817,-2.6529,-2.6664,-2.5326,-2.4442,-2.4249,-2.3407,-2.2478,0.0,0.0,0.0,0.0,0.0,0.0,0.0,0.0,0.0,0.0,0.0,0.0,0.0,0.0,0.0,0.0,-2.1972,0.0,0.0,-2.4471,-2.4831,0.0,0.0,0.0,-2.3235,-2.2024,-1.9283,0.0,0.0,0.0,0.0,0.0,0.0,0.0,0.0,0.0,0.0,0.0,0.0,0.0,-0.1346,-0.1324,0.0,0.0,0.0,0.0,0.0,0.0,0.0,0.0,0.0,0.0,0.0,0.0,0.0,0.0,0.0,0.0,0.0,0.0,0.0,0.0,-0.8878,-0.8804,-0.8804,-0.8804,-0.8804,-0.8804,-0.8804,-0.8804,-0.8804,-0.8804,-0.8804,-0.8804,-0.8804,-0.8717,-0.855,-0.843,-0.8277,-0.811,-0.7935,-0.7756,-0.7493,-0.7275,-0.7134,-0.7021,-0.7405,-0.7321,-0.7076,-0.7921,-0.8067,-0.7991,0.0,0.0,0.0,0.0,0.0,0.0,0.0,0.0,0.0,0.0,0.0,0.0,0.0,0.0,-2.8799,-2.7541,-2.691,-2.6754,-2.7214,-2.5786,-2.5014,-2.517,-2.3916,-2.2694,-2.1586,0.0,0.0,0.0,0.0,0.0,0.0,0.0,0.0,0.0,0.0,0.0,0.0,0.0,0.0,-2.2251,-2.1894,-2.3048,0.0,0.0,-2.424,0.0,-2.4469,-2.3849,-2.3243,-2.2551,-1.9766,0.0,0.0,0.0,0.0,0.0,-0.8,0.0,0.0,0.0,0.0,0.0,0.0,0.0,-0.1102,-0.0538,0.0,0.0,0.0,0.0,0.0,0.0,0.0,0.0,0.0,0.0,0.0,0.0,0.0,0.0,0.0,0.0,0.0,0.0,-0.9375,-0.9256,-0.9051,-0.8891,-0.8858,-0.8851,-0.8838,-0.8804,-0.8804,-0.8804,-0.8804,-0.8804,-0.8804,-0.8804,-0.8804,-0.8804,-0.8798,-0.8537,-0.8424,-0.8404,-0.8143,-0.7836,-0.756,-0.756,-0.7321,-0.6985,-0.7061,-0.7068,-0.7108,-0.7408,-0.7706,-0.798,0.0,0.0,0.0,0.0,0.0,0.0,0.0,0.0,0.0,0.0,0.0,0.0,0.0,0.0,0.0,0.0,-2.8569,-2.806,-2.7485,-2.6389,-2.5396,-2.4535,-2.366,-2.2813,-2.1995,0.0,0.0,0.0,0.0,0.0,0.0,0.0,0.0,0.0,0.0,0.0,0.0,0.0,0.0,-2.1585,-2.2068,0.0,-2.3717,-2.3995,-2.4185,-2.4249,-2.3565,-2.3279,-2.2891,0.0,-1.9266,-1.7588,0.0,0.0,0.0,0.0,0.0,0.0,0.0,0.0,0.0,0.0,0.0,0.0,-0.1239,-0.0512,0.0,0.0,0.0,0.0,0.0,0.0,0.0,0.0,0.0,0.0,0.0,0.0,0.0,0.0,0.0,0.0,0.0,0.0,-0.8385,-0.9497,-0.9546,-0.9406,-0.911,-0.9103,-0.9051,-0.8818,-0.8804,-0.8804,-0.8804,-0.8804,-0.8804,-0.8804,-0.8804,-0.8804,-0.8804,-0.8751,-0.8724,-0.8717,-0.8664,-0.833,-0.7842,-0.7842,-0.7515,-0.7047,-0.7288,-0.7381,-0.7415,-0.7729,-0.7849,-0.7908,0.0,0.0,0.0,0.0,0.0,0.0,0.0,0.0,0.0,0.0,0.0,0.0,0.0,0.0,0.0,0.0,0.0,0.0,0.0,0.0,-2.5944,-2.5794,-2.429,-2.3106,-2.2373,-2.1632,0.0,0.0,0.0,0.0,0.0,0.0,0.0,0.0,0.0,0.0,0.0,0.0,-2.0481,-2.0918,-2.2196,0.0,-2.4053,-2.4106,-2.4434,-2.4687,-2.3481,-2.2905,-2.2405,-2.04,-1.9423,0.0,0.0,-1.5126,-1.3455,0.0,-1.0545,-0.8521,0.0,0.0,0.0,-0.4158,0.0,0.0,0.0,-0.1199,-0.0936,0.0,0.0,0.0,0.0,0.0,0.0,0.0,0.0,0.0,0.0,0.0,0.0,0.0,0.0,0.0,0.0,0.0,-0.8575,-0.9648,-0.9686,-0.9552,-0.9196,-0.9183,-0.905,-0.8818,-0.8804,-0.8804,-0.8804,-0.8804,-0.8804,-0.8804,-0.8804,-0.8804,-0.8804,-0.8804,-0.8804,-0.8804,-0.8804,-0.8477,-0.7882,-0.7882,-0.7662,-0.7241,-0.7241,-0.7335,-0.7547,-0.7816,-0.7882,-0.7922,-2.8292,0.0,0.0,0.0,0.0,0.0,0.0,0.0,0.0,0.0,0.0,0.0,0.0,0.0,0.0,0.0,0.0,0.0,0.0,0.0,0.0,0.0,-2.5115,-2.3634,-2.2783,-2.1956,-2.1147,0.0,0.0,0.0,0.0,0.0,0.0,0.0,0.0,0.0,0.0,0.0,0.0,-2.0592,0.0,-2.358,-2.4223,-2.3851,-2.4256,-2.4794,-2.3183,-2.2366,-2.1817,-2.0192,0.0,-1.9347,-1.7363,-1.5862,0.0,0.0,0.0,0.0,0.0,0.0,0.0,0.0,0.0,-0.3666,0.0,0.0,0.0,-0.2193,0.0,0.0,0.0,0.0,0.0,0.0,0.0,0.0,0.0,0.0,0.0,0.0,0.0,0.0,0.0,0.0,-0.9102,-0.9801,-0.98,-0.9666,-0.9369,-0.9303,-0.9192,-0.8898,-0.8838,-0.8804,-0.8804,-0.8804,-0.8804,-0.8804,-0.8804,-0.8804,-0.8804,-0.8804,-0.8804,-0.8804,-0.8804,-0.8504,-0.8016,-0.8016,-0.7836,-0.7535,-0.7295,-0.7375,-0.7728,-0.7989,-0.8063,-0.8083,-2.8632,-2.8459,0.0,0.0,0.0,0.0,0.0,0.0,0.0,0.0,0.0,0.0,0.0,0.0,0.0,0.0,0.0,0.0,-3.0128,0.0,0.0,0.0,0.0,0.0,-2.3408,-2.2153,-2.1318,0.0,0.0,0.0,0.0,0.0,0.0,0.0,-2.0314,0.0,0.0,0.0,-2.1244,0.0,-2.272,-2.296,0.0,-2.2253,-2.2539,-2.2784,-2.165,-2.1198,-2.1018,0.0,-1.9376,-1.8865,0.0,-1.7122,0.0,0.0,0.0,0.0,0.0,0.0,0.0,0.0,-0.7331,0.0,0.0,0.0,-0.4165,-0.3011,0.0,0.0,0.0,0.0,0.0,0.0,0.0,0.0,0.0,0.0,0.0,0.0,0.0,0.0,0.0,0.0,0.0,-1.0378,-1.0214,-1.0053,-1.002,-0.9773,-0.9492,-0.9143,-0.8938,-0.8804,-0.8804,-0.8804,-0.8804,-0.8804,-0.8804,-0.8804,-0.8804,-0.8804,-0.8804,-0.8804,-0.8804,-0.8624,-0.8323,-0.8323,-0.815,-0.7876,-0.7795,-0.8009,-0.8303,-0.8597,-0.8544,-0.8337,-2.8689,-2.8566,0.0,0.0,0.0,0.0,0.0,0.0,0.0,0.0,0.0,0.0,0.0,0.0,0.0,0.0,0.0,-3.1429,0.0,0.0,0.0,0.0,0.0,0.0,0.0,-2.31,-2.1972,-2.1303,-2.0467,0.0,0.0,0.0,0.0,0.0,-2.0314,0.0,-2.0348,0.0,0.0,0.0,0.0,0.0,0.0,-2.2551,-2.2483,-2.1931,-2.1263,-2.0829,-2.055,0.0,-1.9752,0.0,0.0,0.0,0.0,0.0,0.0,0.0,0.0,0.0,0.0,0.0,0.0,0.0,0.0,0.0,-0.7527,0.0,0.0,0.0,0.0,0.0,0.0,0.0,0.0,0.0,0.0,0.0,0.0,0.0,0.0,0.0,0.0,0.0,0.0,0.0,0.0,-0.9793,-0.9619,-0.9492,-0.9292,-0.8998,-0.8871,-0.8804,-0.8804,-0.8804,-0.8804,-0.8804,-0.8804,-0.8804,-0.8804,-0.8804,-0.8804,-0.8804,-0.8804,-0.8544,-0.813,-0.8303,-0.8096,-0.7682,-0.7856,-0.811,-0.837,-0.8317,-0.833,-0.8427,-2.9084,0.0,0.0,0.0,0.0,0.0,0.0,0.0,0.0,0.0,0.0,0.0,-3.1536,-3.2046,0.0,0.0,0.0,-3.2057,0.0,0.0,-2.91,0.0,0.0,0.0,0.0,0.0,0.0,-2.1578,0.0,0.0,0.0,0.0,0.0,0.0,0.0,-2.0483,-2.0516,0.0,0.0,-2.055,-2.129,-2.1688,-2.189,-2.2752,-2.2559,-2.1718,-2.1181,-2.0797,-2.0449,-2.0227,-1.9929,0.0,-1.8612,0.0,0.0,0.0,0.0,0.0,-1.4136,0.0,0.0,0.0,0.0,0.0,0.0,0.0,0.0,0.0,0.0,0.0,0.0,0.0,0.0,0.0,0.0,0.0,0.0,0.0,0.0,0.0,0.0,0.0,0.0,0.0,0.0,0.0,-0.9726,0.0,-0.9429,-0.9269,-0.9178,-0.9051,-0.8891,-0.8804,-0.8804,-0.8804,-0.8804,-0.8804,-0.8804,-0.8804,-0.8804,-0.8804,-0.8804,-0.8804,-0.8804,-0.8564,-0.8183,-0.8317,-0.8165,-0.7768,-0.7782,-0.7989,-0.823,-0.8009,-0.807,-0.8243,-3.0048,-2.9513,0.0,0.0,0.0,0.0,0.0,0.0,0.0,0.0,0.0,0.0,0.0,0.0,0.0,0.0,0.0,-3.2798,-3.1949,0.0,-2.9369,0.0,0.0,-2.7465,0.0,0.0,0.0,0.0,0.0,0.0,0.0,0.0,0.0,0.0,0.0,-2.0959,-2.0991,-2.1399,-2.1337,-2.1023,-2.143,-2.1869,-2.2282,0.0,-2.2299,-2.218,-2.1323,0.0,0.0,-2.0015,-1.9711,0.0,0.0,0.0,0.0,0.0,0.0,0.0,0.0,0.0,0.0,-1.6658,0.0,0.0,0.0,0.0,-1.3595,0.0,0.0,0.0,0.0,0.0,-0.4456,-0.4896,0.0,0.0,0.0,0.0,0.0,0.0,0.0,0.0,0.0,0.0,0.0,-0.9615,-0.9419,0.0,-1.006,-0.9495,-0.9372,-0.9646,-0.9105,-0.8804,-0.8804,-0.8804,-0.8804,-0.8804,-0.8804,-0.8804,-0.8804,-0.8804,-0.8804,-0.8804,-0.8804,-0.8798,-0.8758,-0.8484,-0.8414,-0.834,-0.7755,-0.7669,-0.7895,-0.7888,-0.7888,-0.7903,0.0,0.0,0.0,0.0,0.0,0.0,0.0,-3.0608,0.0,0.0,0.0,0.0,0.0,0.0,-3.4875,0.0,0.0,-3.2824,-3.1961,-3.1061,0.0,0.0,0.0,-2.8158,0.0,0.0,0.0,0.0,0.0,0.0,0.0,0.0,0.0,0.0,0.0,-2.0665,0.0,0.0,0.0,0.0,0.0,-2.1688,-2.184,0.0,0.0,-2.1354,-2.0748,-2.0364,0.0,-1.9782,-1.969,-1.953,-1.865,-1.8221,-1.7917,-1.7237,-1.7019,0.0,0.0,0.0,-1.8048,-1.8177,0.0,0.0,0.0,0.0,0.0,0.0,0.0,0.0,0.0,0.0,-0.8057,-0.6919,-0.7352,-0.7643,0.0,0.0,0.0,0.0,0.0,0.0,0.0,0.0,0.0,-0.9323,-0.9118,-0.9125,0.0,-0.9296,-0.923,-0.9385,-0.9198,-0.9005,-0.8811,-0.8804,-0.8804,-0.8804,-0.8804,-0.8804,-0.8804,-0.8804,-0.8804,-0.8804,-0.8804,-0.8591,-0.8237,-0.833,-0.8023,-0.7482,-0.7513,-0.7574,-0.7622,-0.7622,-0.7622,-0.7582,-2.8605,0.0,0.0,0.0,0.0,0.0,0.0,0.0,0.0,0.0,-3.4469,0.0,-3.4652,0.0,-3.4068,0.0,-3.3429,-3.2467,-3.1605,-3.0964,0.0,-2.7858,-2.8778,0.0,0.0,0.0,0.0,0.0,0.0,-2.1175,0.0,0.0,0.0,0.0,0.0,0.0,0.0,0.0,-2.0583,0.0,0.0,-2.1321,0.0,0.0,-2.143,-2.115,0.0,-2.0261,-1.9909,-1.9747,-1.969,-1.9566,-1.865,-1.8221,-1.7997,-1.7894,-1.7558,-1.745,-1.8405,-1.8779,0.0,-1.931,-1.9465,0.0,-1.9273,0.0,0.0,0.0,0.0,0.0,0.0,0.0,-1.1588,-1.0091,-0.9971,-0.9743,0.0,-0.8207,0.0,0.0,0.0,0.0,0.0,0.0,-0.8465,-0.903,-0.8911,-0.8931,0.0,0.0,-0.9183,-0.9183,-0.9183,-0.9044,-0.8811,-0.8804,-0.8804,-0.8804,-0.8804,-0.8804,-0.8804,-0.8804,-0.8804,-0.8804,-0.8804,-0.8591,-0.8243,-0.8223,-0.7869,-0.7341,-0.7315,-0.7308,-0.7308,-0.7308,-0.7308,-0.7281,0.0,0.0,0.0,0.0,-3.02,0.0,0.0,0.0,-3.4497,0.0,-3.4881,-3.4051,-3.3113,-3.3141,-3.2869,-3.2001,-3.2005,0.0,-3.082,-3.0632,0.0,0.0,-2.8401,-2.8047,-2.5566,0.0,0.0,0.0,0.0,0.0,0.0,0.0,0.0,0.0,-2.0124,0.0,-2.028,-2.028,-2.028,-2.028,-2.028,-2.0797,-2.1582,-2.1582,0.0,-2.1521,-2.115,-2.0698,-2.0212,-1.9854,-1.969,-1.9566,-1.9043,-1.8496,-1.8185,-1.8688,-1.8145,-1.7666,-1.9207,-1.9244,-1.9066,-1.9989,0.0,0.0,0.0,0.0,-1.9102,0.0,0.0,0.0,0.0,0.0,0.0,-1.422,-1.2827,-1.1562,-1.0788,0.0,0.0,0.0,0.0,0.0,0.0,-0.8415,-0.8857,-0.8804,-0.8804,0.0,0.0,0.0,-0.9196,-0.9183,-0.9196,-0.9112,-0.8811,-0.8804,-0.8804,-0.8804,-0.8804,-0.8804,-0.8804,-0.8804,-0.8804,-0.8804,-0.8804,-0.8798,-0.8744,-0.8183,-0.7888,-0.7802,-0.7268,-0.6992,-0.6979,-0.6979,-0.6979,-0.6985,-2.859,-2.9137,-2.9828,0.0,-3.0337,-3.0938,0.0,0.0,0.0,0.0,-3.3836,-3.3255,-3.3093,-3.2543,-3.1871,-3.1105,-3.0433,0.0,0.0,0.0,0.0,-2.6113,-2.8261,-2.8276,-2.5631,-2.6701,0.0,-2.3729,0.0,0.0,-2.0797,0.0,0.0,0.0,0.0,0.0,-1.9874,-2.0193,-2.0124,-1.9874,-2.0193,-2.0649,0.0,0.0,-2.1399,-2.115,-2.1023,-2.0514,-1.9839,-1.9711,-1.9442,-1.9006,-1.8458,-1.8224,-1.8066,-1.7787,-1.7787,-1.7987,-1.8419,-1.8419,-1.8444,-1.9103,-1.9134,-1.9045,0.0,0.0,0.0,0.0,0.0,0.0,0.0,0.0,0.0,-1.7121,-1.5319,-1.3746,0.0,0.0,0.0,-1.1376,0.0,0.0,0.0,-0.927,-0.9361,-0.8857,-0.8804,0.0,0.0,0.0,0.0,-0.919,-0.9452,-0.9325,-0.8811,-0.8804,-0.8804,-0.8804,-0.8804,-0.8804,-0.8804,-0.8804,-0.8804,-0.8804,-0.8804,-0.8684,-0.8477,-0.8323,-0.7996,-0.7569,-0.7415,-0.7214,-0.6979,-0.6979,-0.6979,-0.7054,-2.833,0.0,0.0,-2.9881,0.0,0.0,-3.1594,0.0,0.0,-3.3673,-3.2712,0.0,-3.2039,-3.0963,-3.0058,-2.9636,-2.9114,0.0,0.0,0.0,0.0,-2.6328,-2.7655,-2.7537,-2.5644,-2.6279,0.0,-2.3912,0.0,0.0,-2.0959,0.0,0.0,0.0,0.0,-1.9909,0.0,-1.9929,-1.9909,-1.9711,-1.9945,0.0,0.0,-2.0943,-2.0878,-2.0682,-2.0682,-2.0277,-1.969,-1.969,-1.9479,-1.9132,-1.8341,-1.7987,-1.7747,-1.7105,-1.7146,-1.7504,-1.7987,-1.7747,-1.7585,-1.838,-1.865,-1.893,-1.9566,-1.9442,-1.8872,0.0,0.0,0.0,0.0,0.0,0.0,0.0,0.0,0.0,0.0,0.0,0.0,0.0,0.0,0.0,0.0,0.0,-0.951,0.0,0.0,0.0,0.0,0.0,0.0,-0.9058,-0.9339,-0.9272,-0.8811,-0.8804,-0.8804,-0.8804,-0.8804,-0.8804,-0.8804,-0.8804,-0.8804,-0.8804,-0.8804,-0.8711,-0.8557,-0.843,-0.8096,-0.7655,-0.7567,-0.7406,-0.7235,-0.7368,-0.7335,-0.7241,0.0,0.0,0.0,0.0,0.0,0.0,0.0,-3.2207,0.0,-3.2623,0.0,-3.0313,-3.0205,-2.8889,-2.7978,-2.7836,0.0,-2.7836,-2.7836,-2.7899,-2.7595,-2.6834,-2.6853,-2.6475,-2.5616,-2.5395,0.0,0.0,0.0,-2.1803,-2.0959,0.0,0.0,0.0,0.0,0.0,0.0,-1.969,-1.969,0.0,-1.969,-1.9929,-2.0314,-2.0314,-2.0268,-2.019,-2.0351,-2.0043,-1.9555,-1.9519,-1.9453,-1.9207,-1.8212,-1.7202,-1.6413,-1.6464,-1.6007,-1.5629,-1.6545,-1.6152,-1.5669,-1.6583,-1.7042,-1.7691,-1.9337,-1.9207,-1.7553,-1.3341,-1.7922,-2.2832,0.0,0.0,0.0,0.0,0.0,0.0,0.0,0.0,0.0,0.0,0.0,0.0,0.0,0.0,0.0,0.0,0.0,0.0,0.0,0.0,0.0,-0.8818,-0.903,0.0,-0.8811,0.0,-0.8804,-0.8804,-0.8804,-0.8804,-0.8804,-0.8804,-0.8804,-0.8804,-0.8804,-0.8804,-0.8791,-0.8537,-0.8257,-0.7956,-0.7649,-0.7574,-0.7562,-0.7829,-0.7736,-0.7491,0.0,0.0,0.0,0.0,0.0,-2.9542,-2.9861,-2.9956,-2.9744,-2.9107,-2.8743,0.0,-2.7556,-2.723,-2.6723,-2.5952,-2.5894,0.0,0.0,0.0,0.0,-2.5773,-2.6431,-2.6415,-2.5535,-2.6104,-2.5601,0.0,-2.2935,-2.1969,-2.0959,-2.012,0.0,0.0,0.0,0.0,-1.969,-1.969,0.0,-1.969,-1.969,-1.9929,-2.0314,-2.0314,-1.9989,-1.9651,-2.0558,-2.0007,-1.8832,-1.8488,-1.8086,-1.759,-1.6999,-1.3621,-1.0786,-1.5218,-1.3295,-0.9768,-0.9955,-0.9881,-0.9793,-0.998,-1.0066,-1.1803,-1.8229,-1.9603,-1.7964,-1.2513,-1.7241,-2.2643,-2.3486,0.0,0.0,0.0,0.0,0.0,0.0,0.0,0.0,0.0,0.0,0.0,0.0,0.0,0.0,0.0,0.0,0.0,0.0,0.0,0.0,0.0,0.0,0.0,0.0,0.0,-0.8804,-0.8804,-0.8804,-0.8804,-0.8804,-0.8804,-0.8804,-0.8804,-0.8804,-0.8804,-0.8804,-0.8751,-0.8564,-0.827,-0.7963,-0.7849,-0.7856,-0.7862,-0.7656,-0.7406,0.0,0.0,0.0,0.0,0.0,0.0,0.0,-2.7686,0.0,-2.8137,-2.778,-2.7324,-2.6944,-2.6435,-2.594,-2.5485,-2.5415,-2.5406,-2.5394,-2.5434,-2.5477,-2.5508,-2.5793,0.0,-2.5508,-2.556,-2.5051,-2.3915,-2.2984,-2.2131,-2.1306,-2.0665,0.0,0.0,0.0,-1.969,0.0,0.0,0.0,-1.969,-1.969,-1.9818,-2.0,-2.0,-1.9817,-1.9623,-2.0135,-1.9623,-1.8519,-1.7312,-1.6151,-1.4319,-0.9465,-0.6123,-0.452,-0.7169,-1.0144,-1.1312,-0.5562,-0.3992,-0.3992,-0.3992,-0.3992,-0.4955,-0.8641,-1.3912,-1.7834,-1.7075,-1.979,-2.2561,-2.3432,-2.3165,0.0,0.0,0.0,0.0,0.0,0.0,0.0,0.0,0.0,0.0,0.0,0.0,0.0,0.0,0.0,0.0,0.0,0.0,0.0,0.0,0.0,0.0,0.0,0.0,0.0,-0.8804,-0.8804,-0.8804,-0.8804,-0.8804,-0.8804,-0.8804,-0.8804,-0.8804,-0.8798,-0.8644,-0.8504,-0.8357,-0.7809,-0.761,-0.7573,-0.7306,-0.712,-0.71,0.0,-2.7945,0.0,0.0,-2.7791,0.0,0.0,-2.5696,-2.5652,-2.7265,-2.6673,-2.6181,-2.6426,-2.5735,-2.5308,-2.5493,-2.5434,-2.5391,-2.5376,-2.5395,-2.5383,-2.5383,-2.5213,-2.5197,-2.535,-2.4889,-2.4373,0.0,-2.3048,-2.2285,-2.1582,-2.1086,-2.0616,0.0,0.0,0.0,0.0,0.0,-1.969,-1.969,-1.969,-1.969,-1.969,-1.969,-1.969,-1.969,-1.969,-1.9166,-1.8298,-1.7058,-1.4607,-1.0981,-0.4757,-0.1515,0.0,0.0,-0.6177,-1.1098,-0.2373,0.0,0.0,0.0,0.0,0.0,0.0,-0.6742,-1.3871,-1.6936,-1.9151,-2.1027,-2.267,-2.2547,0.0,0.0,0.0,0.0,0.0,0.0,0.0,0.0,0.0,0.0,0.0,0.0,0.0,0.0,0.0,0.0,0.0,0.0,0.0,0.0,0.0,-0.8791,-0.8624,0.0,-0.8804,0.0,-0.8804,-0.8804,-0.8804,-0.8804,-0.8804,-0.8804,-0.8804,-0.8804,-0.8791,-0.8403,-0.826,-0.8152,-0.7424,-0.7166,-0.708,-0.6737,-0.648,-0.6504,0.0,0.0,0.0,0.0,0.0,0.0,0.0,-2.4356,-2.3682,-2.4648,-2.4004,-2.3769,-2.4551,-2.4502,-2.4703,-2.5435,-2.5434,-2.5379,-2.5313,-2.5135,-2.505,-2.505,-2.4911,-2.485,-2.4864,-2.4814,-2.436,0.0,0.0,-2.2453,0.0,-2.0732,0.0,0.0,0.0,0.0,0.0,-1.969,-1.969,-1.969,-1.969,-1.969,-1.969,-1.969,-1.969,-1.969,-1.969,-1.8882,-1.7936,-1.8986,-1.4463,-0.8824,-1.1199,-0.6461,0.0,0.0,-0.0728,-0.1318,-0.0276,0.0,0.0,0.0,0.0,0.0,0.0,-0.0803,-0.1648,-0.202,-0.8854,-1.6096,-2.0434,-2.1439,-2.1599,0.0,0.0,0.0,0.0,0.0,0.0,0.0,0.0,0.0,0.0,0.0,0.0,0.0,0.0,0.0,0.0,0.0,0.0,-0.7996,0.0,-0.8799,-0.7996,-0.8549,0.0,-0.8804,-0.8804,-0.8804,-0.8804,-0.8804,-0.8804,-0.8804,-0.8804,-0.8804,-0.8752,-0.8078,-0.7741,-0.7688,-0.6934,-0.6666,-0.6666,-0.6637,-0.6204,-0.5706,0.0,0.0,0.0,0.0,0.0,0.0,0.0,-2.303,-2.2411,-2.2831,-2.3047,-2.3281,-2.3633,-2.3573,-2.3646,-2.3975,-2.3902,-2.3781,-2.3696,-2.406,-2.4238,-2.4094,-2.4233,-2.4381,-2.4511,-2.4063,-2.3632,0.0,0.0,0.0,0.0,0.0,0.0,0.0,0.0,-1.969,-1.969,-1.969,-1.969,-1.969,-1.969,-1.969,-1.969,-1.969,-1.969,-1.969,-1.969,-1.9346,-1.8986,-1.951,-1.2336,-0.3411,-0.483,-0.2855,0.0,0.0,0.0,0.0,0.0,0.0,0.0,0.0,0.0,0.0,0.0,0.0,0.0,0.0,-0.6157,-1.3312,-1.9131,-2.0534,-2.0863,0.0,0.0,0.0,0.0,0.0,0.0,0.0,0.0,0.0,0.0,0.0,-1.0568,0.0,0.0,0.0,0.0,0.0,0.0,-0.8195,0.0,-0.8166,-0.7914,-0.8063,-0.8374,-0.8804,-0.8804,-0.8804,-0.8804,-0.8804,-0.8804,-0.8752,-0.8321,-0.8156,-0.8103,-0.7343,-0.702,-0.6966,-0.6253,-0.5928,-0.5873,-0.5496,-0.5167,-0.4948,-2.4194,0.0,-2.4889,0.0,-2.4014,-2.3793,-2.244,-2.1491,-2.0886,-2.0761,-2.1289,-2.1953,-2.2734,-2.2703,-2.2726,-2.2979,-2.2832,-2.269,-2.2609,-2.3258,-2.3547,-2.3307,-2.3694,0.0,-2.3803,-2.3289,-2.286,-2.2573,-2.2426,0.0,0.0,0.0,0.0,0.0,-1.9854,-1.969,-1.969,-1.969,-1.969,-1.969,-1.969,-1.969,-1.969,-1.969,-1.969,-1.969,-1.969,-1.969,-1.939,-1.746,-1.1895,-0.5117,-0.1227,0.0,0.0,0.0,0.0,0.0,0.0,0.0,0.0,0.0,0.0,0.0,0.0,-0.2016,-0.3882,-0.3882,-0.8118,-1.3327,-1.8145,-1.9364,-1.9818,-2.0299,0.0,0.0,0.0,0.0,0.0,0.0,0.0,-1.382,-1.2327,0.0,0.0,0.0,0.0,0.0,0.0,0.0,0.0,0.0,0.0,0.0,0.0,-0.7786,-0.7943,-0.848,-0.8262,-0.8156,-0.8156,-0.8156,-0.8156,-0.8103,-0.7616,-0.7396,-0.7343,-0.6583,-0.6258,-0.6199,-0.5492,-0.5218,-0.5164,-0.468,-0.4519,-0.4519,-2.2273,-2.2344,-2.242,-2.2596,-2.201,-2.1297,-2.0546,-1.9694,-1.8877,-1.8144,-1.8066,-1.9043,-2.1621,-2.1803,-2.206,-2.292,-2.2758,-2.2598,-2.2598,-2.3037,-2.3165,0.0,0.0,-2.3379,-2.265,-2.2599,-2.2258,-2.1526,0.0,0.0,-2.0991,0.0,-2.0089,-1.9726,-1.969,-1.969,-1.969,-1.969,-1.969,-1.969,-1.969,-1.969,-1.969,-1.969,-1.969,-1.969,-1.969,-1.969,-1.8702,-1.2209,-1.4214,-1.7161,-0.4114,0.0,0.0,0.0,0.0,0.0,0.0,0.0,0.0,0.0,0.0,0.0,0.0,-0.6762,-1.3035,-1.3035,-1.482,-1.6651,-1.7377,-1.7871,-1.8288,-1.8855,0.0,0.0,0.0,0.0,0.0,0.0,-1.446,-1.2926,-1.1007,0.0,0.0,0.0,0.0,0.0,0.0,0.0,0.0,-0.7919,-0.8105,0.0,-0.7919,-0.7786,-0.7723,-0.7723,-0.6966,-0.6642,-0.6642,-0.6642,-0.6642,-0.6642,-0.6642,-0.6588,-0.6534,-0.5814,-0.5487,-0.5433,-0.4787,-0.4519,-0.4519,-0.4519,-0.4519,-0.4519,-2.1199,-2.0916,-2.0471,-2.0079,-1.989,-1.9528,-1.8751,-1.8422,-1.8208,-1.7959,-1.7968,-1.832,-1.9141,-1.9151,-1.9687,0.0,-2.0477,-2.0202,0.0,-2.1096,-2.1232,-2.1043,-2.1811,-2.2021,-2.1524,-2.1798,-2.1665,-2.1149,0.0,0.0,0.0,-2.0104,-1.9818,-1.969,-1.969,-1.969,-1.969,-1.969,-1.969,-1.969,-1.969,-1.9479,-1.9207,-1.9566,-1.969,-1.9091,-1.4618,-1.5889,-1.9361,-1.7281,-1.7954,-1.7386,-0.4159,-0.6179,-1.1655,-0.2633,0.0,0.0,0.0,0.0,0.0,0.0,0.0,0.0,0.0,-0.6849,-1.3624,-1.5126,-1.563,-1.5972,-1.6626,-1.7205,-1.7609,-1.7731,-1.7639,0.0,0.0,0.0,0.0,0.0,-1.3939,-1.3127,0.0,-1.0466,0.0,0.0,0.0,0.0,0.0,0.0,0.0,0.0,-0.7516,0.0,-0.7244,-0.7514,-0.7723,-0.7723,-0.745,-0.7074,-0.6588,-0.6588,-0.6588,-0.6588,-0.6091,-0.5873,-0.5814,-0.5113,-0.4842,-0.4787,-0.457,-0.4519,-0.4519,-0.4519,-0.4519,-0.4519,-1.9327,-1.9064,-1.8682,-1.8259,-1.8351,-1.8208,-1.741,-1.7335,-1.7274,-1.6992,-1.7006,-1.7147,-1.748,-1.7164,0.0,-1.9317,-1.9064,-1.8944,-1.93,-2.0104,-2.0396,-2.0045,-2.0855,-2.1046,-2.0418,0.0,0.0,-1.9941,-1.9829,-1.9603,-1.9305,-1.9321,-1.9316,-1.9331,-1.957,-1.969,-1.969,-1.969,-1.969,-1.969,-1.969,-1.9369,-1.893,-1.9281,-1.9163,-1.8361,-1.4414,-1.429,-1.6054,-1.6349,-1.7612,-1.7577,-0.892,-1.2042,-1.7407,-0.9673,-0.5306,-0.2968,-0.2968,-0.2968,-0.3447,-0.5441,-0.4188,-0.2918,-0.4583,-0.9229,-1.3515,-1.4651,-1.4865,-1.5005,-1.543,-1.6117,-1.6622,-1.6561,-1.6621,-1.6446,-1.5872,0.0,0.0,0.0,0.0,0.0,0.0,-1.021,0.0,0.0,0.0,0.0,0.0,0.0,0.0,-0.7727,-0.6724,0.0,-0.6784,-0.6867,-0.6848,-0.6848,-0.6632,-0.6258,-0.5828,-0.5828,-0.5828,-0.5769,-0.5332,-0.5109,-0.5109,-0.468,-0.4519,-0.4519,-0.4519,-0.4519,-0.4519,-0.4519,-0.4519,-0.4519,-1.689,-1.6917,0.0,0.0,-1.7245,0.0,-1.6426,-1.637,-1.6161,-1.5481,-1.5391,-1.5694,-1.6523,-1.5823,-1.5958,-1.7586,0.0,0.0,0.0,-1.9767,-2.0248,-1.9578,-2.0315,-2.0298,-1.9307,-1.9034,-1.8629,-1.8115,-1.7861,-1.7697,-1.7665,-1.831,-1.8627,-1.8672,-1.9271,-1.9555,-1.9555,-1.96,-1.9615,-1.9615,-1.9615,-1.9325,-1.8878,-1.8792,-1.8229,-1.7526,-1.7807,-1.4673,-1.0455,-1.1094,-1.4256,-1.7747,-1.6792,-1.6958,-1.7702,-1.9031,-1.4288,-0.8541,-0.8391,-0.8124,-0.9157,-1.4385,-1.1136,-0.7763,-1.2184,-1.3198,-1.3037,-1.2472,-1.32,-1.3938,-1.4002,-1.482,-1.5484,-1.5372,-1.5463,-1.532,-1.4698,0.0,0.0,0.0,0.0,0.0,0.0,-0.951,-0.8427,0.0,0.0,0.0,0.0,0.0,-0.687,-0.6598,-0.5869,-0.5814,-0.6534,-0.5873,-0.5542,-0.5487,-0.4897,-0.4574,-0.4519,-0.4519,-0.4519,-0.4519,-0.4519,-0.4519,-0.4519,-0.4519,-0.4519,-0.4519,-0.4519,-0.4519,-0.4519,-0.4519,-0.4519,-0.4519,0.0,0.0,-1.5285,-1.5285,-1.5424,-1.5481,-1.5353,-1.5383,-1.5405,-1.5327,-1.5329,-1.5416,-1.5673,-1.5466,-1.5477,-1.588,-1.6431,-1.698,-1.7545,-1.7961,-1.8128,-1.7948,-1.8845,-1.8992,-1.8194,-1.8651,-1.839,-1.7361,-1.7602,-1.7552,-1.7257,-1.77,-1.7921,-1.7921,-1.8119,-1.8194,-1.8223,-1.8732,-1.8942,-1.8907,-1.8596,-1.8659,-1.8792,-1.7525,-1.7183,-1.7241,-1.6368,-1.5571,-1.4881,-1.4487,-1.5128,-1.6073,-1.6399,-1.6291,-1.609,-1.6568,-1.6022,-1.4871,-1.3347,-1.047,-0.9006,-1.3657,-1.0675,-0.7763,-1.2184,-1.3198,-1.3286,-1.363,-1.3497,-1.3408,-1.3806,-1.4083,-1.4294,-1.4196,-1.4584,-1.4698,-1.4097,-1.3971,0.0,0.0,-1.1472,-1.0721,-1.0115,-0.8771,-0.7883,0.0,0.0,0.0,0.0,-0.6057,-0.636,-0.6593,-0.5869,-0.5597,-0.576,-0.6145,-0.6036,-0.5487,-0.5324,-0.5003,-0.4519,-0.4519,-0.4519,-0.4519,-0.4519,-0.4519,-0.4519,-0.4519,-0.4519,-0.4519,-0.4519,-0.4519,-0.4519,-0.4519,-0.4519,-0.4519,-1.4878,-1.4721,-1.4603,-1.4603,-1.4717,-1.4813,-1.4856,-1.4954,-1.503,-1.5099,-1.5173,-1.523,-1.5254,-1.529,-1.5302,-1.5299,-1.5912,-1.6428,-1.6734,-1.7139,-1.7369,-1.74,-1.7594,-1.7681,-1.7552,-1.7476,-1.7029,-1.6189,-1.6221,-1.6124,-1.5915,-1.6445,-1.6688,-1.6702,-1.7206,-1.7438,-1.7467,-1.7806,-1.7969,-1.792,-1.7525,-1.739,-1.7358,-1.6473,-1.6014,-1.5771,-1.5336,-1.5409,-1.5621,-1.5029,-1.5127,-1.547,-1.5112,-1.5122,-1.5197,-1.4987,-1.5513,-1.596,-1.5125,-1.2969,-1.1466,-1.3747,-1.211,-1.0521,-1.2713,-1.3012,-1.2963,-1.3322,-1.2873,-1.259,-1.2981,-1.3299,-1.3429,-1.3109,-1.3736,-1.3918,-1.2765,-1.2742,0.0,-1.1458,-1.0418,-0.9658,-0.9325,-0.8019,-0.7069,-0.674,0.0,0.0,-0.5117,-0.5198,-0.5433,-0.5609,-0.5277,-0.5058,-0.5058,-0.5441,-0.5441,-0.5058,-0.5058,-0.4838,-0.4519,-0.4519,-0.4519,-0.4519,-0.4519,-0.4519,-0.4519,-0.4519,-0.4519,-0.4519,-0.4519,-0.4519,-0.4519,-0.4519,-0.4519,-0.4519,-1.389,-1.3974,-1.4146,-1.4286,-1.4315,-1.4408,-1.467,-1.4682,-1.4732,-1.4874,-1.4992,-1.5074,-1.5101,-1.52,-1.5273,-1.5303,-1.5928,-1.6181,-1.5942,-1.6619,-1.7034,-1.7029,-1.65,-1.6415,-1.6886,-1.5959,-1.532,-1.5013,-1.4658,-1.447,-1.442,-1.5059,-1.536,-1.5388,-1.6341,-1.6799,-1.6799,-1.6901,-1.6944,-1.691,-1.6438,-1.6072,-1.5778,-1.5472,-1.4878,-1.4245,-1.4525,-1.4608,-1.4502,-1.4103,-1.4505,-1.4967,-1.3544,-1.3715,-1.4312,-1.3736,-1.3828,-1.4238,-1.4992,-1.4761,-1.4278,-1.4117,-1.3888,-1.3568,-1.3185,-1.2781,-1.2466,-1.2385,-1.2112,-1.1985,-1.227,-1.2655,-1.2726,-1.2212,-1.2825,-1.2799,-1.1202,0.0,-1.1099,-1.0391,-0.9193,-0.8364,-0.8364,-0.7213,-0.6145,-0.5542,-0.5433,-0.5109,0.0,-0.4519,-0.4519,-0.4519,-0.4519,-0.4519,-0.4519,-0.4519,-0.4519,-0.4519,-0.4519,-0.4519,-0.4519,-0.4519,-0.4519,-0.4519,-0.4519,-0.4519,-0.4519,-0.4519,-0.4519,-0.4519,-0.4519,-0.4519,-0.4519,-0.4519,-0.4519,-0.4519,-1.2008,-1.2171,-1.2542,-1.3351,-1.2951,-1.3001,-1.4482,-1.4148,-1.3998,-1.4799,-1.4928,-1.497,-1.5093,-1.5076,-1.5109,-1.5293,-1.5358,-1.5304,-1.51,-1.5518,-1.5664,-1.5384,-1.5539,-1.5456,-1.5114,-1.4595,-1.4414,-1.4596,-1.4533,-1.4342,-1.4,-1.4438,-1.4671,-1.4671,-1.5179,-1.5422,-1.5466,-1.6016,-1.6247,-1.6182,-1.5401,-1.5597,-1.6151,-1.4306,-1.405,-1.4568,-1.375,-1.3468,-1.3462,-1.3358,-1.3185,-1.2962,-1.2698,-1.2471,-1.2272,-1.2173,-1.2151,-1.2484,-1.3786,-1.3773,-1.348,-1.3835,-1.3319,-1.2708,-1.2615,-1.2498,-1.2396,-1.235,-1.255,-1.2775,-1.2771,-1.2338,-1.196,-1.188,-1.1522,-1.0973,-1.0078,0.0,-0.8926,-0.818,-0.7416,-0.6902,-0.6902,-0.614,-0.5597,-0.5487,-0.4948,-0.4625,-0.4519,-0.4519,-0.4519,-0.4519,-0.4519,-0.4519,-0.4519,-0.4519,-0.4519,-0.4519,-0.4519,-0.4519,-0.4519,-0.4519,-0.4519,-0.4519,-0.4519,-0.4519,-0.4519,-0.4519,-0.4519,-0.4519,-0.4519,-0.4519,-0.4519,-0.4519,-0.4519,-0.4519,-1.1474,-1.1653,-1.1953,-1.2462,-1.2235,-1.2255,-1.307,-1.2878,-1.2787,-1.3225,-1.3347,-1.347,-1.3633,-1.3676,-1.393,-1.4496,-1.455,-1.4665,-1.4929,-1.4982,-1.5007,-1.4995,-1.4656,-1.4368,-1.4111,-1.338,-1.3195,-1.3592,-1.2987,-1.2722,-1.2789,-1.2938,-1.3042,-1.3064,-1.3723,-1.4017,-1.4063,-1.4648,-1.4915,-1.485,-1.3943,-1.3874,-1.4217,-1.2925,-1.2746,-1.3118,-1.2615,-1.2437,-1.2437,-1.2437,-1.2282,-1.2102,-1.2102,-1.1957,-1.1811,-1.1811,-1.1811,-1.1957,-1.2579,-1.2626,-1.2496,-1.2719,-1.2437,-1.2171,-1.2399,-1.2219,-1.2155,-1.2581,-1.2158,-1.1849,-1.2222,-1.1554,-1.081,-1.0385,-1.0248,0.0,0.0,-0.8144,-0.7823,-0.7154,-0.646,-0.5982,-0.5982,-0.5382,-0.4948,-0.4948,-0.468,-0.4519,-0.4519,-0.4519,-0.4519,-0.4519,-0.4519,-0.4519,-0.4519,-0.4519,-0.4519,-0.4519,-0.4519,-0.4519,-0.4519,-0.4519,-0.4519,-0.4519,-0.4519,-0.4519,-0.4519,-0.4519,-0.4519,-0.4519,-0.4519,-0.4519,-0.446,-0.407,-0.3901,-0.379,-1.0823,-1.0995,-1.1194,-1.1527,-1.1422,-1.1422,-1.1812,-1.1693,-1.1639,-1.183,-1.1971,-1.2133,-1.2308,-1.2617,-1.3022,-1.3542,-1.3812,-1.4177,-1.4688,-1.4474,-1.4495,-1.4859,-1.3957,-1.346,-1.3505,-1.2505,-1.2263,-1.2794,-1.1763,-1.1433,-1.1811,-1.1811,-1.1811,-1.1847,-1.2601,-1.2923,-1.2958,-1.3483,-1.3643,-1.3509,-1.2766,-1.2437,-1.2282,-1.1957,-1.1811,-1.1811,-1.1811,-1.1811,-1.1811,-1.1811,-1.1737,-1.1627,-1.1627,-1.1553,-1.1442,-1.1442,-1.1356,-1.1356,-1.17,-1.1811,-1.1774,-1.1653,-1.1582,-1.1605,-1.1744,-1.1552,-1.1539,-1.2203,-1.1426,-1.0822,-1.146,-1.0631,-0.965,-0.9083,0.0,0.0,0.0,-0.6912,-0.6876,-0.6204,-0.5601,-0.5273,-0.5273,-0.4787,-0.4519,-0.4519,-0.4519,-0.4519,-0.4519,-0.4519,-0.4519,-0.4519,-0.4519,-0.4519,-0.4519,-0.4519,-0.4519,-0.4519,-0.4519,-0.4519,-0.4519,-0.4519,-0.4519,-0.4519,-0.4519,-0.4519,-0.4519,-0.4519,-0.4519,-0.4463,-0.4294,-0.4236,-0.4125,-0.34,-0.3065,-0.2954,-0.922,-0.9283,-0.9571,-1.0458,-0.9988,-0.9998,-1.1484,-1.1087,-1.0863,-1.1627,-1.1826,-1.198,-1.2114,-1.2909,-1.3221,-1.2747,-1.3381,-1.3844,-1.3885,-1.3693,-1.384,-1.4426,-1.3484,-1.3038,-1.3217,-1.2238,-1.2073,-1.2794,-1.2017,-1.1711,-1.1811,-1.1811,-1.1811,-1.1811,-1.2259,-1.2448,-1.2483,-1.297,-1.2901,-1.2495,-1.252,-1.2246,-1.1847,-1.1811,-1.1811,-1.1811,-1.1811,-1.1811,-1.1811,-1.1811,-1.1468,-1.1057,-1.1057,-1.0764,-1.04,-1.04,-1.0069,-0.9981,-1.1394,-1.1811,-1.1689,-1.1116,-1.0853,-1.0647,-1.0118,-1.0142,-1.0314,-1.0364,-1.0623,-1.0797,-1.0855,-0.9746,-0.8802,-0.875,0.0,0.0,-0.5738,-0.5638,-0.5433,-0.4736,-0.4625,-0.457,-0.457,-0.4515,-0.4519,-0.4519,-0.4519,-0.4519,-0.4519,-0.4519,-0.4519,-0.4519,-0.4519,-0.4519,-0.4519,-0.4519,-0.4519,-0.4519,-0.4519,-0.4519,-0.4519,-0.4519,-0.4519,-0.4519,-0.4519,-0.4519,-0.4519,-0.4519,-0.4519,-0.4408,-0.368,-0.3398,-0.3287,-0.2565,-0.2286,-0.2286,-0.8925,-0.8979,-0.9119,-0.9561,-0.9389,-0.9389,-0.9999,-0.9831,-0.9732,-1.0052,-1.0129,-1.0224,-1.0403,-1.0817,-1.1221,-1.1585,-1.1958,-1.2394,-1.2905,-1.3379,-1.3754,-1.4083,-1.3514,-1.3088,-1.2815,-1.1684,-1.1161,-1.1324,-1.0413,-0.9982,-1.0074,-1.0074,-1.0042,-0.9945,-1.0438,-1.0793,-1.1047,-1.1277,-1.1445,-1.1538,-1.1002,-1.0651,-1.0446,-0.9878,-0.98,-0.9955,-1.0029,-1.0208,-1.036,-1.036,-1.0244,-1.0021,-0.9697,-0.9469,-0.9319,-0.9319,-0.9159,-0.911,-0.9728,-0.9884,-0.9862,-0.9812,-0.9754,-0.9718,-0.9724,-0.996,-1.0084,-0.9713,-0.9587,-0.9349,-0.8919,-0.8047,-0.7261,-0.6768,0.0,-0.5655,-0.5003,-0.4897,-0.4787,-0.4515,-0.4519,-0.4519,-0.4519,-0.4519,-0.4294,-0.3846,-0.4236,-0.407,-0.3121,-0.3065,-0.3287,-0.3732,-0.379,-0.4015,-0.4519,-0.4519,-0.4519,-0.4519,-0.4519,-0.4519,-0.4519,-0.4519,-0.4519,-0.4519,-0.4519,-0.4519,-0.446,-0.4015,-0.379,-0.3735,-0.2954,-0.2619,-0.2508,-0.1786,-0.1507,-0.1452,-0.8696,-0.8743,-0.8778,-0.8863,-0.8885,-0.8885,-0.8885,-0.8885,-0.8885,-0.8885,-0.8945,-0.9054,-0.9195,-0.9609,-1.0062,-1.0521,-1.0846,-1.1293,-1.1974,-1.3092,-1.3846,-1.4101,-1.3795,-1.3422,-1.2955,-1.1821,-1.1141,-1.0926,-0.9868,-0.9265,-0.9124,-0.9018,-0.8872,-0.8694,-0.919,-0.9488,-0.9656,-0.9849,-1.004,-1.0212,-0.9571,-0.9325,-0.9211,-0.8505,-0.8397,-0.8666,-0.8621,-0.8837,-0.9147,-0.8994,-0.9035,-0.9015,-0.8669,-0.8625,-0.8683,-0.8521,-0.8439,-0.8398,-0.8226,-0.8177,-0.8263,-0.8735,-0.8909,-0.8986,-0.8941,-0.9175,-0.9248,-0.8561,-0.8223,-0.7894,-0.7357,-0.673,-0.6091,-0.5597,-0.5324,-0.5003,-0.457,-0.4519,-0.4519,-0.4519,-0.4294,-0.4125,-0.4125,-0.3901,-0.3566,-0.3065,-0.3511,-0.3345,-0.2232,-0.2174,-0.2454,-0.2954,-0.301,-0.34,-0.4125,-0.4349,-0.4519,-0.4519,-0.4519,-0.4519,-0.4519,-0.4519,-0.4349,-0.4125,-0.4125,-0.4012,-0.3735,-0.3231,-0.301,-0.2954,-0.2176,-0.1842,-0.1786,-0.1006,-0.0727,-0.0671,-0.8361,-0.8403,-0.8403,-0.8403,-0.8403,-0.8403,-0.8403,-0.8403,-0.8403,-0.8403,-0.8622,-0.8801,-0.8801,-0.9813,-1.0245,-0.9649,-1.0203,-1.0755,-1.1168,-1.2828,-1.4023,-1.4577,-1.4279,-1.3986,-1.3715,-1.2856,-1.2298,-1.2106,-1.0887,-0.998,-0.9377,-0.9114,-0.878,-0.8401,-0.8789,-0.8755,-0.8401,-0.8878,-0.8819,-0.8401,-0.8465,-0.844,-0.8332,-0.7947,-0.8044,-0.8332,-0.7947,-0.8053,-0.8341,-0.7921,-0.798,-0.8206,-0.8206,-0.8426,-0.8602,-0.8036,-0.787,-0.7746,-0.7154,-0.6979,-0.7222,-0.8099,-0.8505,-0.8452,-0.7528,-0.7483,-0.7503,-0.6745,-0.6588,-0.6588,-0.6588,-0.5982,-0.5487,-0.5487,-0.4948,-0.4519,-0.4519,-0.4519,-0.4519,-0.4519,-0.3846,-0.3345,-0.3287,-0.2619,-0.2174,-0.2174,-0.2174,-0.2174,-0.2174,-0.2174,-0.2174,-0.2174,-0.2174,-0.2565,-0.3287,-0.407,-0.4519,-0.4519,-0.4519,-0.4463,-0.4463,-0.4463,-0.407,-0.3287,-0.3287,-0.2899,-0.2174,-0.2174,-0.2174,-0.212,-0.1396,-0.1118,-0.1006,-0.028,0.0,0.0,-0.8361,-0.8403,-0.8403,-0.8403,-0.8403,-0.8403,-0.8403,-0.8403,-0.8403,-0.8403,-0.846,-0.8522,-0.8522,-0.8905,-0.9134,-0.9046,-0.9319,-1.0014,-1.1254,-1.252,-1.3569,-1.4283,-1.4498,-1.4325,-1.3783,-1.3147,-1.2487,-1.1812,-1.0508,-0.9539,-0.8894,-0.8067,-0.7562,-0.7357,-0.7189,-0.7235,-0.7419,-0.722,-0.7282,-0.7465,-0.7213,-0.7087,-0.7009,-0.6626,-0.6647,-0.6919,-0.6885,-0.7113,-0.744,-0.7496,-0.757,-0.7617,-0.7423,-0.7445,-0.7482,-0.7314,-0.728,-0.7231,-0.7063,-0.6979,-0.7137,-0.7609,-0.7799,-0.7813,-0.7743,-0.7578,-0.7189,-0.6452,-0.6042,-0.571,-0.5226,-0.4952,-0.4787,-0.4787,-0.4625,-0.4519,-0.4519,-0.4015,-0.3677,-0.3677,-0.301,-0.2565,-0.2508,-0.2343,-0.2009,-0.1452,-0.095,-0.0895,-0.1396,-0.095,-0.0895,-0.1396,-0.1452,-0.1786,-0.2508,-0.3345,-0.368,-0.3677,-0.368,-0.3456,-0.2899,-0.2899,-0.2732,-0.2508,-0.2508,-0.2397,-0.2174,-0.1619,-0.1452,-0.1341,-0.0615,-0.0336,-0.028,-0.0056,0.0,0.0,-0.7909,-0.7923,-0.7923,-0.7923,-0.7923,-0.7923,-0.7923,-0.8008,-0.8094,-0.8094,-0.8119,-0.816,-0.816,-0.8316,-0.8424,-0.8485,-0.8667,-0.9367,-1.0679,-1.17,-1.2648,-1.3524,-1.4159,-1.4335,-1.404,-1.3679,-1.3104,-1.2327,-1.1204,-1.0094,-0.8984,-0.8126,-0.729,-0.6466,-0.6578,-0.6501,-0.628,-0.619,-0.6336,-0.6594,-0.6176,-0.5998,-0.5952,-0.5758,-0.5652,-0.5669,-0.5913,-0.6135,-0.6324,-0.6492,-0.6724,-0.6936,-0.697,-0.6979,-0.6937,-0.6732,-0.6689,-0.6641,-0.638,-0.6337,-0.6373,-0.658,-0.688,-0.7159,-0.7212,-0.6868,-0.6329,-0.5676,-0.5304,-0.5003,-0.457,-0.4519,-0.4519,-0.4519,-0.4236,-0.4015,-0.4015,-0.3345,-0.2843,-0.2843,-0.2232,-0.1786,-0.1786,-0.1507,-0.1118,-0.0671,-0.0224,-0.0168,-0.0615,-0.0224,-0.0224,-0.0671,-0.0671,-0.1006,-0.1786,-0.2232,-0.2621,-0.2843,-0.2899,-0.2676,-0.2174,-0.2174,-0.2063,-0.1786,-0.1786,-0.1619,-0.1284,-0.0838,-0.0671,-0.0615,-0.0168,0.0,0.0,0.0,0.0,0.0,-0.7195,-0.7195,-0.7195,-0.7195,-0.7195,-0.7195,-0.7195,-0.7394,-0.756,-0.756,-0.768,-0.7753,-0.7753,-0.7909,-0.8003,-0.7955,-0.8316,-0.887,-0.9627,-1.0573,-1.1498,-1.2384,-1.3331,-1.3961,-1.4239,-1.4238,-1.3945,-1.3354,-1.2544,-1.1304,-0.9687,-0.8972,-0.7644,-0.5914,-0.6575,-0.622,-0.5111,-0.5564,-0.5758,-0.5758,-0.5397,-0.5201,-0.5149,-0.5201,-0.4941,-0.461,-0.5017,-0.5137,-0.5118,-0.5234,-0.5636,-0.6211,-0.6732,-0.6875,-0.6768,-0.6264,-0.6136,-0.6002,-0.5437,-0.5303,-0.5303,-0.5303,-0.5858,-0.6377,-0.6212,-0.5719,-0.5173,-0.4703,-0.4519,-0.4519,-0.4519,-0.4519,-0.446,-0.4405,-0.379,-0.3287,-0.3231,-0.2565,-0.212,-0.212,-0.1452,-0.1006,-0.1006,-0.0392,0.0,0.0,0.0,0.0,0.0,0.0,0.0,0.0,0.0056,-0.028,-0.1006,-0.095,-0.1284,-0.212,-0.212,-0.2063,-0.2009,-0.2009,-0.1619,-0.1006,-0.1006,-0.0615,0.0,0.0,0.0,0.0,0.0,0.0,0.0,0.0,0.0,0.0,-0.7195,-0.7195,-0.7195,-0.7195,-0.7195,-0.7195,-0.7195,-0.7256,-0.7287,-0.7287,-0.7318,-0.732,-0.732,-0.7366,-0.7457,-0.7592,-0.8349,-0.8804,-0.8785,-1.0333,-1.1215,-1.112,-1.2022,-1.2706,-1.3136,-1.3947,-1.4187,-1.3853,-1.2884,-1.1988,-1.1191,-0.9058,-0.7554,-0.6626,-0.5607,-0.4808,-0.4274,-0.4371,-0.4596,-0.4884,-0.4794,-0.4756,-0.4724,-0.4756,-0.45,-0.4145,-0.4248,-0.428,-0.4334,-0.4936,-0.5238,-0.5432,-0.5832,-0.5842,-0.5647,-0.5524,-0.548,-0.548,-0.5346,-0.5303,-0.5303,-0.5303,-0.5077,-0.5086,-0.5848,-0.5572,-0.5165,-0.5291,-0.4842,-0.4519,-0.4519,-0.4519,-0.4294,-0.3677,-0.34,-0.3121,-0.2508,-0.1786,-0.134,-0.134,-0.0671,-0.0224,-0.0224,-0.0112,0.0,0.0,0.0,0.0,0.0,0.0,0.0,0.0,0.056,0.0503,-0.0224,0.0335,-0.0056,-0.134,-0.134,-0.1062,-0.0504,-0.0504,-0.0392,-0.0224,-0.0224,-0.0168,0.0,0.0,0.0,0.0,0.0,0.0,0.0,0.0,0.0,0.0,-0.6885,-0.6805,-0.6759,-0.6885,-0.6914,-0.6914,-0.6914,-0.6999,-0.7048,-0.7048,-0.7048,-0.7048,-0.7048,-0.7048,-0.7144,-0.7349,-0.771,-0.7926,-0.7893,-0.9092,-0.9905,-1.0069,-1.0703,-1.1363,-1.1987,-1.2709,-1.3354,-1.395,-1.289,-1.2204,-1.185,-0.9773,-0.8133,-0.6852,-0.5678,-0.4738,-0.3993,-0.3751,-0.3914,-0.428,-0.407,-0.3968,-0.4011,-0.4215,-0.3923,-0.3434,-0.3858,-0.3993,-0.4089,-0.4591,-0.4798,-0.4945,-0.53,-0.5376,-0.526,-0.4957,-0.487,-0.4826,-0.4574,-0.4487,-0.4487,-0.4487,-0.4284,-0.4371,-0.5273,-0.5023,-0.4654,-0.495,-0.4732,-0.4519,-0.4519,-0.4239,-0.3846,-0.34,-0.2732,-0.212,-0.173,-0.1062,-0.056,-0.056,-0.0224,0.0,0.0,0.0,0.0,0.0,0.0,0.0168,0.0504,0.0168,0.0336,0.1006,0.1062,0.1062,0.1062,0.1452,0.106,-0.0056,-0.0391,-0.0392,0.0,0.0,0.0,0.0,0.0,0.0,0.0,0.0,0.0,0.0,0.0,0.0,0.0,0.0,0.0,0.0,-0.643,-0.6301,-0.623,-0.6448,-0.6478,-0.6478,-0.6478,-0.6642,-0.6778,-0.6778,-0.6811,-0.6828,-0.6794,-0.6744,-0.6798,-0.6956,-0.6818,-0.6798,-0.6972,-0.7669,-0.8369,-0.9018,-0.9502,-1.0104,-1.0841,-1.1029,-1.1913,-1.3507,-1.2773,-1.2326,-1.2099,-1.0726,-0.8926,-0.6798,-0.6019,-0.4853,-0.3523,-0.3114,-0.3216,-0.3621,-0.3241,-0.3078,-0.3122,-0.3523,-0.3163,-0.2543,-0.3266,-0.3593,-0.3691,-0.399,-0.4207,-0.4399,-0.4774,-0.4929,-0.4874,-0.4299,-0.4172,-0.4132,-0.3615,-0.3442,-0.3442,-0.3442,-0.3436,-0.3648,-0.4379,-0.4267,-0.4128,-0.4375,-0.4498,-0.446,-0.4294,-0.379,-0.3289,-0.3065,-0.1953,-0.1062,-0.0951,-0.0392,0.0,0.0,0.0,0.0,0.0,0.0,0.0056,0.0168,0.0168,0.0504,0.1229,0.0727,0.095,0.2174,0.173,0.173,0.2174,0.2343,0.2009,0.1284,0.0671,0.0336,0.0168,0.0168,0.0168,0.0168,0.0056,0.0,0.0,0.0,0.0,0.0,0.0,0.0,0.0,0.0168,0.0168,0.0168,-0.6002,-0.5954,-0.5954,-0.6002,-0.6002,-0.6002,-0.6002,-0.6177,-0.6294,-0.6294,-0.6505,-0.6552,-0.6324,-0.6141,-0.6045,-0.607,-0.6063,-0.6045,-0.607,-0.7037,-0.7583,-0.7574,-0.8574,-0.9369,-0.9867,-0.9424,-1.0071,-1.1924,-1.2858,-1.2937,-1.2167,-1.1555,-0.9611,-0.6592,-0.5517,-0.3779,-0.1669,-0.1603,-0.1831,-0.2252,-0.2186,-0.2186,-0.2189,-0.2255,-0.193,-0.1505,-0.1638,-0.194,-0.2344,-0.2789,-0.3097,-0.339,-0.3846,-0.3926,-0.3707,-0.3117,-0.33,-0.3575,-0.2987,-0.2807,-0.2807,-0.2807,-0.2462,-0.2273,-0.2981,-0.3674,-0.4177,-0.4217,-0.4375,-0.4294,-0.3566,-0.3456,-0.2954,-0.1619,-0.1229,-0.0895,-0.0224,-0.0056,0.0,0.0,0.0,0.0,0.0,0.0,0.028,0.0895,0.095,0.1284,0.2009,0.1952,0.2009,0.2174,0.2788,0.2788,0.223,0.2843,0.2788,0.2063,0.1952,0.1563,0.095,0.095,0.095,0.0895,0.028,0.0,0.0,0.0,0.0,0.0,0.0,0.0,0.0056,0.0727,0.095,0.095,-0.5874,-0.5782,-0.5726,-0.5874,-0.5911,-0.5911,-0.5911,-0.5973,-0.6034,-0.6034,-0.6135,-0.6153,-0.6052,-0.5815,-0.5686,-0.5686,-0.5686,-0.5741,-0.5881,-0.6199,-0.6547,-0.695,-0.6862,-0.7255,-0.8174,-0.7947,-0.8317,-0.9437,-1.1294,-1.0915,-0.8431,-0.9451,-0.7504,-0.3159,-0.346,-0.289,-0.1665,-0.1171,-0.107,-0.1263,-0.1268,-0.1268,-0.1298,-0.1532,-0.1468,-0.1305,-0.1305,-0.1435,-0.1649,-0.1854,-0.2286,-0.2803,-0.3004,-0.3314,-0.349,-0.2898,-0.2898,-0.2946,-0.2364,-0.2184,-0.2184,-0.2184,-0.2006,-0.1884,-0.2193,-0.2637,-0.3084,-0.3527,-0.3379,-0.3121,-0.2732,-0.2399,-0.1898,-0.1229,-0.0727,-0.0392,-0.0056,0.0,0.0,0.0,0.0,0.0168,0.056,0.0615,0.0895,0.1675,0.173,0.2063,0.2843,0.2454,0.2621,0.3456,0.34,0.34,0.3511,0.379,0.3566,0.2843,0.3289,0.2843,0.173,0.173,0.173,0.1675,0.1397,0.1229,0.1229,0.1229,0.1229,0.1229,0.1229,0.1229,0.1284,0.1619,0.173,0.173]},{"header":{"parameterUnit":"m.s-1","parameterCategory":1,"la1":30.6,"la2":28.766,"lo1":-90.7593,"lo2":-88.6598,"dy":0.0162,"dx":0.0183,"nx":116,"ny":114,"refTime":"2023-10-21T18:00:00:Z","depth":0,"parameterNumber":3,"parameterNumberName":"V-component_of_WINDS"},"data":[0.0,0.0,0.0,0.0,0.0,0.0,0.0,0.0,0.0,0.0,0.0,0.0,0.0,0.0,0.0,0.0,0.0,0.0,0.0,0.0,0.0,0.0,0.0,0.0,0.0,0.0,0.0,0.0,0.0,0.0,0.0,0.0,0.0,0.0,0.0,0.0,0.0,0.0,0.0,0.0,0.0,0.0,0.0,0.0,0.0,0.0,0.0,0.0,0.0,0.0,0.0,0.0,0.0,0.0,0.0,0.0,0.0,0.0,0.0,0.0,0.0,0.0,0.0,0.0,0.0,0.0,0.0,0.0,0.0,0.0,0.0,0.0,0.0,0.0,0.0,0.0,0.0,0.0,0.0,0.0,0.0,0.0,0.0,0.0,0.0,0.0,0.0,0.0,0.0,0.0,0.0,0.0,0.0,0.0,0.0,0.0,0.0,0.0,0.0,0.0,0.0,0.0,0.0,0.0,0.0,0.0,0.0,0.0,0.0,0.0,0.0,0.0,0.0,0.0,0.0,0.0,0.0,0.0,0.0,0.0,0.0,0.0,0.0,0.0,0.0,0.0,0.0,0.0,0.0,0.0,0.0,0.0,0.0,0.0,0.0,0.0,0.0,0.0,0.0,0.0,0.0,0.0,0.0,0.0,0.0,0.0,0.0,0.0,0.0,0.0,0.0,0.0,0.0,0.0,0.0,0.0,0.0,0.0,0.0,0.0,0.0,0.0,0.0,0.0,0.0,0.0,0.0,0.0,0.0,0.0,0.0,0.0,0.0,0.0,0.0,0.0,0.0,0.0,0.0,0.0,0.0,0.0,0.0,0.0,0.0,0.0,0.0,0.0,0.0,0.0,0.0,0.0,0.0,0.0,0.0,0.0,0.0,0.0,0.0,0.0,0.0,0.0,0.0,0.0,0.0,0.0,0.0,0.0,0.0,0.0,0.0,0.0,0.0,0.0,0.0,0.0,0.0,0.0,0.0,0.0,0.0,0.0,0.0,0.0,0.0,0.0,0.0,0.0,0.0,0.0,0.0,0.0,0.0,0.0,0.0,0.0,0.0,0.0,0.0,0.0,0.0,0.0,0.0,0.0,0.0,0.0,0.0,0.0,0.0,0.0,0.0,0.0,0.0,0.0,0.0,0.0,0.0,0.0,0.0,0.0,0.0,0.0,0.0,0.0,0.0,0.0,0.0,0.0,0.0,0.0,0.0,0.0,0.0,0.0,0.0,0.0,0.0,0.0,0.0,0.0,0.0,0.0,0.0,0.0,0.0,0.0,0.0,0.0,0.0,0.0,0.0,0.0,0.0,0.0,0.0,0.0,0.0,0.0,0.0,0.0,0.0,0.0,0.0,0.0,0.0,0.0,0.0,0.0,0.0,0.0,0.0,0.0,0.0,0.0,0.0,0.0,0.0,0.0,0.0,0.0,0.0,0.0,0.0,0.0,0.0,0.0,0.0,0.0,0.0,0.0,0.0,0.0,0.0,0.0,0.0,0.0,0.0,0.0,0.0,0.0,0.0,0.0,0.0,0.0,0.0,0.0,0.0,0.0,0.0,0.0,0.0,0.0,0.0,0.0,0.0,0.0,0.0,0.0,0.0,0.0,0.0,0.0,0.0,0.0,0.0,0.0,0.0,0.0,0.0,0.0,0.0,0.0,0.0,0.0,0.0,0.0,0.0,0.0,0.0,0.0,0.0,0.0,0.0,0.0,0.0,0.0,0.0,0.0,0.0,0.0,0.0,0.0,0.0,0.0,0.0,0.0,0.0,0.0,0.0,0.0,0.0,0.0,0.0,0.0,0.0,0.0,0.0,0.0,0.0,0.0,0.0,0.0,0.0,0.0,0.0,0.0,0.0,0.0,0.0,0.0,0.0,0.0,0.0,0.0,0.0,0.0,0.0,0.0,0.0,0.0,0.0,0.0,0.0,0.0,0.0,0.0,0.0,0.0,0.0,0.0,0.0,0.0,0.0,0.0,0.0,0.0,0.0,0.0,0.0,0.0,0.0,0.0,0.0,0.0,0.0,0.0,0.0,0.0,0.0,0.0,0.0,0.0,0.0,0.0,0.0,0.0,0.0,0.0,0.0,0.0,0.0,0.0,0.0,0.0,0.0,0.0,0.0,0.0,0.0,0.0,0.0,0.0,0.0,0.0,0.0,0.0,0.0,0.0,0.0,0.0,0.0,0.0,0.0,0.0,0.0,0.0,0.0,0.0,0.0,0.0,0.0,0.0,0.0,0.0,0.0,0.0,0.0,0.0,0.0,0.0,0.0,0.0,0.0,0.0,0.0,0.0,0.0,0.0,0.0,0.0,0.0,0.0,0.0,0.0,0.0,0.0,0.0,0.0,0.0,0.0,0.0,0.0,0.0,0.0,0.0,0.0,0.0,0.0,0.0,0.0,0.0,0.0,0.0,0.0,0.0,0.0,0.0,0.0,0.0,0.0,0.0,0.0,0.0,0.0,0.0,0.0,0.0,0.0,0.0,0.0,0.0,0.0,0.0,0.0,0.0,0.0,0.0,0.0,0.0,0.0,0.0,0.0,0.0,0.0,0.0,0.0,0.0,0.0,0.0,0.0,0.0,0.0,0.0,0.0,0.0,0.0,0.0,0.0,0.0,0.0,0.0,0.0,0.0,0.0,0.0,0.0,0.0,0.0,0.0,0.0,0.0,0.0,0.0,0.0,0.0,0.0,0.0,0.0,0.0,0.0,0.0,0.0,0.0,0.0,0.0,0.0,0.0,0.0,0.0,0.0,0.0,0.0,0.0,0.0,0.0,0.0,0.0,0.0,0.0,0.0,0.0,0.0,0.0,0.0,0.0,0.0,0.0,0.0,0.0,0.0,0.0,0.0,0.0,0.0,0.0,0.0,0.0,0.0,0.0,0.0,0.0,0.0,0.0,0.0,0.0,0.0,0.0,0.0,0.0,0.0,0.0,0.0,0.0,0.0,0.0,0.0,0.0,0.0,0.0,0.0,0.0,0.0,0.0,0.0,0.0,0.0,0.0,0.0,0.0,0.0,0.0,0.0,0.0,0.0,0.0,0.0,0.0,0.0,0.0,0.0,0.0,0.0,0.0,0.0,0.0,0.0,0.0,0.0,0.0,0.0,0.0,0.0,0.0,0.0,0.0,0.0,0.0,0.0,0.0,0.0,0.0,0.0,0.0,0.0,0.0,0.0,0.0,0.0,0.0,0.0,0.0,0.0,0.0,0.0,0.0,0.0,0.0,0.0,0.0,0.0,0.0,0.0,0.0,0.0,0.0,0.0,0.0,0.0,0.0,0.0,0.0,0.0,0.0,0.0,0.0,0.0,0.0,0.0,0.0,0.0,0.0,0.0,0.0,0.0,0.0,0.0,0.0,0.0,0.0,0.0,0.0,0.0,0.0,0.0,0.0,0.0,0.0,0.0,0.0,0.0,0.0,0.0,0.0,0.0,0.0,0.0,0.0,0.0,0.0,0.0,0.0,0.0,0.0,0.0,0.0,0.0,0.0,0.0,0.0,0.0,0.0,0.0,0.0,0.0,0.0,0.0,0.0,0.0,0.0,0.0,0.0,0.0,0.0,0.0,0.0,0.0,0.0,0.0,0.0,0.0,0.0,0.0,0.0,0.0,0.0,0.0,0.0,0.0,0.0,0.0,0.0,0.0,0.0,0.0,0.0,0.0,0.0,0.0,0.0,0.0,0.0,0.0,0.0,0.0,0.0,0.0,0.0,0.0,0.0,0.0,0.0,0.0,0.0,0.0,0.0,0.0,0.0,0.0,0.0,0.0,0.0,0.0,0.0,0.0,0.0,0.0,0.0,0.0,0.0,0.0,0.0,0.0,0.0,0.0,0.0,0.0,0.0,0.0,0.0,0.0,0.0,0.0,0.0,0.0,0.0,0.0,0.0,0.0,0.0,0.0,0.0,0.0,0.0,0.0,0.0,0.0,0.0,0.0,0.0,0.0,0.0,0.0,0.0,0.0,0.0,0.0,0.0,0.0,0.0,0.0,0.0,0.0,0.0,0.0,0.0,0.0,0.0,0.0,0.0,0.0,0.0,0.0,0.0,0.0,0.0,0.0,0.0,0.0,0.0,0.0,0.0,0.0,0.0,0.0,0.0,0.0,0.0,0.0,0.0,0.0,0.0,0.0,0.0,0.0,0.0,0.0,0.0,0.0,0.0,0.0,0.0,0.0,0.0,0.0,0.0,0.0,0.0,0.0,0.0,0.0,0.0,0.0,0.0,0.0,0.0,0.0,0.0,0.0,0.0,0.0,0.0,0.0,0.0,0.0,0.0,0.0,0.0,0.0,0.0,0.0,0.0,0.0,0.0,0.0,0.0,0.0,0.0,0.0,0.0,0.0,0.0,0.0,0.0,0.0,0.0,0.0,0.0,0.0,0.0,0.0,0.0,0.0,0.0,0.0,0.0,0.0,0.0,0.0,0.0,0.0,0.0,0.0,0.0,0.0,0.0,0.0,0.0,0.0,0.0,0.0,0.0,0.0,0.0,0.0,0.0,0.0,0.0,0.0,0.0,0.0,0.0,0.0,0.0,0.0,0.0,0.0,0.0,0.0,0.0,0.0,0.0,0.0,0.0,0.0,0.0,0.0,0.0,0.0,0.0,0.0,0.0,0.0,0.0,0.0,0.0,0.0,0.0,0.0,0.0,0.0,0.0,0.0,0.0,0.0,0.0,0.0,0.0,0.0,0.0,0.0,0.0,0.0,0.0,0.0,0.0,0.0,0.0,0.0,0.0,0.0,0.0,0.0,0.0,0.0,0.0,0.0,0.0,0.0,0.0,0.0,0.0,0.0,0.0,0.0,0.0,0.0,0.0,0.0,0.0,0.0,0.0,0.0,0.0,0.0,0.0,0.0,0.0,0.0,0.0,0.0,0.0,0.0,0.0,0.0,0.0,0.0,0.0,0.0,0.0,0.0,0.0,0.0,0.0,0.0,0.0,0.0,0.0,0.0,0.0,0.0,0.0,0.0,0.0,0.0,0.0,0.0,0.0,0.0,0.0,0.0,0.0,0.0,0.0,0.0,0.0,0.0,0.0,0.0,0.0,0.0,0.0,0.0,0.0,0.0,0.0,0.0,0.0,0.0,0.0,0.0,0.0,0.0,0.0,0.0,0.0,0.0,0.0,0.0,0.0,0.0,0.0,0.0,0.0,0.0,0.0,0.0,0.0,0.0,0.0,0.0,0.0,0.0,0.0,0.0,0.0,0.0,0.0,0.0,0.0,0.0,0.0,0.0,0.0,0.0,0.0,0.0,0.0,0.0,0.0,0.0,0.0,0.0,0.0,0.0,0.0,0.0,0.0,0.0,0.0,0.0,0.0,0.0,0.0,0.0,0.0,0.0,0.0,0.0,0.0,0.0,0.0,0.0,0.0,0.0,0.0,0.0,0.0,0.0,0.0,0.0,0.0,0.0,0.0,0.0,0.0,0.0,0.0,0.0,0.0,0.0,0.0,0.0,0.0,0.0,0.0,0.0,0.0,0.0,0.0,0.0,0.0,0.0,0.0,0.0,0.0,0.0,0.0,0.0,0.0,0.0,0.0,0.0,0.0,0.0,0.0,0.0,0.0,0.0,0.0,0.0,0.0,0.0,0.0,0.0,0.0,0.0,0.0,0.0,0.0,0.0,0.0,0.0,0.0,0.0,0.0,0.0,0.0,0.0,0.0,0.0,0.0,0.0,0.0,0.0,0.0,0.0,0.0,0.0,0.0,0.0,0.0,0.0,0.0,0.0,0.0,0.0,0.0,0.0,0.0,0.0,0.0,0.0,0.0,0.0,0.0,0.0,0.0,0.0,0.0,0.0,0.0,0.0,0.0,0.0,0.0,0.0,0.0,0.0,0.0,0.0,0.0,0.0,0.0,0.0,0.0,0.0,0.0,0.0,0.0,0.0,0.0,0.0,0.0,0.0,0.0,0.0,0.0,0.0,0.0,0.0,0.0,0.0,0.0,0.0,0.0,0.0,0.0,0.0,0.0,0.0,0.0,0.0,0.0,0.0,0.0,0.0,0.0,0.0,0.0,0.0,0.0,0.0,0.0,0.0,0.0,0.0,0.0,0.0,0.0,0.0,0.0,0.0,0.0,0.0,0.0,0.0,0.0,0.0,0.0,0.0,-0.309,0.0,0.0,0.0,0.0,0.0,0.0,0.0,0.0,0.0,0.0,0.0,0.0,0.0,0.0,0.0,0.0,0.0,0.0,0.0,0.0,0.0,0.0,0.0,0.0,0.0,0.0,0.0,0.0,0.0,0.0,0.0,0.0,0.0,0.0,0.0,0.0,0.0,0.0,0.0,0.0,0.0,0.0,0.0,0.0,0.0,0.0,0.0,0.0,0.0,0.0,0.0,0.0,0.0,0.0,0.0,0.0,0.0,0.0,0.0,0.0,0.0,0.0,0.0,0.0,0.0,0.0,0.0,0.0,0.0,0.0,0.0,0.0,0.0,0.0,0.0,0.0,0.0,0.0,0.0,0.0,0.0,0.0,0.0,0.0,0.0,0.0,0.0,0.0,0.0,0.0,0.0,0.0,0.0,0.0,0.0,0.0,0.0,0.0,0.0,0.0,0.0,0.0,0.0,0.0,0.0,0.0,0.0,0.0,0.0,0.0,0.0,0.0,0.0,0.0,0.0,0.0,-0.2069,0.0,0.0,0.0,0.0,0.0,0.0,0.0,0.0,0.0,0.0,0.0,0.0,0.0,0.0,0.0,0.0,0.0,0.0,0.0,0.0,0.0,0.0,0.0,0.0,0.0,0.0,0.0,0.0,0.0,0.0,0.0,0.0,0.0,0.0,0.0,0.0,0.0,0.0,0.0,0.0,0.0,0.0,0.0,0.0,0.0,0.0,0.0,0.0,0.0,0.0,0.0,0.0,0.0,0.0,0.0,0.0,0.0,0.0,0.0,0.0,0.0,0.0,0.0,0.0,0.0,0.0,0.0,0.0,0.0,0.0,0.0,0.0,0.0,0.0,0.0,0.0,0.0,0.0,0.0,0.0,0.0,0.0,0.0,0.0,0.0,0.0,0.0,0.0,0.0,0.0,0.0,0.0,0.0,0.0,0.0,0.0,0.0,0.0,0.0,0.0,0.0,0.0,0.0,0.0,0.0,0.0,0.0,0.0,0.0,0.4606,0.431,0.4324,0.3655,0.2252,0.0418,-0.0641,-0.1027,0.0,0.0,0.0,0.0,0.0,0.0,0.0,0.0,0.0,0.0,0.0,0.0,0.0,0.0,0.0,0.0,0.0,0.0,0.0,0.0,0.0,0.0,0.0,0.0,0.0,0.0,0.0,0.0,0.0,0.0,0.0,0.0,0.0,0.0,0.0,0.0,0.0,0.0,0.0,2.6703,2.6657,2.6167,2.4991,1.804,0.0,0.0,0.0,0.0,0.0,0.0,0.0,0.0,0.0,0.0,0.0,0.0,0.0,0.0,0.0,0.0,0.0,0.0,0.0,0.0,0.0,0.0,0.0,0.0,0.0,0.0,0.0,0.0,0.0,0.0,0.0,0.0,0.0,0.0,0.0,0.0,0.0,0.0,0.0,0.0,0.0,0.0,0.0,1.0879,1.1035,0.0,0.0,0.0,0.0,0.0,0.0,0.0,0.0,0.0,0.0,0.0,0.0,0.0,0.0,0.5094,0.6322,0.6828,0.6705,0.724,0.6783,0.5533,0.5726,0.4964,0.367,0.329,0.0,0.1324,0.0473,0.0,0.0,0.0,0.0,0.0,0.0,0.0,0.0,0.0,0.0,0.0,0.0,0.0,0.0,0.0,0.0,0.0,0.0,0.0,0.0,0.0,0.0,0.0,0.0,0.0,0.0,0.0,0.0,0.0,0.0,0.0,0.0,0.0,0.0,0.0,0.0,2.8462,3.0667,3.1686,3.1159,3.0848,3.051,2.5844,2.2237,1.9441,1.6979,0.0,0.0,0.0,0.0,0.0,0.0,0.0,0.0,0.0,0.0,0.0,0.0,0.0,0.0,0.0,0.0,0.0,0.0,0.0,0.0,0.0,0.0,0.0,0.0,0.0,0.0,0.0,0.0,0.0,0.0,0.0,0.0,0.0,0.0,0.0,0.0,0.0,0.0,0.0,1.141,1.163,1.1439,1.0184,0.9026,0.0,0.0,0.0,0.0,0.0,0.0,0.0,0.0,0.0,0.7557,0.8102,0.8174,0.7574,0.8337,0.8326,0.7522,0.7872,0.7625,0.6942,0.7003,0.628,0.4926,0.5573,0.5077,0.3699,0.2661,0.207,0.1615,0.0,0.0,0.0,0.0,0.0,-0.1936,0.0,0.0,0.0,0.0,0.0,0.0,0.0,0.0,0.0,0.0,0.0,0.0,0.0,0.0,0.0,2.3987,0.0,0.0,0.0,0.0,0.0,0.0,0.0,0.0,0.0,0.0,0.0,3.0258,3.3228,3.4995,3.5562,3.4872,3.4559,3.4468,3.2566,2.9018,2.4365,2.1952,1.9331,0.0,0.0,0.0,0.0,0.0,0.0,0.0,0.0,0.0,0.0,0.0,0.0,0.0,0.0,0.0,0.0,0.0,0.0,0.0,0.0,0.0,0.0,0.0,0.0,0.0,0.0,0.0,0.0,0.0,0.0,0.0,0.0,0.0,0.0,0.0,0.0,0.0,0.0,1.2601,1.2959,1.2558,1.2308,1.1603,0.0,0.0,0.0,0.0,0.0,0.0,1.0064,1.0307,1.0565,1.0783,1.1105,1.0796,1.0016,1.0216,0.9665,0.829,0.8409,0.8192,0.7756,0.7756,0.7117,0.6156,0.706,0.6819,0.5778,0.4588,0.3469,0.2544,0.155,0.0452,-0.066,-0.132,-0.132,-0.096,0.0,0.0,0.0,0.0,0.0,0.0,0.0,0.0,0.0,0.0,0.0,0.0,0.0,0.0,2.6841,2.8861,2.7989,2.7319,0.0,0.0,0.0,0.0,0.0,0.0,0.0,0.0,0.0,3.4197,3.6363,3.7483,3.7662,3.762,3.7578,3.7504,3.6547,3.3739,2.9566,2.7271,2.513,2.3055,0.0,0.0,0.0,0.0,0.0,0.0,0.0,0.0,0.0,0.0,0.0,0.0,0.0,0.0,0.0,0.0,0.0,0.0,0.0,0.0,0.0,0.0,0.0,0.0,0.0,0.0,0.0,0.0,0.0,0.0,0.0,0.0,0.0,0.0,0.0,0.0,0.0,0.0,0.0,1.5562,1.57,0.0,0.0,0.0,0.0,1.1776,1.1115,1.0821,1.1124,1.1537,1.1725,1.1455,1.1621,1.1667,1.1798,1.1823,1.1052,0.9714,0.9723,0.8977,0.7611,0.7611,0.7607,0.7496,0.7438,0.737,0.7164,0.5891,0.5196,0.4824,0.366,0.2433,0.1432,0.1432,0.0754,-0.0076,0.0,0.0,0.0,0.0,0.0,0.0,0.0,0.0,0.0,0.0,0.0,0.0,0.0,2.8127,3.0199,3.0962,3.0915,3.0402,2.9382,0.0,0.0,0.0,0.0,0.0,0.0,0.0,3.4988,3.7185,3.9294,4.0325,4.0357,3.9512,3.906,3.9007,3.7866,3.6487,3.4859,3.1922,2.9497,2.7298,2.4463,2.1486,0.0,0.0,0.0,0.0,0.0,0.0,0.0,0.0,0.0,0.0,0.0,0.0,0.0,0.0,0.0,0.0,0.0,0.0,0.0,0.0,0.0,0.0,0.0,0.0,0.0,0.0,0.0,0.0,0.0,0.0,0.0,0.0,0.0,0.0,0.0,0.0,0.0,1.6771,1.7183,0.0,0.0,1.5209,1.4816,1.4321,1.4352,1.42,1.3889,1.402,1.4166,1.4259,1.4105,1.3731,1.2869,1.2714,1.1936,1.065,1.065,1.0265,0.9626,0.8897,0.8505,0.8296,0.7457,0.7031,0.6932,0.6398,0.5814,0.509,0.4491,0.3572,0.2547,0.2547,0.2315,0.1926,0.0,0.0,0.0,0.0,0.0,0.0,0.0,0.0,0.0,0.0,0.0,2.5844,2.7299,3.0244,3.2211,3.2469,3.2556,3.1926,3.0317,0.0,0.0,0.0,0.0,0.0,0.0,3.5381,3.7452,3.9363,4.1006,4.1823,4.1793,4.0909,4.0453,4.0453,3.9564,3.9166,3.8994,3.653,3.401,3.1485,2.9024,2.6557,2.3905,0.0,0.0,0.0,0.0,0.0,0.0,0.0,0.0,0.0,0.0,0.0,0.0,0.0,0.0,0.0,0.0,0.0,0.0,0.0,0.0,0.0,0.0,0.0,0.0,0.0,0.0,0.0,0.0,0.0,0.0,0.0,0.0,0.0,0.0,0.0,1.8801,1.8718,1.9586,1.9578,1.7968,1.8091,1.798,1.7172,1.7215,1.7056,1.6715,1.6395,1.6223,1.6306,1.567,1.4969,1.3927,1.375,1.2971,1.1701,1.1531,1.1201,1.0547,0.9685,0.9167,0.9011,0.8182,0.7784,0.7675,0.7694,0.7011,0.6015,0.5615,0.4446,0.3088,0.3088,0.2688,0.1979,0.0,0.0,0.0,0.0,0.0,0.0,0.0,0.0,0.0,0.0,2.5875,2.7186,2.9963,3.1593,3.2816,3.3544,3.2838,3.1691,3.0207,2.9384,0.0,0.0,0.0,0.0,3.5418,3.7766,3.9556,4.0804,4.1574,4.1905,4.1842,4.1842,4.1817,4.1835,4.1817,4.1775,4.175,4.0951,3.8853,3.5798,3.3816,3.1934,2.9952,0.0,0.0,0.0,0.0,0.0,0.0,0.0,0.0,0.0,0.0,0.0,0.0,0.0,0.0,0.0,0.0,0.0,0.0,0.0,0.0,0.0,0.0,0.0,0.0,0.0,0.0,0.0,0.0,0.0,0.0,0.0,0.0,0.0,2.0662,2.1728,2.2359,2.1807,2.3192,2.3277,2.0977,2.0426,2.028,2.0205,1.954,1.9137,1.9032,1.8208,1.7604,1.7153,1.6078,1.5322,1.495,1.5026,1.432,1.2861,1.2519,1.159,1.0267,0.9886,0.9786,0.9776,0.9695,0.9695,0.9671,0.9533,0.8899,0.7957,0.6933,0.5182,0.3169,0.3167,0.1855,0.0218,0.0,0.0,0.0,0.0,0.0,0.0,0.0,0.0,0.0,0.0,2.6331,2.8286,3.0996,3.2238,3.3198,3.3952,3.2192,3.0764,3.0202,0.0,0.0,0.0,0.0,0.0,3.9284,4.0018,4.1092,4.2585,4.281,4.2903,4.2883,4.2442,4.2422,4.2778,4.1769,4.1484,4.181,4.1551,4.0963,3.9882,3.6854,3.4526,3.2667,0.0,0.0,0.0,0.0,0.0,0.0,0.0,0.0,0.0,0.0,0.0,0.0,0.0,0.0,0.0,0.0,0.0,0.0,0.0,0.0,0.0,0.0,0.0,0.0,0.0,0.0,0.0,0.0,0.0,0.0,0.0,0.0,2.5794,2.3963,2.4175,2.4637,2.5079,2.522,2.4681,2.3348,2.2727,2.1758,2.0196,2.0137,1.9722,1.8493,1.8467,1.7955,1.6825,1.7021,1.6349,1.4643,1.5176,1.4818,1.3368,1.3291,1.2934,1.2339,1.1439,1.0908,1.074,0.9943,0.9463,0.9396,0.9336,0.9153,0.8832,0.7702,0.6389,0.519,0.5091,0.4131,0.2944,0.0,0.0,0.0,0.0,0.0,0.0,0.0,0.0,0.0,0.0,2.6877,2.8725,3.0619,3.1609,3.2315,3.2786,3.1175,2.9787,2.9013,0.0,0.0,0.0,0.0,3.7708,4.0296,4.0651,4.138,4.2512,4.2473,4.2753,4.329,4.2565,4.2594,4.3206,4.2387,4.1977,4.1903,4.2266,4.2014,4.1199,3.9533,3.822,3.6987,3.512,3.3925,3.3063,3.1522,3.0477,2.9713,2.8616,0.0,0.0,0.0,0.0,0.0,0.0,0.0,0.0,0.0,0.0,0.0,0.0,0.0,0.0,0.0,0.0,0.0,0.0,0.0,0.0,0.0,0.0,0.0,0.0,2.776,2.8894,2.8447,2.7573,2.7091,2.736,2.6572,2.5577,2.454,2.372,2.2747,2.1511,2.1278,2.0817,1.9809,1.948,1.8642,1.7259,1.7427,1.6596,1.4811,1.5449,1.5427,1.4612,1.4481,1.4321,1.4139,1.2993,1.2381,0.0,1.1164,1.0564,1.0415,1.0415,1.0058,0.0,0.0,0.0,0.0,0.0,0.4193,0.3936,0.0,0.0,0.0,0.0,0.0,0.0,0.0,0.0,0.0,0.0,0.0,2.8669,2.9595,3.0278,3.0713,3.079,2.9923,2.8902,0.0,0.0,0.0,3.5562,3.7395,3.8818,3.9855,4.0519,4.1049,4.1482,4.1414,4.2006,4.3147,4.237,4.2437,4.3221,4.3221,4.2831,4.2209,4.3083,4.2539,4.1195,4.1912,4.1995,4.1425,3.9122,3.8259,3.7933,3.5465,3.4267,3.3713,3.2971,0.0,0.0,0.0,0.0,0.0,0.0,0.0,0.0,0.0,0.0,0.0,0.0,0.0,0.0,0.0,0.0,0.0,0.0,0.0,0.0,0.0,0.0,0.0,0.0,3.0216,3.1152,3.2976,3.1266,2.9552,2.8946,2.7544,2.6146,2.4968,2.3981,2.3319,2.325,2.2443,2.1922,2.1824,0.0,0.0,0.0,0.0,1.6661,1.5245,1.5862,1.6127,1.5935,1.5659,1.5544,1.5414,1.4281,1.3705,1.3705,1.2781,1.2202,1.1959,1.1888,1.1121,0.9886,0.9066,0.7718,0.5937,0.3757,0.3391,0.0,0.0,0.0,0.0,0.0,0.0,0.0,0.0,0.0,0.0,2.7136,2.7631,2.8464,3.0141,2.9694,2.9524,3.011,2.8783,2.8759,0.0,0.0,3.5359,3.7642,3.9365,4.0688,4.1591,4.1769,4.1878,4.1966,4.1955,4.2089,4.2327,4.2172,4.2348,4.2833,4.2833,4.29,4.3121,4.3976,4.4143,4.3866,4.4008,4.2772,4.0842,4.0997,4.1016,4.0876,3.9888,3.9423,3.9193,3.8071,3.6815,3.553,3.4226,0.0,0.0,0.0,0.0,0.0,0.0,0.0,0.0,0.0,0.0,0.0,0.0,0.0,0.0,0.0,0.0,0.0,0.0,0.0,0.0,3.0817,3.257,3.3765,3.4174,3.2753,3.1302,3.0171,2.856,2.6829,2.5146,2.4411,2.3727,2.2849,2.2677,2.2252,2.1507,2.0829,0.0,1.784,1.8507,1.7872,1.5875,1.6817,1.6779,1.5642,0.0,0.0,1.4669,1.4122,1.3826,1.3826,1.296,1.2596,1.247,1.1785,1.1068,1.029,0.8877,0.801,0.7447,0.6149,0.5658,0.5642,0.0,0.0,0.0,0.0,0.0,0.0,0.0,0.0,0.0,0.0,2.6881,2.7508,2.8454,2.8067,2.7896,2.8274,2.7953,0.0,0.0,3.4449,3.6604,3.8847,4.0137,4.1034,4.1531,4.1472,4.1486,4.1545,4.1478,4.1902,4.2719,4.1863,4.2015,4.3034,4.2596,4.2521,4.2744,4.356,4.3827,4.3723,4.4064,4.3296,4.198,4.2358,4.2411,4.2162,4.1578,4.137,4.1254,4.0642,3.9941,3.9105,3.7814,3.6891,3.5722,0.0,0.0,0.0,0.0,0.0,0.0,0.0,0.0,0.0,0.0,0.0,0.0,0.0,0.0,2.8114,0.0,0.0,3.0762,3.2712,3.385,3.4472,3.4472,3.3561,3.2231,3.0543,2.8529,2.6778,2.5561,2.4432,2.3544,2.3041,2.2579,2.2077,2.1674,2.0948,1.991,1.8424,1.8754,1.8134,1.6493,1.7424,1.7417,1.6507,1.6318,1.6022,1.5552,1.4898,1.4607,1.4541,1.3693,1.3209,1.3014,1.2232,1.1432,1.0597,0.9742,0.8968,0.8091,0.7014,0.6634,0.646,0.0,0.0,0.0,0.0,0.0,0.0,0.0,0.0,0.0,0.0,2.6179,2.6622,2.6622,2.6622,2.6622,0.0,0.0,0.0,0.0,3.4837,3.6875,3.9245,3.9964,4.0429,4.0725,4.0452,4.0547,4.1001,4.0725,4.1415,4.2935,4.1533,4.1604,4.2914,4.2556,4.2373,4.2416,4.3333,4.3589,4.3435,4.3962,4.3967,4.363,4.3515,4.3277,4.2885,4.2226,4.1979,4.1955,4.2012,4.1917,4.1637,4.0682,4.0217,3.9417,3.6344,3.5627,0.0,0.0,0.0,0.0,0.0,0.0,0.0,0.0,0.0,3.2047,3.2215,3.2065,3.2195,3.3068,3.2627,3.2677,3.4397,3.4562,3.4427,3.4307,3.3604,3.2362,3.0425,2.8399,2.6818,2.5862,2.448,2.3586,2.3478,2.2682,2.215,2.2049,2.1224,2.0253,1.9353,1.9133,1.8507,1.7554,1.8086,1.8055,1.7506,1.7427,1.7022,1.6412,1.5601,1.5123,1.4988,1.4107,1.3433,1.305,1.2486,1.1686,1.0808,1.0808,1.0024,0.8751,0.7581,0.7136,0.7105,0.0,0.0,0.0,0.0,0.0,0.0,0.0,0.0,0.0,0.0,0.0,0.0,0.0,0.0,0.0,0.0,0.0,0.0,3.3086,3.4888,3.6645,3.8371,3.8526,3.8955,3.9733,3.8974,3.9365,4.0991,4.0218,4.0387,4.1443,4.1247,4.1199,4.1339,4.2778,4.337,4.3369,4.4928,4.5548,4.546,4.5562,4.5315,4.4855,4.4575,4.4186,4.3749,4.2904,4.2577,4.2548,4.2718,4.2316,4.1813,4.237,4.2104,4.1102,3.8695,0.0,3.6573,3.4384,3.3864,3.431,3.5927,3.5163,3.4975,0.0,0.0,3.6371,3.6966,3.6569,3.5929,3.5404,3.4638,3.4427,3.525,3.4876,3.4262,3.3694,3.2542,3.1198,2.9829,2.881,2.7437,2.5415,2.5001,2.4648,2.3941,2.3436,2.3022,2.2639,2.1663,2.0919,2.0434,2.0368,2.0061,1.941,1.9514,1.8951,1.775,1.7417,1.6626,1.5547,1.5051,1.4617,1.4196,1.3349,1.2586,1.1906,1.1825,1.1581,1.121,1.121,1.0963,1.0343,0.868,0.8049,0.7902,0.0,0.0,0.0,0.0,0.0,0.0,0.0,0.0,0.0,0.0,0.0,0.0,0.0,0.0,0.0,0.0,0.0,0.0,3.2346,3.451,3.6451,3.8048,3.8125,3.8556,3.9461,3.8675,3.9105,4.0877,4.0045,4.0359,4.1705,4.1198,4.1518,4.2499,4.2206,4.2927,4.4344,4.4499,4.5048,4.585,4.5815,4.5519,4.5017,4.4164,4.3613,4.323,4.2658,4.2449,0.0,0.0,4.1631,4.134,4.1303,4.0702,3.968,3.8122,3.7609,0.0,3.7337,3.664,0.0,0.0,3.869,3.8581,4.053,3.9742,3.869,3.9096,3.8189,3.7259,3.6959,3.5876,3.5175,0.0,3.4921,3.4247,3.3589,3.2362,3.0911,2.922,2.8699,2.781,2.605,2.516,2.4393,2.367,2.3098,2.2533,2.2038,2.115,2.0546,2.0338,1.9901,1.9493,1.9221,1.9282,1.8868,1.8099,1.7622,1.6807,1.5665,1.5192,1.463,1.4077,1.3746,1.3058,1.2199,1.2574,1.228,1.1601,1.1601,1.1505,1.1183,0.9686,0.9119,0.8991,0.0,0.0,0.0,0.0,0.0,0.0,0.0,0.0,0.0,0.0,0.0,0.0,0.0,0.0,0.0,0.0,0.0,0.0,0.0,3.3219,3.5167,3.6761,3.7279,3.7969,3.8878,3.8407,3.9002,4.077,3.9943,4.0299,4.1743,4.1093,4.1656,4.3139,4.212,4.2877,4.4919,4.4444,4.4874,4.589,4.5832,4.5384,4.4636,4.3426,4.2626,4.2087,4.1751,4.1497,0.0,0.0,4.012,3.9983,3.9309,3.8915,3.851,3.7486,3.7413,3.7781,3.8563,0.0,0.0,4.0455,4.1045,4.1203,4.1648,4.1073,4.0469,4.0639,3.9454,3.8334,3.7911,3.6707,0.0,3.5504,3.4771,3.4038,3.3559,3.2048,3.035,2.8729,2.8412,2.7854,2.6606,2.542,2.4391,2.3755,2.2895,2.2268,2.2063,2.1094,2.064,2.0787,2.0029,1.9563,1.9425,1.9218,1.8851,1.8181,1.7628,1.6813,1.569,1.5047,1.4399,1.3789,1.3789,1.3355,1.2661,1.3128,1.2826,1.208,1.208,1.208,1.1981,1.0771,1.021,0.9961,0.0,0.0,0.0,0.0,0.0,0.0,0.0,0.0,0.0,0.0,0.0,0.0,0.0,0.0,0.0,0.0,0.0,0.0,0.0,3.0698,3.2248,3.3862,3.5484,3.6761,3.7637,3.7894,3.8877,4.0703,3.9824,3.9898,4.084,4.0821,4.1288,4.2174,4.2961,4.3877,4.4844,4.5544,4.5851,4.589,4.5832,4.5054,4.3802,4.2598,4.1424,4.044,4.0075,0.0,0.0,0.0,3.7617,3.7459,3.6688,3.7477,0.0,3.7723,3.7308,0.0,0.0,0.0,3.9221,4.1101,4.1767,4.228,4.3472,4.2856,4.2016,4.205,4.0948,3.9542,3.8065,3.7144,3.6322,3.5619,3.4397,3.3514,3.3499,3.127,2.9362,2.8494,2.7971,2.7321,0.0,2.5854,2.5142,2.4391,2.3165,2.2671,2.3289,2.2159,2.1746,2.2309,2.1733,2.1174,2.0636,2.0072,1.915,1.7926,1.7355,1.6483,1.5304,1.4307,1.3498,1.292,1.292,1.291,1.29,1.29,1.2891,1.2881,1.2881,1.2881,1.2774,1.203,1.1316,1.0661,0.0,0.0,0.0,0.0,0.0,0.0,0.0,0.0,0.0,0.0,0.0,0.0,0.0,0.0,0.0,0.0,0.0,0.0,0.0,2.974,3.1259,3.2858,3.3862,3.5268,3.7239,3.6824,3.8079,4.1085,4.026,4.07,4.2337,4.2337,4.2808,4.366,4.2826,4.3653,4.5566,4.4039,4.4055,4.5043,4.4339,4.3511,4.2541,4.1071,4.0001,3.9047,0.0,0.0,0.0,3.5514,3.5037,3.5092,3.5349,3.5092,3.4734,3.5177,3.6193,3.7515,0.0,0.0,4.1454,4.3479,4.3664,4.342,4.379,4.2846,4.1778,4.1412,3.9091,3.6872,3.5959,3.4682,3.3701,3.3562,3.3499,3.3499,3.3499,3.1988,3.0261,2.8719,2.8345,0.0,0.0,0.0,0.0,2.4633,2.3371,2.2491,2.2269,2.1889,2.174,2.1939,2.0993,2.0432,2.0237,1.9253,1.8497,1.8105,1.7087,1.6255,1.5475,1.4719,1.4294,1.4071,1.4071,1.3884,1.3515,1.3515,1.3238,1.2881,1.2881,1.2881,1.2881,1.2608,1.2184,1.1595,0.0,0.0,0.0,0.0,0.0,0.0,0.0,0.0,0.0,0.0,0.0,0.0,0.0,0.0,0.0,0.0,0.0,0.0,0.0,0.0,2.955,3.0875,3.2166,3.3614,3.5211,3.5409,3.6649,3.8994,3.8842,3.9582,4.1138,4.1533,4.2375,4.349,4.2447,4.3161,4.5011,4.2947,4.2561,4.3233,4.2131,4.111,4.0165,3.878,3.7877,0.0,0.0,0.0,0.0,3.3403,3.3128,3.3393,3.3405,3.3383,3.3603,3.4899,3.6443,3.8321,4.0802,4.1971,4.2902,4.4708,4.4683,4.4158,4.3976,4.2847,4.1637,4.0946,3.8257,3.5729,3.4885,3.3435,3.2222,3.1788,3.191,3.2168,3.2392,3.13,3.0067,2.9015,2.891,0.0,0.0,0.0,0.0,2.5062,2.3818,2.2879,2.2423,2.1736,2.15,2.1671,2.0566,1.9854,1.9634,1.8668,1.7974,1.7589,1.6794,1.6146,1.5588,1.5186,1.4926,1.4698,1.4698,1.4468,1.4097,1.4097,1.3789,1.3238,1.3238,1.3104,1.2881,1.2881,1.2705,1.2329,0.0,0.0,0.0,0.0,0.0,0.0,0.0,0.0,0.0,0.0,0.0,0.0,0.0,0.0,0.0,0.0,0.0,0.0,0.0,0.0,0.0,2.7997,3.0387,3.1734,3.1806,3.3634,3.4641,3.4793,3.5815,3.6759,3.7634,3.8735,4.0065,4.1601,4.1693,4.2246,4.307,4.207,4.1281,4.0552,3.9238,3.8023,3.6895,3.5923,0.0,0.0,0.0,0.0,0.0,0.0,0.0,0.0,0.0,3.2799,3.5301,3.6892,3.8135,3.9567,4.2049,4.2965,4.3517,4.4758,4.4849,4.4482,4.402,4.2777,4.1492,4.0666,3.8408,3.6097,0.0,0.0,3.199,3.0618,3.0137,3.0177,3.0679,2.9687,2.9015,0.0,0.0,0.0,0.0,0.0,0.0,2.5753,0.0,2.3652,2.3581,2.1898,2.117,2.1715,2.0496,1.9564,1.9027,1.8416,1.7549,1.6522,1.6522,1.6194,1.5632,1.5632,1.532,1.4789,1.4789,1.4744,1.4744,1.4744,1.4376,1.3862,1.3862,1.3457,1.292,1.29,1.288,1.2696,0.0,0.0,0.0,0.0,0.0,0.0,0.0,0.0,0.0,0.0,0.0,0.0,0.0,0.0,0.0,0.0,0.0,0.0,0.0,0.0,0.0,0.0,0.0,0.0,0.0,0.0,0.0,3.4735,3.5002,3.608,3.7909,3.8204,3.8584,3.902,3.8354,3.8636,3.9471,3.7644,3.718,3.7588,0.0,3.5866,3.582,0.0,0.0,0.0,0.0,0.0,0.0,0.0,0.0,0.0,0.0,3.6992,3.8804,3.9242,4.0615,4.2155,4.2825,4.3955,4.4919,4.4759,4.4657,4.4269,4.3032,4.1812,4.0453,3.8543,3.5642,3.2892,0.0,0.0,0.0,3.1229,3.3314,0.0,3.4455,3.3248,0.0,0.0,0.0,2.9184,2.8332,2.7638,0.0,0.0,2.4861,2.3643,2.361,2.2727,2.2302,2.2443,2.0775,1.9613,1.9083,1.7669,1.6777,1.6522,1.6522,1.6423,1.6281,1.6281,1.6194,1.6064,1.6064,1.5788,1.5365,1.5365,1.5005,1.4468,1.4468,1.4107,1.3511,1.316,1.2559,1.1836,0.0,0.0,0.0,0.0,0.0,0.0,0.0,0.0,0.0,0.0,0.0,0.0,0.0,0.0,0.0,0.0,0.0,0.0,0.0,0.0,0.0,0.0,0.0,0.0,0.0,0.0,0.0,0.0,0.0,0.0,3.459,3.5055,3.5495,3.5842,3.5261,3.5519,3.6302,3.4625,0.0,0.0,0.0,0.0,0.0,0.0,0.0,0.0,0.0,0.0,0.0,0.0,0.0,3.749,3.8231,3.9299,4.0419,4.1185,0.0,4.2701,4.3431,4.3939,4.4193,4.3817,4.3511,4.2754,4.0677,3.9679,3.8415,3.5576,3.3011,0.0,0.0,0.0,0.0,0.0,0.0,0.0,3.4422,3.345,3.2431,0.0,3.0757,0.0,2.9391,2.8217,2.7344,0.0,2.5129,2.3876,2.3553,2.2742,2.2113,2.1829,2.0513,1.9556,1.9004,1.7787,1.7188,1.7188,1.6951,1.6837,1.6837,1.6595,1.6522,1.6522,0.0,1.6293,1.6008,1.6008,1.5644,1.5096,1.5096,1.4744,1.4157,1.3887,1.3309,1.2505,0.0,0.0,0.0,0.0,0.0,0.0,0.0,0.0,0.0,0.0,0.0,0.0,0.0,0.0,0.0,0.0,0.0,0.0,0.0,0.0,0.0,0.0,0.0,0.0,0.0,0.0,0.0,0.0,0.0,0.0,0.0,0.0,0.0,0.0,0.0,0.0,0.0,0.0,0.0,0.0,0.0,0.0,0.0,0.0,0.0,0.0,0.0,0.0,0.0,0.0,3.9603,3.8741,4.0195,4.0895,4.145,4.2854,4.2626,4.2225,4.3551,4.3044,4.2117,4.2074,4.1594,4.0391,3.7663,3.6952,3.5878,3.2301,0.0,2.9702,2.8839,0.0,2.9277,2.9632,0.0,3.2366,3.3129,3.2547,3.2128,3.2465,3.1839,3.1085,3.0346,2.8645,2.7337,2.6734,2.5354,2.418,2.3365,2.2288,2.135,2.0602,1.9916,1.9369,1.8893,1.838,1.8106,1.8106,1.7544,1.7312,1.7271,1.6752,1.6522,1.6522,0.0,0.0,1.6522,1.6522,1.6194,1.572,1.572,1.5365,1.4812,1.4688,1.4283,1.3661,0.0,0.0,0.0,0.0,0.0,0.0,0.0,0.0,0.0,0.0,0.0,0.0,0.0,0.0,0.0,0.0,0.0,0.0,0.0,0.0,0.0,0.0,0.0,0.0,0.0,0.0,0.0,0.0,0.0,0.0,0.0,0.0,0.0,0.0,0.0,0.0,0.0,0.0,0.0,0.0,0.0,0.0,0.0,0.0,0.0,0.0,0.0,0.0,0.0,0.0,4.2823,4.3205,4.3476,4.4107,4.4624,4.4201,4.3366,4.2451,4.2011,4.0829,3.9627,3.9295,3.8847,3.7826,3.5141,3.4677,0.0,0.0,0.0,2.8755,2.7351,2.8142,0.0,3.1459,0.0,0.0,0.0,0.0,3.374,0.0,0.0,0.0,0.0,0.0,0.0,0.0,0.0,0.0,2.2873,2.2119,2.1141,1.9899,1.9339,1.9006,1.8893,1.838,1.8106,1.8106,1.7544,1.7312,1.7271,1.6752,1.6522,1.6522,0.0,0.0,1.6522,1.6522,1.6423,1.6324,1.6324,1.5964,1.5348,1.4529,1.3824,1.3178,0.0,0.0,0.0,0.0,0.0,0.0,0.0,0.0,0.0,0.0,0.0,0.0,0.0,0.0,0.0,0.0,0.0,0.0,0.0,0.0,0.0,0.0,0.0,0.0,0.0,0.0,0.0,0.0,0.0,0.0,0.0,0.0,0.0,0.0,0.0,0.0,0.0,0.0,0.0,0.0,0.0,0.0,0.0,0.0,0.0,0.0,0.0,0.0,0.0,0.0,4.1628,4.2737,4.392,4.4496,4.4461,4.3158,4.201,4.0908,3.9829,3.8321,3.6977,3.6539,3.6121,3.4977,3.1462,0.0,0.0,0.0,0.0,2.7571,2.6826,0.0,0.0,0.0,0.0,0.0,0.0,0.0,0.0,0.0,0.0,0.0,0.0,0.0,0.0,0.0,0.0,0.0,2.3001,2.1516,2.0348,1.9705,1.9442,1.9332,1.9332,1.9043,1.893,1.893,1.838,1.7987,1.7706,1.7146,1.6752,1.6522,1.6522,0.0,1.6522,1.6522,1.6522,1.6522,1.6522,1.6337,1.5997,1.52,1.4562,1.3935,0.0,0.0,0.0,0.0,0.0,0.0,0.0,0.0,0.0,0.0,0.0,0.0,0.0,0.0,0.0,0.0,0.0,0.0,0.0,0.0,0.0,0.0,0.0,0.0,0.0,0.0,0.0,0.0,0.0,0.0,0.0,0.0,0.0,0.0,0.0,0.0,0.0,0.0,0.0,0.0,0.0,0.0,0.0,0.0,0.0,0.0,0.0,0.0,0.0,0.0,3.9155,3.9924,4.203,4.2947,4.2881,4.0935,3.9697,3.8619,3.7214,3.5586,3.4169,3.3653,3.3266,3.2,2.8163,2.8817,0.0,0.0,2.5659,2.6691,2.6691,0.0,0.0,0.0,0.0,0.0,0.0,0.0,0.0,0.0,0.0,0.0,0.0,0.0,0.0,0.0,0.0,0.0,0.0,2.0996,1.9874,1.9726,1.9782,1.9782,1.969,1.969,1.969,1.969,1.9169,1.8688,1.8263,1.7706,1.7229,1.6837,1.6837,0.0,0.0,1.668,1.6595,1.6509,1.6384,1.6346,1.6271,1.5718,1.5205,1.4613,0.0,0.0,0.0,0.0,0.0,0.0,0.0,0.0,0.0,0.0,0.0,0.0,0.0,0.0,0.0,0.0,0.0,0.0,0.0,0.0,0.0,0.0,0.0,0.0,0.0,0.0,0.0,0.0,0.0,0.0,0.0,0.0,0.0,0.0,0.0,0.0,0.0,0.0,0.0,0.0,0.0,0.0,0.0,0.0,0.0,0.0,0.0,0.0,0.0,0.0,0.0,3.5509,3.6963,3.9127,4.0636,3.784,0.0,0.0,3.4209,3.2511,3.1133,3.0566,3.014,2.9146,2.6557,0.0,0.0,2.5038,2.5659,2.6691,2.6691,2.6268,2.6607,0.0,0.0,2.9313,0.0,0.0,0.0,0.0,0.0,0.0,0.0,0.0,0.0,0.0,0.0,0.0,0.0,2.1108,2.0514,1.9726,2.0054,2.007,1.9711,1.969,1.969,1.969,1.9169,1.8855,1.8817,1.8263,1.7987,1.7947,0.0,0.0,0.0,1.7229,1.6951,1.6471,1.5969,1.5768,1.5706,1.5153,1.4639,1.4223,0.0,0.0,0.0,0.0,0.0,0.0,0.0,0.0,0.0,0.0,0.0,0.0,0.0,0.0,0.0,0.0,0.0,0.0,0.0,0.0,0.0,0.0,0.0,0.0,0.0,0.0,0.0,0.0,0.0,0.0,0.0,0.0,0.0,0.0,0.0,0.0,0.0,0.0,0.0,0.0,0.0,0.0,0.0,0.0,0.0,0.0,0.0,0.0,0.0,0.0,0.0,0.0,3.1513,3.2954,0.0,0.0,3.459,3.4243,3.237,3.1743,3.1292,3.0014,2.8979,2.7756,2.592,0.0,2.6383,2.4513,2.5496,2.6691,2.6691,2.6454,2.6556,2.7469,0.0,0.0,0.0,0.0,0.0,0.0,0.0,0.0,0.0,0.0,0.0,0.0,0.0,0.0,0.0,2.1167,2.0829,2.0499,2.0632,2.0532,2.007,2.0054,1.9929,1.969,1.9479,1.9207,1.8893,1.8688,1.8419,1.8106,0.0,0.0,0.0,1.7312,1.6993,1.6497,1.6271,1.5982,1.563,1.5117,1.4563,1.4072,0.0,0.0,0.0,0.0,0.0,0.0,0.0,0.0,0.0,0.0,0.0,0.0,0.0,0.0,0.0,0.0,0.0,0.0,0.0,0.0,0.0,0.0,0.0,0.0,0.0,0.0,0.0,0.0,0.0,0.0,0.0,0.0,0.0,0.0,0.0,0.0,0.0,0.0,0.0,0.0,0.0,0.0,0.0,0.0,0.0,0.0,0.0,0.0,0.0,0.0,0.0,0.0,0.0,0.0,0.0,0.0,3.1794,3.216,3.0286,3.0396,3.0699,2.9301,2.7915,2.6642,0.0,0.0,2.5261,2.4066,2.5063,2.6185,2.6336,2.637,2.6437,2.6657,0.0,2.7757,0.0,0.0,0.0,0.0,0.0,0.0,0.0,0.0,0.0,0.0,0.0,0.0,0.0,2.1554,2.126,2.1007,2.1134,2.0943,2.0516,2.0516,2.0296,1.9874,1.9874,1.9624,1.9132,1.9132,1.8855,1.8341,0.0,0.0,0.0,1.7626,1.7353,1.674,1.6574,1.6166,1.5631,1.5093,1.4462,1.3833,0.0,0.0,0.0,0.0,0.0,0.0,0.0,0.0,0.0,0.0,0.0,0.0,0.0,0.0,0.0,0.0,0.0,0.0,0.0,0.0,0.0,0.0,0.0,0.0,0.0,0.0,0.0,2.3407,2.2543,0.0,0.0,0.0,0.0,0.0,0.0,0.0,0.0,0.0,0.0,0.0,0.0,0.0,0.0,0.0,0.0,0.0,0.0,0.0,0.0,0.0,0.0,0.0,0.0,2.6216,2.5449,0.0,2.813,2.9441,2.772,2.7881,2.8383,2.7775,2.6587,2.5574,0.0,0.0,2.4265,2.3797,2.4312,2.4977,2.5511,2.5625,2.5862,2.6573,2.6708,0.0,0.0,0.0,0.0,0.0,0.0,0.0,0.0,0.0,0.0,0.0,0.0,0.0,0.0,0.0,2.1886,2.1039,2.1399,2.1399,2.0991,2.0991,2.0764,2.028,2.028,2.0089,1.969,1.969,1.9406,0.0,0.0,0.0,0.0,1.8458,1.8263,1.7259,1.6718,1.6175,1.5634,1.5095,1.4186,1.3361,0.0,0.0,0.0,0.0,0.0,0.0,0.0,0.0,0.0,0.0,0.0,0.0,0.0,0.0,0.0,0.0,0.0,0.0,0.0,0.0,0.0,0.0,0.0,0.0,0.0,0.0,0.0,2.0947,1.9516,1.8422,1.7657,0.0,0.0,0.0,0.0,0.0,0.0,0.0,0.0,0.0,0.0,0.0,0.0,0.0,0.0,0.0,0.0,0.0,0.0,0.0,0.0,0.0,0.0,0.0,0.0,2.4369,2.5821,2.7378,2.6862,2.7281,2.7705,2.7082,2.5555,2.4222,2.4172,0.0,2.2861,2.2295,2.3382,2.4541,2.5095,2.5179,2.5514,2.6539,2.6691,0.0,0.0,0.0,0.0,0.0,0.0,0.0,0.0,0.0,0.0,0.0,0.0,0.0,0.0,0.0,2.218,2.1886,2.2003,2.1869,2.1399,2.091,2.0557,2.0299,1.9783,1.9592,1.969,1.969,0.0,0.0,0.0,0.0,0.0,1.812,1.756,1.6625,1.6819,1.6295,1.5378,1.4931,1.4284,1.3667,0.0,0.0,0.0,0.0,0.0,0.0,0.0,0.0,0.0,0.0,0.0,0.0,0.0,0.0,0.0,0.0,0.0,0.0,0.0,0.0,0.0,0.0,0.0,0.0,0.0,0.0,2.0257,1.9284,1.7717,1.6569,1.5745,1.4869,1.4176,0.0,0.0,0.0,0.0,0.0,0.0,0.0,0.0,0.0,2.5668,0.0,0.0,0.0,0.0,0.0,0.0,0.0,0.0,0.0,0.0,0.0,0.0,0.0,2.4163,2.508,0.0,2.624,2.6749,2.6309,2.4896,0.0,0.0,0.0,2.2501,2.2493,2.3163,2.4055,2.5045,2.4996,2.5229,2.6488,2.6691,0.0,0.0,0.0,0.0,0.0,0.0,0.0,0.0,0.0,0.0,0.0,0.0,0.0,0.0,0.0,2.231,2.231,2.231,2.2163,2.1869,2.1404,2.0901,2.0369,2.0034,1.977,1.9511,1.9386,0.0,0.0,0.0,0.0,0.0,1.7784,1.7298,1.6566,1.69,1.6431,1.5533,1.5094,1.4492,1.3868,0.0,0.0,0.0,0.0,0.0,0.0,0.0,0.0,0.0,0.0,0.0,0.0,0.0,0.0,0.0,0.0,0.0,0.0,0.0,0.0,0.0,0.0,0.0,0.0,0.0,1.9574,1.8633,1.8085,1.6754,1.5509,1.4334,1.3889,1.3391,1.2679,1.1624,1.1613,1.2672,1.5898,1.7788,1.8908,2.2681,2.4321,0.0,0.0,0.0,0.0,0.0,0.0,0.0,0.0,0.0,0.0,0.0,0.0,0.0,0.0,0.0,0.0,0.0,2.4817,0.0,0.0,0.0,0.0,0.0,0.0,0.0,2.3872,2.3542,2.3584,2.5229,2.5002,2.5017,2.6454,2.6691,0.0,0.0,0.0,0.0,0.0,0.0,0.0,0.0,0.0,0.0,0.0,0.0,0.0,0.0,0.0,0.0,2.231,2.231,2.231,2.231,2.226,2.1642,2.0467,2.0729,2.0273,1.9131,1.8815,0.0,0.0,0.0,0.0,0.0,1.7539,1.7375,1.6832,1.6866,1.656,1.5998,1.5463,1.4721,1.4,0.0,0.0,0.0,0.0,0.0,0.0,0.0,0.0,0.0,0.0,0.0,0.0,0.0,0.0,0.0,0.0,0.0,0.0,0.0,0.0,0.0,0.0,0.0,0.0,0.0,1.8189,1.7033,1.5032,1.4094,1.2712,1.0915,1.0335,1.0089,1.0142,0.9888,1.0912,1.3022,1.5348,1.7413,1.933,2.1868,2.3769,0.0,0.0,0.0,0.0,2.5106,2.4582,0.0,0.0,0.0,0.0,0.0,0.0,0.0,0.0,2.3864,2.4088,2.3829,0.0,2.3475,2.3954,2.3475,2.3047,0.0,0.0,0.0,0.0,0.0,2.4168,2.4994,2.4996,2.528,2.6505,2.6691,0.0,0.0,0.0,0.0,0.0,0.0,0.0,0.0,0.0,0.0,0.0,0.0,0.0,0.0,0.0,0.0,2.231,2.231,2.231,2.231,2.1735,2.1011,2.0116,1.989,1.9308,1.8423,1.8361,0.0,0.0,0.0,0.0,1.7,1.7497,1.7111,1.6268,1.6605,1.6379,1.5802,1.532,1.5003,1.4783,0.0,0.0,0.0,0.0,0.0,0.0,0.0,0.0,0.0,0.0,0.0,0.0,0.0,0.0,0.0,0.0,0.0,0.0,0.0,0.0,0.0,0.0,0.0,0.0,0.0,1.6263,1.5075,1.3901,1.2248,1.0857,0.9752,0.8844,0.8742,0.9338,0.9722,1.1031,1.3139,1.5147,1.6978,1.876,2.1357,0.0,0.0,0.0,0.0,0.0,2.533,2.4836,0.0,2.5046,2.4462,2.367,0.0,0.0,0.0,0.0,2.4343,2.4567,2.4537,2.4283,2.4103,2.4448,2.4474,2.446,2.4724,0.0,0.0,0.0,0.0,2.4746,2.563,2.5782,0.0,0.0,0.0,0.0,0.0,0.0,0.0,0.0,0.0,0.0,0.0,0.0,0.0,0.0,0.0,0.0,0.0,0.0,0.0,0.0,2.231,2.231,2.231,2.1566,2.0787,1.9991,1.9597,1.8984,1.8226,1.8084,0.0,0.0,0.0,0.0,1.7065,1.6906,1.6455,1.5931,1.6204,1.6084,1.577,1.5507,1.5285,1.5074,0.0,0.0,0.0,0.0,0.0,0.0,0.0,0.0,0.0,0.0,0.0,0.0,0.0,0.0,0.0,0.0,0.0,0.0,0.0,0.0,0.0,0.0,0.0,0.0,1.672,1.4757,1.3669,1.3481,1.1333,1.0053,0.9511,0.8499,0.842,0.9134,1.0249,1.1556,1.3139,1.521,1.678,1.8109,2.11,0.0,0.0,0.0,0.0,0.0,0.0,0.0,0.0,2.5016,2.4492,2.3774,2.3951,0.0,0.0,0.0,0.0,0.0,2.5561,2.6,2.6242,2.5861,2.6077,2.6435,2.6502,0.0,0.0,0.0,0.0,0.0,0.0,0.0,0.0,0.0,0.0,0.0,0.0,0.0,0.0,0.0,0.0,0.0,0.0,0.0,0.0,0.0,0.0,0.0,0.0,0.0,0.0,0.0,2.231,2.226,2.2141,2.1498,2.0762,1.9908,1.9515,1.891,1.8151,1.7856,0.0,0.0,0.0,0.0,1.7093,1.6346,1.5946,1.5799,1.5799,1.5799,1.5799,1.5799,1.5551,1.5195,0.0,0.0,0.0,0.0,0.0,0.0,0.0,0.0,0.0,0.0,0.0,0.0,0.0,0.0,0.0,0.0,0.0,0.0,0.0,0.0,0.0,0.0,0.0,1.7509,1.5143,1.582,1.4874,1.1997,1.2335,1.1043,0.8292,0.8071,0.8091,0.8275,1.0309,1.1873,1.3122,1.5409,1.7422,1.928,2.1073,0.0,0.0,0.0,0.0,0.0,0.0,0.0,0.0,2.6752,2.5944,2.4597,2.5633,0.0,0.0,0.0,0.0,0.0,2.6138,2.7926,2.9199,2.6914,2.6361,2.6514,0.0,0.0,0.0,0.0,0.0,0.0,0.0,0.0,0.0,0.0,0.0,0.0,0.0,0.0,0.0,0.0,0.0,0.0,0.0,0.0,0.0,0.0,0.0,0.0,0.0,0.0,0.0,2.231,2.231,2.2006,2.1363,2.1271,2.0639,1.9571,1.9177,1.8442,1.7461,1.7412,1.7437,0.0,0.0,1.7168,1.6487,1.691,1.6571,1.5799,1.5799,1.5799,1.5799,1.5799,1.5741,1.5697,0.0,0.0,0.0,0.0,0.0,0.0,0.0,0.0,0.0,0.0,0.0,0.0,0.0,0.0,0.0,0.0,0.0,0.0,0.0,0.0,0.0,0.0,2.079,1.9071,1.6079,1.5553,1.4326,1.2295,1.1461,1.008,0.822,0.8346,0.8546,0.8801,1.0739,1.2118,1.3122,1.5408,1.7413,1.9131,0.0,0.0,0.0,0.0,0.0,0.0,0.0,0.0,0.0,0.0,2.5304,2.4609,2.5114,0.0,0.0,0.0,0.0,0.0,2.6677,2.8291,2.9646,2.8758,2.9412,3.0177,0.0,0.0,0.0,0.0,0.0,0.0,0.0,0.0,0.0,0.0,0.0,0.0,0.0,0.0,0.0,0.0,0.0,0.0,0.0,0.0,0.0,0.0,0.0,0.0,0.0,0.0,0.0,0.0,2.1904,2.1532,2.1204,2.0391,1.9706,1.9186,1.8586,1.8266,1.8141,1.7756,1.779,1.8157,0.0,1.7284,1.6841,1.6792,1.6496,1.6067,1.5885,1.5799,1.5799,1.5799,1.5799,1.5799,0.0,0.0,0.0,0.0,0.0,0.0,0.0,0.0,0.0,0.0,0.0,0.0,0.0,0.0,0.0,0.0,0.0,0.0,0.0,0.0,2.1736,2.1856,2.1893,2.0442,1.7219,1.5818,1.4403,1.2904,1.1233,0.9863,0.8741,0.8938,0.9158,0.9491,1.1129,1.2321,1.3247,1.5556,1.7379,1.8979,0.0,0.0,0.0,0.0,0.0,0.0,0.0,0.0,0.0,0.0,0.0,0.0,0.0,0.0,0.0,2.6128,2.6328,2.649,2.7163,2.8459,2.9701,3.0129,0.0,0.0,0.0,0.0,0.0,0.0,0.0,0.0,0.0,0.0,0.0,0.0,0.0,0.0,0.0,0.0,0.0,0.0,0.0,0.0,0.0,0.0,0.0,0.0,0.0,0.0,0.0,0.0,0.0,0.0,2.1688,2.1278,2.0906,1.9925,1.9249,1.8894,1.8335,1.8268,1.8623,1.8251,1.8268,1.8606,1.7759,1.7368,1.7272,1.6747,1.6501,1.6367,1.6067,1.5885,1.5799,1.5799,1.5799,1.5799,0.0,0.0,0.0,0.0,0.0,0.0,0.0,0.0,0.0,0.0,0.0,0.0,0.0,0.0,0.0,0.0,0.0,0.0,0.0,0.0,2.1683,2.1688,2.2317,2.0959,1.7473,1.8149,1.6781,1.3183,1.3399,1.2209,0.9719,0.9739,0.9687,0.9753,1.1437,1.2606,1.3496,1.5879,1.7879,1.9598,2.1102,0.0,0.0,0.0,0.0,0.0,0.0,0.0,0.0,0.0,0.0,0.0,0.0,0.0,2.6049,2.6537,2.6657,2.6826,2.7549,2.9104,3.0448,3.018,2.9703,0.0,3.2706,3.1493,0.0,0.0,0.0,0.0,0.0,0.0,0.0,0.0,0.0,0.0,0.0,0.0,0.0,0.0,0.0,0.0,0.0,0.0,0.0,0.0,0.0,0.0,0.0,0.0,0.0,0.0,0.0,2.1549,2.0086,2.072,2.034,1.8894,1.8843,1.8488,1.7912,1.8538,1.8488,1.7879,1.7805,1.7572,1.7296,1.7248,1.7052,1.6738,1.6394,1.6067,1.5799,1.5799,1.5799,1.5799,0.0,0.0,0.0,0.0,0.0,0.0,0.0,0.0,0.0,0.0,0.0,0.0,0.0,0.0,0.0,0.0,0.0,0.0,0.0,0.0,2.0997,2.2253,2.2543,2.1699,1.9602,1.8861,1.7192,1.4545,1.346,1.2261,1.0897,1.1012,1.1019,1.1108,1.2073,1.2968,1.3988,1.6045,1.7831,1.9441,2.1055,2.2239,0.0,0.0,0.0,0.0,0.0,0.0,0.0,0.0,2.5846,2.6113,2.6299,2.6372,2.647,2.6657,2.6691,2.6759,2.7046,2.8511,2.9954,2.9781,2.9729,0.0,0.0,3.2995,3.2364,0.0,0.0,0.0,0.0,0.0,0.0,0.0,0.0,0.0,0.0,0.0,0.0,0.0,0.0,0.0,0.0,0.0,0.0,0.0,0.0,0.0,0.0,0.0,0.0,0.0,0.0,2.125,2.0002,2.0289,1.9925,1.8894,1.8894,1.8995,1.914,1.8521,1.8318,1.8454,1.8014,1.7726,1.7595,1.7392,1.7224,1.7076,1.6738,1.6528,1.6421,1.6421,1.6301,1.6136,0.0,0.0,0.0,0.0,0.0,0.0,0.0,0.0,0.0,0.0,0.0,0.0,0.0,0.0,0.0,0.0,0.0,0.0,0.0,0.0,2.0079,2.1697,2.1932,2.1653,2.0913,1.9304,1.7564,1.5727,1.379,1.2636,1.2224,1.2097,1.2232,1.2492,1.2837,1.3561,1.4522,1.6305,1.7923,1.9333,2.105,2.21,0.0,0.0,0.0,0.0,0.0,0.0,0.0,0.0,2.5799,2.6177,2.5961,2.6101,2.6353,2.6353,2.6638,2.6957,2.7196,2.8395,2.9614,2.9717,0.0,0.0,3.3336,3.3543,3.3412,0.0,0.0,0.0,0.0,0.0,0.0,0.0,0.0,0.0,0.0,0.0,0.0,0.0,0.0,0.0,0.0,0.0,0.0,0.0,0.0,0.0,0.0,0.0,0.0,0.0,0.0,0.0,2.0399,2.0382,2.0128,1.9604,1.913,1.9046,1.9275,1.8504,1.8302,1.8521,1.8031,1.7811,1.7789,1.7549,1.7392,1.7272,1.7052,1.6892,1.6789,1.6789,1.6659,1.6474,0.0,0.0,0.0,0.0,0.0,0.0,0.0,0.0,0.0,0.0,0.0,0.0,0.0,0.0,0.0,0.0,0.0,0.0,0.0,1.7816,1.8911,1.9647,2.0241,2.0628,2.0777,1.9664,1.8195,1.6407,1.4653,1.374,1.3597,1.292,1.3022,1.3673,1.3673,1.4171,1.5105,1.6786,1.8158,1.9333,2.1,2.21,2.2815,0.0,0.0,0.0,0.0,0.0,0.0,0.0,2.6332,2.6573,2.5845,2.5625,2.5625,2.5609,2.6453,2.7552,2.8285,2.9042,2.9719,0.0,0.0,0.0,3.273,3.2676,0.0,0.0,0.0,0.0,0.0,0.0,0.0,0.0,0.0,0.0,0.0,0.0,0.0,0.0,0.0,0.0,0.0,0.0,0.0,0.0,0.0,0.0,0.0,0.0,0.0,0.0,0.0,0.0,2.1221,2.1204,2.1204,2.117,1.9646,1.8521,1.7845,1.8555,1.8488,1.7811,1.7811,1.7811,1.7811,1.7811,1.7595,1.7304,1.7304,1.7101,1.6815,1.6815,1.6815,1.6815,0.0,0.0,0.0,0.0,0.0,0.0,0.0,0.0,0.0,0.0,0.0,0.0,0.0,0.0,0.0,0.0,0.0,0.0,0.0,1.6494,1.7198,1.8406,1.912,1.9654,2.001,1.9759,1.8277,1.5654,1.4999,1.4706,1.4622,1.404,1.3893,1.4007,1.3704,1.3968,1.4726,1.5804,1.7193,1.8691,1.9859,2.0997,2.2132,0.0,0.0,0.0,0.0,0.0,0.0,0.0,0.0,0.0,2.6437,2.6957,2.7476,2.6622,2.7431,2.8446,2.7844,2.8617,0.0,0.0,0.0,0.0,0.0,0.0,0.0,0.0,0.0,0.0,0.0,0.0,0.0,0.0,0.0,0.0,0.0,0.0,0.0,0.0,0.0,0.0,0.0,0.0,0.0,0.0,0.0,0.0,0.0,0.0,0.0,0.0,0.0,0.0,2.1844,2.1796,2.1416,2.0704,1.9665,1.8967,1.8555,1.8268,1.8014,1.7811,1.7811,1.7811,1.7811,1.7811,1.7726,1.7658,1.7658,1.7572,1.7502,1.7502,1.7344,1.7175,0.0,0.0,0.0,0.0,0.0,0.0,0.0,0.0,0.0,0.0,0.7138,0.8361,0.0,0.0,0.0,0.0,0.0,0.0,0.0,0.0,1.5594,1.7489,1.7984,1.862,1.9384,1.9626,1.863,1.6344,1.6016,0.0,0.0,0.0,1.466,1.5041,0.0,1.4817,1.5044,1.6138,1.7005,1.772,1.9105,2.0163,2.109,0.0,0.0,0.0,0.0,0.0,0.0,0.0,0.0,0.0,2.6353,2.6867,2.7511,2.7103,2.7874,2.8905,2.9136,2.9743,0.0,0.0,0.0,0.0,0.0,0.0,0.0,0.0,0.0,0.0,0.0,0.0,0.0,0.0,0.0,0.0,0.0,0.0,0.0,0.0,0.0,0.0,0.0,0.0,0.0,0.0,0.0,0.0,0.0,0.0,0.0,0.0,0.0,0.0,2.2074,2.1715,2.1097,2.0171,1.9291,1.8775,1.8597,1.8042,1.7811,1.7811,1.7811,1.7811,1.7811,1.7811,1.7811,1.7811,1.7811,1.7811,1.7811,1.7811,1.7681,1.7526,0.0,0.0,0.0,0.0,0.0,0.0,0.0,0.0,0.0,0.0,0.7074,0.8086,0.0,0.0,0.0,0.0,0.0,0.0,0.0,0.0,0.0,1.6552,1.6927,1.7676,1.9046,0.0,0.0,0.0,0.0,0.0,0.0,0.0,1.5373,1.6419,0.0,1.6219,1.5748,1.7053,1.7186,1.6641,1.866,1.9509,1.9893,2.2308,0.0,0.0,0.0,0.0,0.0,0.0,0.0,0.0,2.5993,2.6121,2.6638,2.7265,2.8027,2.9119,3.1301,0.0,0.0,0.0,0.0,0.0,0.0,0.0,0.0,0.0,0.0,0.0,0.0,0.0,0.0,0.0,0.0,0.0,0.0,0.0,0.0,0.0,0.0,0.0,0.0,0.0,0.0,0.0,0.0,0.0,0.0,0.0,0.0,0.0,0.0,0.0,2.2207,2.1469,2.0684,0.0,1.8845,1.8339,1.8229,1.7927,1.7811,1.7811,1.7811,1.7811,1.7811,1.7811,1.7811,1.7811,1.7811,1.7811,1.7811,1.7811,1.7811,1.7811,0.0,0.0,0.0,0.0,0.0,0.0,0.0,0.0,0.0,0.0,0.0,0.0,0.0,0.0,0.0,0.0,0.0,0.0,0.0,0.0,0.0,0.0,0.0,0.0,0.0,0.0,0.0,0.0,0.0,0.0,0.0,0.0,0.0,1.6549,0.0,1.5673,1.5402,1.5754,1.6151,1.6564,1.7142,1.8091,1.9256,2.0726,2.1694,0.0,0.0,0.0,0.0,0.0,0.0,0.0,2.7355,2.8096,2.8738,2.8003,2.8766,2.988,0.0,3.0461,0.0,0.0,0.0,0.0,0.0,0.0,0.0,0.0,0.0,0.0,0.0,0.0,0.0,0.0,0.0,0.0,0.0,0.0,0.0,0.0,0.0,0.0,0.0,0.0,0.0,0.0,0.0,0.0,0.0,0.0,0.0,0.0,0.0,2.3963,2.3721,2.2937,2.2042,0.0,2.017,1.934,1.8489,1.8014,1.7811,1.7811,1.7811,1.7811,1.7811,1.7811,1.7811,1.7811,1.7811,1.7811,1.7811,1.7811,1.7811,1.7811,0.0,0.0,0.0,0.0,0.0,0.0,0.0,0.0,0.0,0.0,0.0,0.0,0.0,0.0,0.0,0.0,0.0,0.0,0.0,0.0,0.0,0.0,0.0,0.0,0.0,0.0,0.0,0.0,0.0,0.0,0.0,0.0,0.0,1.7541,0.0,1.6558,1.5717,1.5727,1.5712,1.5757,1.6202,1.6962,1.8031,1.9091,2.0201,2.1334,2.2283,0.0,0.0,0.0,0.0,0.0,0.0,0.0,2.7828,2.7629,2.8268,2.9177,0.0,0.0,0.0,0.0,0.0,0.0,0.0,0.0,0.0,0.0,0.0,0.0,0.0,0.0,0.0,0.0,0.0,0.0,0.0,0.0,0.0,0.0,0.0,0.0,0.0,0.0,0.0,0.0,0.0,0.0,0.0,0.0,0.0,0.0,2.419,2.4025,2.3639,2.3217,2.2539,2.1571,2.0662,1.9632,1.8585,1.8166,1.7927,1.7811,1.7811,1.7811,1.7811,1.7811,1.7811,1.7811,1.7811,1.7811,1.7811,1.7811,1.7811,1.7811,0.0,0.0,0.0,0.0,0.0,0.0,0.0,0.0,0.0,0.0,0.0,0.0,0.0,0.0,0.0,0.0,0.0,0.0,0.0,0.0,0.0,0.0,0.0,0.0,0.0,0.0,0.0,0.0,0.0,0.0,0.0,0.0,0.0,1.8967,0.0,1.7874,1.6406,1.6247,1.5615,1.4887,1.5491,1.6074,1.6629,1.7557,1.8845,2.0318,2.091,2.2179,2.3588,2.3594,0.0,0.0,0.0,0.0,2.623,2.6904,2.7328,2.7938,0.0,0.0,0.0,0.0,0.0,0.0,0.0,0.0,0.0,0.0,0.0,0.0,0.0,0.0,0.0,0.0,0.0,0.0,0.0,0.0,0.0,0.0,0.0,0.0,0.0,0.0,0.0,0.0,0.0,0.0,0.0,0.0,2.419,2.419,2.419,2.3878,2.3217,2.3217,2.2795,2.1987,2.0806,1.9705,1.866,1.843,1.8187,1.7927,1.7883,1.7861,1.7878,1.7833,1.7811,1.7811,1.7811,1.7811,1.7811,1.7811,1.7811,1.7811,0.0,0.0,0.0,0.0,0.0,0.0,0.0,0.0,0.0,0.0,0.7591,0.7298,0.0,0.0,0.0,0.0,0.0,0.0,0.0,0.0,0.0,0.0,0.0,0.0,0.0,0.0,0.0,0.0,0.0,0.0,0.0,0.0,0.0,2.0264,0.0,0.0,1.7666,1.6805,1.5843,1.4812,1.5118,1.5322,1.5593,1.6337,1.7389,1.8666,2.0198,2.1444,2.254,2.3832,2.4798,0.0,0.0,0.0,2.6548,2.6658,2.6716,2.7004,0.0,0.0,0.0,0.0,0.0,0.0,0.0,0.0,0.0,0.0,0.0,0.0,0.0,0.0,0.0,0.0,0.0,0.0,0.0,0.0,0.0,0.0,0.0,0.0,0.0,0.0,0.0,0.0,0.0,0.0,0.0,2.419,2.419,2.419,2.419,2.4153,2.4043,2.4043,2.3639,2.2832,2.1219,1.9933,1.8949,1.8914,1.8752,1.8469,1.8249,1.8146,1.8125,1.79,1.7811,1.7811,1.7811,1.7811,1.7811,1.7811,1.7811,1.7811,0.0,0.0,0.0,0.0,0.0,0.0,0.0,0.0,0.0,0.0,0.0,0.7305,0.0,0.0,0.0,0.0,0.0,0.0,0.0,0.0,0.0,0.0,0.0,0.0,0.0,0.0,0.0,0.0,0.0,0.0,0.0,2.1652,2.1405,0.0,0.0,0.0,0.0,1.7549,1.6488,1.5423,1.5667,1.5752,1.5811,1.593,1.6893,1.8317,1.9551,2.043,2.1242,2.2725,2.3673,2.424,2.4427,0.0,0.0,0.0,2.5648,0.0,2.8608,0.0,0.0,0.0,0.0,0.0,0.0,0.0,0.0,0.0,0.0,0.0,0.0,0.0,0.0,0.0,0.0,0.0,0.0,0.0,0.0,0.0,0.0,0.0,0.0,0.0,0.0,0.0,0.0,0.0,2.419,2.419,2.419,2.419,2.419,2.419,2.419,2.419,2.3566,2.2318,2.1584,2.0506,1.9166,1.9166,1.8965,1.8585,1.8469,1.833,1.8187,1.8061,1.7927,1.7811,1.7811,1.7811,1.7811,1.7811,1.7811,1.7811,0.0,0.0,0.0,0.0,0.0,0.0,0.0,0.0,0.0,0.0,0.0,0.0,0.0,0.0,0.0,0.0,0.0,0.0,0.0,0.0,0.0,0.0,0.0,0.0,0.0,0.0,0.0,0.0,0.0,0.0,2.1852,2.2242,2.2579,0.0,2.2257,2.1013,0.0,0.0,0.0,0.0,1.6174,1.6327,1.6436,1.5997,1.6791,1.8289,1.8865,1.9572,2.0374,2.1582,2.252,2.3189,2.3189,2.3671,0.0,0.0,0.0,0.0,0.0,0.0,0.0,0.0,0.0,0.0,0.0,0.0,0.0,0.0,0.0,0.0,0.0,0.0,0.0,0.0,0.0,0.0,0.0,0.0,0.0,0.0,0.0,0.0,0.0,0.0,0.0,0.0,0.0,0.0,2.419,2.419,2.419,2.419,2.419,2.419,2.419,2.419,2.3492,2.2097,2.1913,2.1015,1.9601,1.9381,1.9097,1.8789,1.8716,1.8585,1.8391,1.833,1.8146,1.7905,1.7905,1.7878,1.7811,1.7811,1.7811,1.7811,0.0,0.0,0.0,0.0,0.0,0.0,0.0,0.0,0.0,0.0,0.0,0.0,0.0,0.0,0.6,0.4982,0.0,0.0,0.0,0.0,0.0,0.0,0.0,0.0,0.0,0.0,0.0,0.0,0.0,0.0,2.1903,2.1903,2.2172,2.2629,2.3084,2.226,2.0325,0.0,0.0,0.0,0.0,0.0,1.717,1.6586,1.7127,0.0,0.0,0.0,2.0273,2.0862,2.2023,2.3189,2.3189,2.3671,2.4247,0.0,0.0,0.0,0.0,0.0,0.0,0.0,0.0,0.0,0.0,0.0,0.0,0.0,0.0,0.0,0.0,0.0,0.0,0.0,0.0,0.0,0.0,0.0,0.0,0.0,0.0,0.0,0.0,0.0,0.0,0.0,0.0,0.0,2.419,2.419,2.419,2.419,2.419,2.419,2.419,2.419,2.3786,2.2942,2.2152,2.1308,2.0411,1.9656,1.9289,1.9259,1.9051,1.8966,1.8931,1.8679,1.843,1.8166,1.8166,1.8035,1.7811,1.7811,1.7811,1.7811,0.0,0.0,0.0,0.0,0.0,0.0,0.0,0.0,0.0,0.0,0.0,0.0,0.0,0.7154,0.6142,0.5553,0.4966,0.0,0.0,0.0,0.0,0.0,0.0,0.0,0.0,0.0,0.0,0.0,0.0,1.7939,1.9656,2.0422,2.1074,2.1671,2.254,2.2061,2.054,1.9824,0.0,0.0,0.0,0.0,0.0,0.0,0.0,0.0,0.0,0.0,0.0,2.093,2.2065,2.2853,2.3124,0.0,0.0,0.0,0.0,0.0,0.0,0.0,0.0,0.0,0.0,0.0,0.0,0.0,0.0,0.0,0.0,0.0,0.0,0.0,0.0,0.0,0.0,0.0,0.0,0.0,0.0,0.0,0.0,0.0,0.0,0.0,0.0,0.0,0.0,0.0,2.419,2.419,2.419,2.419,2.419,2.419,2.419,2.419,2.3804,2.3015,2.2721,2.184,2.0484,2.0207,1.9785,1.9289,1.9212,1.9117,1.8984,1.8896,1.8697,1.843,1.827,1.8249,1.827,1.7927,1.7905,1.8035,0.0,0.0,0.0,0.0,0.0,0.0,0.0,0.0,0.0,0.0,0.0,0.0,0.0,0.0,0.6379,0.5429,0.4853,0.5117,0.6534,0.7712,0.0,0.0,0.0,0.0,0.0,0.0,0.0,0.0,0.0,0.0,0.0,1.8508,1.9293,2.0172,2.1107,2.0983,0.0,0.0,0.0,1.8054,0.0,0.0,1.831,0.0,0.0,0.0,0.0,0.0,0.0,0.0,0.0,0.0,0.0,0.0,0.0,0.0,0.0,0.0,2.5945,0.0,0.0,0.0,0.0,0.0,0.0,0.0,0.0,0.0,0.0,0.0,0.0,0.0,0.0,0.0,0.0,0.0,0.0,0.0,0.0,0.0,0.0,0.0,0.0,0.0,0.0,0.0,0.0,0.0,2.419,2.419,2.419,2.419,2.419,2.419,2.419,2.419,2.3933,2.34,2.3144,2.241,2.131,2.0759,2.0225,1.9693,1.9418,1.9212,1.9084,1.9084,1.8948,1.8715,1.8528,1.8528,1.8547,1.8187,1.8125,1.8166,0.0,0.0,0.0,0.0,0.0,0.0,0.0,0.0,0.0,0.0,0.0,0.0,0.0,0.0,0.0,0.472,0.4525,0.5069,0.649,0.7202,0.0,0.0,0.0,0.0,0.0,0.0,0.0,0.0,0.0,0.0,0.0,0.0,1.6995,1.814,1.8739,1.8997,1.8988,0.0,1.8117,1.7972,0.0,1.8375,1.8773,0.0,0.0,0.0,1.8163,1.8623,0.0,0.0,0.0,0.0,0.0,0.0,0.0,0.0,0.0,0.0,0.0,0.0,0.0,0.0,0.0,0.0,0.0,0.0,0.0,0.0,0.0,0.0,0.0,0.0,0.0,0.0,0.0,0.0,0.0,0.0,0.0,0.0,0.0,0.0,0.0,0.0,0.0,0.0,0.0,2.419,2.419,2.419,2.419,2.419,2.419,2.419,2.419,2.419,2.419,2.419,2.3419,2.3015,2.2923,2.131,2.0558,2.0484,1.9711,1.936,1.9326,1.9323,1.9182,1.9019,1.9001,1.8843,1.8623,1.8622,1.843,1.8229,0.0,0.0,0.0,0.0,0.0,0.0,0.0,0.0,0.0,0.0,0.0,0.0,0.9544,0.8167,0.6889,0.5843,0.5089,0.5023,0.598,0.7019,0.8332,0.9944,1.114,0.0,0.0,0.0,0.0,0.0,0.0,0.0,0.0,0.0,0.0,0.0,1.6956,1.7231,1.7293,1.7987,0.0,0.0,1.7762,1.8251,0.0,0.0,0.0,0.0,0.0,1.8333,0.0,0.0,2.0611,2.1383,0.0,0.0,0.0,0.0,0.0,0.0,2.5077,0.0,0.0,0.0,0.0,0.0,0.0,0.0,0.0,0.0,0.0,0.0,0.0,0.0,0.0,0.0,0.0,0.0,0.0,0.0,0.0,0.0,0.0,0.0,0.0,0.0,0.0,0.0,2.419,2.419,2.419,2.419,2.419,2.419,2.419,2.419,2.419,2.419,2.419,2.419,2.3969,2.3566,2.2978,2.252,2.1987,2.1418,2.1215,2.0739,2.0134,1.9528,1.9259,1.9214,1.9052,1.9034,1.9064,1.8734,1.8678,1.8752,0.0,0.0,0.0,0.0,0.0,0.0,0.0,0.0,0.0,0.0,0.0,0.0,0.9723,0.8804,0.7801,0.6837,0.5822,0.5578,0.6401,0.6905,0.7824,0.9369,1.0667,1.2141,0.0,0.0,0.0,0.0,0.0,0.0,0.0,0.0,0.0,0.0,0.0,0.0,0.0,0.0,0.0,0.0,1.7713,0.0,0.0,1.8608,1.8124,0.0,0.0,0.0,1.7909,1.923,2.0232,0.0,0.0,0.0,0.0,0.0,0.0,0.0,0.0,0.0,0.0,0.0,0.0,0.0,2.6802,2.7566,0.0,0.0,0.0,0.0,0.0,0.0,0.0,0.0,0.0,0.0,0.0,0.0,0.0,0.0,0.0,0.0,0.0,0.0,0.0,0.0,2.4392,2.419,2.419,2.419,2.419,2.419,2.419,2.419,2.419,2.419,2.419,2.419,2.419,2.3951,2.3492,2.3162,2.274,2.2281,2.195,2.1308,2.0448,1.9987,1.9601,1.9289,1.9166,1.9198,1.9311,1.936,1.9236,1.9056,0.0,0.0,0.0,0.0,0.0,0.0,0.0,0.0,0.0,0.0,0.0,0.0,0.0,0.0,0.9011,0.7832,0.671,0.6361,0.7101,0.6849,0.7291,0.879,1.009,1.1688,1.3554,0.0,0.0,0.0,0.0,0.0,0.0,0.0,0.0,0.0,0.0,0.0,0.0,0.0,0.0,1.7074,1.7809,1.7927,0.0,0.0,1.8684,0.0,1.8189,1.8135,1.7835,1.8425,1.9594,0.0,0.0,0.0,0.0,0.0,2.4262,0.0,0.0,0.0,0.0,0.0,0.0,0.0,2.6579,2.7417,2.8262,0.0,0.0,0.0,0.0,0.0,0.0,0.0,0.0,0.0,0.0,0.0,0.0,0.0,0.0,0.0,0.0,0.0,2.6475,2.5605,2.4869,2.4428,2.4337,2.4318,2.4281,2.419,2.419,2.419,2.419,2.419,2.419,2.419,2.419,2.419,2.4171,2.3456,2.3144,2.3088,2.2373,2.1528,2.0631,2.0631,2.0115,1.9323,1.9399,1.9418,1.9528,2.0354,2.0076,1.9505,0.0,0.0,0.0,0.0,0.0,0.0,0.0,0.0,0.0,0.0,0.0,0.0,0.0,0.0,0.0,0.0,0.7322,0.6349,0.6409,0.6702,0.7162,0.7854,0.974,1.1499,1.2956,0.0,0.0,0.0,0.0,0.0,0.0,0.0,0.0,0.0,0.0,0.0,0.0,0.0,0.0,1.6563,1.7087,0.0,1.7953,1.7514,1.7251,1.7059,1.6809,1.6604,1.6708,0.0,1.9016,1.9879,0.0,0.0,0.0,0.0,0.0,0.0,0.0,0.0,0.0,0.0,0.0,0.0,2.5791,2.605,2.6445,0.0,0.0,0.0,0.0,0.0,0.0,0.0,0.0,0.0,0.0,0.0,0.0,0.0,0.0,0.0,0.0,0.0,2.7643,2.6452,2.6227,2.5841,2.5201,2.5182,2.4869,2.4226,2.419,2.419,2.419,2.419,2.419,2.419,2.419,2.419,2.419,2.4043,2.3969,2.3951,2.3804,2.2887,2.1547,2.1547,2.0647,1.9363,2.0023,2.028,2.0372,2.1235,2.142,2.1294,0.0,0.0,0.0,0.0,0.0,0.0,0.0,0.0,0.0,0.0,0.0,0.0,0.0,0.0,0.0,0.0,0.0,0.0,0.0,0.0,0.7012,0.7335,0.9263,1.0897,1.2211,1.3517,0.0,0.0,0.0,0.0,0.0,0.0,0.0,0.0,0.0,0.0,0.0,0.0,1.5787,1.6051,1.6499,0.0,1.6999,1.6957,1.6481,1.5956,1.6214,1.6489,1.6807,1.7194,1.8033,0.0,0.0,2.0442,2.1532,0.0,2.314,2.4063,0.0,0.0,0.0,2.5186,0.0,0.0,0.0,2.4971,2.5236,0.0,0.0,0.0,0.0,0.0,0.0,0.0,0.0,0.0,0.0,0.0,0.0,0.0,0.0,0.0,0.0,0.0,2.783,2.6688,2.6612,2.6245,2.5439,2.5403,2.5035,2.4226,2.419,2.419,2.419,2.419,2.419,2.419,2.419,2.419,2.419,2.419,2.419,2.419,2.419,2.329,2.1803,2.1803,2.1051,1.9895,1.9895,2.0152,2.0594,2.1473,2.1803,2.1913,0.8046,0.0,0.0,0.0,0.0,0.0,0.0,0.0,0.0,0.0,0.0,0.0,0.0,0.0,0.0,0.0,0.0,0.0,0.0,0.0,0.0,0.0,0.8648,1.0154,1.1297,1.2869,1.4264,0.0,0.0,0.0,0.0,0.0,0.0,0.0,0.0,0.0,0.0,0.0,0.0,1.5447,0.0,1.5756,1.5881,1.6469,1.5903,1.4898,1.5785,1.64,1.6741,1.6497,0.0,1.82,1.9031,1.9852,0.0,0.0,0.0,0.0,0.0,0.0,0.0,0.0,0.0,2.3821,0.0,0.0,0.0,2.506,0.0,0.0,0.0,0.0,0.0,0.0,0.0,0.0,0.0,0.0,0.0,0.0,0.0,0.0,0.0,0.0,2.7806,2.7111,2.6924,2.6557,2.5917,2.5733,2.5254,2.4447,2.4281,2.419,2.419,2.419,2.419,2.419,2.419,2.419,2.419,2.419,2.419,2.419,2.419,2.3364,2.2024,2.2024,2.1528,2.0703,2.0042,2.0262,2.109,2.1951,2.2152,2.2208,0.6479,0.7959,0.0,0.0,0.0,0.0,0.0,0.0,0.0,0.0,0.0,0.0,0.0,0.0,0.0,0.0,0.0,0.0,0.6679,0.0,0.0,0.0,0.0,0.0,0.9936,1.2406,1.4043,0.0,0.0,0.0,0.0,0.0,0.0,0.0,1.5588,0.0,0.0,0.0,1.4329,0.0,1.406,1.4487,0.0,1.5654,1.5203,1.4655,1.481,1.4912,1.5131,0.0,1.6918,1.7515,0.0,1.8933,0.0,0.0,0.0,0.0,0.0,0.0,0.0,0.0,2.343,0.0,0.0,0.0,2.362,2.409,0.0,0.0,0.0,0.0,0.0,0.0,0.0,0.0,0.0,0.0,0.0,0.0,0.0,0.0,0.0,0.0,0.0,2.8709,2.8062,2.7622,2.753,2.6851,2.608,2.5293,2.4557,2.419,2.419,2.419,2.419,2.419,2.419,2.419,2.419,2.419,2.419,2.419,2.419,2.3694,2.2868,2.2868,2.2391,2.1639,2.1564,2.2006,2.2813,2.3621,2.3474,2.2905,0.6033,0.7255,0.0,0.0,0.0,0.0,0.0,0.0,0.0,0.0,0.0,0.0,0.0,0.0,0.0,0.0,0.0,0.5542,0.0,0.0,0.0,0.0,0.0,0.0,0.0,1.0772,1.2686,1.41,1.5353,0.0,0.0,0.0,0.0,0.0,1.5588,0.0,1.5543,0.0,0.0,0.0,0.0,0.0,0.0,1.4366,1.4254,1.4174,1.4545,1.4926,1.5276,0.0,1.6355,0.0,0.0,0.0,0.0,0.0,0.0,0.0,0.0,0.0,0.0,0.0,0.0,0.0,0.0,0.0,2.1555,0.0,0.0,0.0,0.0,0.0,0.0,0.0,0.0,0.0,0.0,0.0,0.0,0.0,0.0,0.0,0.0,0.0,0.0,0.0,0.0,2.6906,2.6429,2.608,2.5529,2.4722,2.4373,2.419,2.419,2.419,2.419,2.419,2.419,2.419,2.419,2.419,2.419,2.419,2.419,2.3474,2.2336,2.2813,2.2244,2.1106,2.1584,2.2281,2.2997,2.285,2.2887,2.2997,0.5653,0.0,0.0,0.0,0.0,0.0,0.0,0.0,0.0,0.0,0.0,0.0,0.7936,0.6958,0.0,0.0,0.0,0.4149,0.0,0.0,0.4544,0.0,0.0,0.0,0.0,0.0,0.0,1.3418,0.0,0.0,0.0,0.0,0.0,0.0,0.0,1.5365,1.532,0.0,0.0,1.5276,1.4226,1.3684,1.3546,1.3402,1.3421,1.3637,1.4422,1.4971,1.541,1.5732,1.6139,0.0,1.7585,0.0,0.0,0.0,0.0,0.0,2.0762,0.0,0.0,0.0,0.0,0.0,0.0,0.0,0.0,0.0,0.0,0.0,0.0,0.0,0.0,0.0,0.0,0.0,0.0,0.0,0.0,0.0,0.0,0.0,0.0,0.0,0.0,0.0,2.6722,0.0,2.6082,2.5642,2.5217,2.4869,2.4428,2.419,2.419,2.419,2.419,2.419,2.419,2.419,2.419,2.419,2.419,2.419,2.419,2.3529,2.2483,2.285,2.2282,2.12,2.1382,2.1951,2.2611,2.2006,2.2171,2.2648,0.5163,0.6004,0.0,0.0,0.0,0.0,0.0,0.0,0.0,0.0,0.0,0.0,0.0,0.0,0.0,0.0,0.0,0.2942,0.3006,0.0,0.3606,0.0,0.0,0.5963,0.0,0.0,0.0,0.0,0.0,0.0,0.0,0.0,0.0,0.0,0.0,1.4744,1.4698,1.4097,1.419,1.4652,1.405,1.3467,1.2929,0.0,1.2939,1.3065,1.4247,0.0,0.0,1.6064,1.6466,0.0,0.0,0.0,0.0,0.0,0.0,0.0,0.0,0.0,0.0,1.8746,0.0,0.0,0.0,0.0,1.7559,0.0,0.0,0.0,0.0,0.0,2.4639,2.3798,0.0,0.0,0.0,0.0,0.0,0.0,0.0,0.0,0.0,0.0,0.0,2.6597,2.5878,0.0,2.764,2.6266,2.575,2.6502,2.5016,2.419,2.419,2.419,2.419,2.419,2.419,2.419,2.419,2.419,2.419,2.419,2.419,2.4171,2.4061,2.3309,2.296,2.2758,2.1163,2.107,2.1839,2.1821,2.1821,2.1712,0.0,0.0,0.0,0.0,0.0,0.0,0.0,0.7207,0.0,0.0,0.0,0.0,0.0,0.0,0.4282,0.0,0.0,0.2872,0.2867,0.3059,0.0,0.0,0.0,0.3832,0.0,0.0,0.0,0.0,0.0,0.0,0.0,0.0,0.0,0.0,0.0,1.5152,0.0,0.0,0.0,0.0,0.0,1.3684,1.3515,0.0,0.0,1.4201,1.5005,1.5555,0.0,1.638,1.6522,1.668,1.7544,1.7906,1.8074,1.8403,1.8737,0.0,0.0,0.0,1.797,1.7784,0.0,0.0,0.0,0.0,0.0,0.0,0.0,0.0,0.0,0.0,2.1988,2.1615,2.1657,2.1887,0.0,0.0,0.0,0.0,0.0,0.0,0.0,0.0,0.0,2.5788,2.5052,2.5071,0.0,2.5715,2.5531,2.5786,2.5273,2.474,2.4208,2.419,2.419,2.419,2.419,2.419,2.419,2.419,2.419,2.419,2.419,2.3602,2.263,2.2887,2.2042,2.0556,2.0503,2.0668,2.0941,2.0941,2.0941,2.0831,0.3576,0.0,0.0,0.0,0.0,0.0,0.0,0.0,0.0,0.0,0.5228,0.0,0.4639,0.0,0.3205,0.0,0.2118,0.1844,0.1864,0.2097,0.0,0.0851,0.1697,0.0,0.0,0.0,0.0,0.0,0.0,1.4082,0.0,0.0,0.0,0.0,0.0,0.0,0.0,0.0,1.5231,0.0,0.0,1.4179,0.0,0.0,1.405,1.4468,0.0,1.5688,1.6194,1.6423,1.6522,1.6637,1.7544,1.7906,1.8076,1.8288,1.8584,1.8631,1.7773,1.7435,0.0,1.6786,1.6333,0.0,1.5677,0.0,0.0,0.0,0.0,0.0,0.0,0.0,1.9286,1.9078,1.936,1.9977,0.0,2.2245,0.0,0.0,0.0,0.0,0.0,0.0,2.5116,2.498,2.4483,2.4538,0.0,0.0,2.5403,2.5403,2.5403,2.5017,2.4208,2.419,2.419,2.419,2.419,2.419,2.419,2.419,2.419,2.419,2.419,2.3602,2.2648,2.2593,2.162,2.017,2.0097,2.0079,2.0079,2.0079,2.0079,2.0005,0.0,0.0,0.0,0.0,0.6626,0.0,0.0,0.0,0.4618,0.0,0.3897,0.3579,0.4359,0.2827,0.1651,0.1397,0.0629,0.0,0.0067,0.0869,0.0,0.0,0.0992,0.1041,0.0056,0.0,0.0,0.0,0.0,0.0,0.0,0.0,0.0,0.0,1.5864,0.0,1.5632,1.5632,1.5632,1.5632,1.5632,1.4903,1.3815,1.3815,0.0,1.3909,1.4468,1.5107,1.572,1.6293,1.6522,1.6637,1.7146,1.7706,1.8027,1.7504,1.8066,1.8535,1.6993,1.6951,1.7092,1.5971,0.0,0.0,0.0,0.0,1.4857,0.0,0.0,0.0,0.0,0.0,0.0,1.6287,1.6868,1.8062,2.0078,0.0,0.0,0.0,0.0,0.0,0.0,2.4266,2.417,2.419,2.419,0.0,0.0,0.0,2.5439,2.5403,2.5439,2.5034,2.4208,2.419,2.419,2.419,2.419,2.419,2.419,2.419,2.419,2.419,2.419,2.4171,2.4025,2.2483,2.1821,2.1582,1.9968,1.9341,1.9305,1.9305,1.9305,1.9323,0.2627,0.403,0.5058,0.0,0.576,0.5734,0.0,0.0,0.0,0.0,0.5359,0.4896,0.4357,0.3708,0.2999,0.2039,0.2395,0.0,0.0,0.0,0.0,0.0057,0.0247,0.0555,0.0839,0.2689,0.0,0.7425,0.0,0.0,1.4971,0.0,0.0,0.0,0.0,0.0,1.6238,1.5776,1.5864,1.6238,1.5776,1.5141,0.0,0.0,1.4097,1.4468,1.4652,1.5389,1.6281,1.6466,1.6752,1.7188,1.7747,1.7987,1.8145,1.8419,1.8419,1.8224,1.7787,1.7787,1.7733,1.705,1.678,1.6555,0.0,0.0,0.0,0.0,0.0,0.0,0.0,0.0,0.0,1.3927,1.5588,1.7516,0.0,0.0,0.0,2.2327,0.0,0.0,0.0,2.3533,2.3917,2.417,2.419,0.0,0.0,0.0,0.0,2.5421,2.597,2.5621,2.4208,2.419,2.419,2.419,2.419,2.419,2.419,2.419,2.419,2.419,2.419,2.3859,2.329,2.2868,2.1969,2.0794,2.0372,1.9822,1.9305,1.9305,1.9305,1.9381,0.1671,0.0,0.0,0.4733,0.0,0.0,0.437,0.0,0.0,0.4135,0.3944,0.0,0.3085,0.2845,0.2432,0.1748,0.2227,0.0,0.0,0.0,0.0,0.0057,-0.0302,-0.03,0.0112,0.1895,0.0,0.6519,0.0,0.0,1.4744,0.0,0.0,0.0,0.0,1.6194,0.0,1.6139,1.6194,1.6466,1.6151,0.0,0.0,1.4732,1.4824,1.5096,1.5096,1.57,1.6522,1.6522,1.671,1.7076,1.7867,1.8224,1.8458,1.908,1.9043,1.8688,1.8224,1.8458,1.8612,1.7827,1.7544,1.7271,1.6637,1.6752,1.5976,0.0,0.0,0.0,0.0,0.0,0.0,0.0,0.0,0.0,0.0,0.0,0.0,0.0,0.0,0.0,0.0,0.0,2.3837,0.0,0.0,0.0,0.0,0.0,0.0,2.4887,2.5658,2.5474,2.4208,2.419,2.419,2.419,2.419,2.419,2.419,2.419,2.419,2.419,2.419,2.3933,2.3511,2.3162,2.2244,2.1033,2.0649,2.0209,1.9877,2.0244,2.0152,1.9895,0.0,0.0,0.0,0.0,0.0,0.0,0.0,0.2747,0.0,0.1852,0.0,0.1522,0.1715,0.1451,0.1283,0.1398,0.0,0.1398,0.1398,0.0791,0.0361,0.0293,-0.0352,-0.0693,-0.0671,0.1331,0.0,0.0,0.0,1.2588,1.4744,0.0,0.0,0.0,0.0,0.0,0.0,1.6522,1.6522,0.0,1.6522,1.6139,1.5588,1.5588,1.5552,1.5492,1.5475,1.5872,1.6409,1.6451,1.6469,1.6696,1.7664,1.7735,1.7756,1.9277,1.9076,1.8219,1.7283,1.7704,1.8184,1.7247,1.6821,1.6569,1.6515,1.6993,1.5736,0.9649,1.0088,1.1197,0.0,0.0,0.0,0.0,0.0,0.0,0.0,0.0,0.0,0.0,0.0,0.0,0.0,0.0,0.0,0.0,0.0,0.0,0.0,0.0,0.0,2.4226,2.498,0.0,2.4208,0.0,2.419,2.419,2.419,2.419,2.419,2.419,2.419,2.419,2.419,2.419,2.4153,2.3456,2.2685,2.1859,2.1015,2.0668,2.0776,2.151,2.1399,2.0864,0.0,0.0,0.0,0.0,0.0,0.1678,0.1565,0.2226,0.2668,0.2547,0.2452,0.0,0.235,0.2263,0.2456,0.2899,0.2893,0.0,0.0,0.0,0.0,0.1859,0.1674,0.1616,0.1618,0.2571,0.4399,0.0,0.95,1.2053,1.4744,1.5932,0.0,0.0,0.0,0.0,1.6522,1.6522,0.0,1.6522,1.6522,1.6139,1.5588,1.5588,1.5338,1.4943,1.4868,1.5282,1.5872,1.6213,1.6428,1.6619,1.7223,1.4671,1.2518,1.8056,1.5845,1.1589,1.1402,1.1467,1.1568,1.138,1.1278,1.2169,1.5707,1.6595,1.4809,0.8165,0.9904,1.2039,1.0151,0.0,0.0,0.0,0.0,0.0,0.0,0.0,0.0,0.0,0.0,0.0,0.0,0.0,0.0,0.0,0.0,0.0,0.0,0.0,0.0,0.0,0.0,0.0,0.0,0.0,2.419,2.419,2.419,2.419,2.419,2.419,2.419,2.419,2.419,2.419,2.419,2.4043,2.3529,2.2721,2.1877,2.1565,2.1584,2.1748,2.2234,2.2792,0.0,0.0,0.0,0.0,0.0,0.0,0.0,0.0725,0.0,0.1228,0.1699,0.1791,0.1235,0.1906,0.2441,0.2679,0.3121,0.3345,0.3287,0.2954,0.2565,0.2232,0.254,0.0,0.2232,0.4048,0.5841,0.7483,0.9934,1.2205,1.4236,1.5152,0.0,0.0,0.0,1.6522,0.0,0.0,0.0,1.6522,1.6522,1.6337,1.6051,1.6051,1.5905,1.5679,1.566,1.5679,1.5608,1.4917,1.5327,1.5222,0.9974,0.6682,0.5386,0.8543,1.2089,1.3481,0.6628,0.4758,0.4758,0.4758,0.4758,0.5314,0.7446,1.326,1.6558,1.093,1.1426,1.2314,1.0372,1.0679,0.0,0.0,0.0,0.0,0.0,0.0,0.0,0.0,0.0,0.0,0.0,0.0,0.0,0.0,0.0,0.0,0.0,0.0,0.0,0.0,0.0,0.0,0.0,0.0,0.0,2.419,2.419,2.419,2.419,2.419,2.419,2.419,2.419,2.419,2.4171,2.3749,2.3364,2.296,2.2678,2.258,2.2634,2.3172,2.3659,2.397,0.0,-0.1159,0.0,0.0,-0.0364,0.0,0.0,-0.0617,-0.0784,-0.0119,0.0582,0.0743,0.0058,0.118,0.2047,0.2174,0.2954,0.3456,0.3566,0.3118,0.2892,0.2892,0.36,0.371,0.3169,0.5404,0.7046,0.0,1.0322,1.2289,1.3815,1.456,1.5186,0.0,0.0,0.0,0.0,0.0,1.6522,1.6522,1.6522,1.6522,1.6522,1.6522,1.6522,1.6522,1.6522,1.6082,1.5354,1.425,1.3861,1.2633,0.5569,0.1814,0.0,0.0,0.7361,1.3226,0.2828,0.0,0.0,0.0,0.0,0.0,0.0,0.8034,1.449,1.0893,1.1281,1.2018,1.1303,1.1675,0.0,0.0,0.0,0.0,0.0,0.0,0.0,0.0,0.0,0.0,0.0,0.0,0.0,0.0,0.0,0.0,0.0,0.0,0.0,0.0,0.0,2.4485,2.4524,0.0,2.419,0.0,2.419,2.419,2.419,2.419,2.419,2.419,2.419,2.419,2.4153,2.3566,2.3327,2.3344,2.3545,2.3624,2.3712,2.4501,2.4832,2.4705,0.0,0.0,0.0,0.0,0.0,0.0,0.0,-0.0957,-0.0672,-0.0108,0.0052,0.0104,0.0,0.0695,0.1457,0.2169,0.2954,0.368,0.4349,0.4886,0.521,0.521,0.5923,0.6253,0.6199,0.6475,0.7564,0.0,0.0,1.1813,0.0,1.4994,0.0,0.0,0.0,0.0,0.0,1.6522,1.6522,1.6522,1.6522,1.6522,1.6522,1.6522,1.6522,1.6522,1.6522,1.5844,1.5117,1.5932,1.2298,0.8265,1.2883,0.7734,0.0,0.0,0.0868,0.1571,0.0329,0.0,0.0,0.0,0.0,0.0,0.0,0.0958,0.1721,0.13,0.5944,1.0959,1.3783,1.3856,1.3496,0.0,0.0,0.0,0.0,0.0,0.0,0.0,0.0,0.0,0.0,0.0,0.0,0.0,0.0,0.0,0.0,0.0,0.0,2.5555,0.0,2.5373,2.5555,2.4653,0.0,2.419,2.419,2.419,2.419,2.419,2.419,2.419,2.419,2.419,2.4209,2.4318,2.4366,2.4383,2.4588,2.4662,2.4662,2.4771,2.4883,2.4962,0.0,0.0,0.0,0.0,0.0,0.0,0.0,-0.161,-0.1174,-0.0149,0.0,0.0,0.0,0.0978,0.1757,0.2045,0.3094,0.4033,0.4713,0.5169,0.554,0.5896,0.7178,0.7629,0.7202,0.8462,0.9548,0.0,0.0,0.0,0.0,0.0,0.0,0.0,0.0,1.6522,1.6522,1.6522,1.6522,1.6522,1.6522,1.6522,1.6522,1.6522,1.6522,1.6522,1.6522,1.6233,1.5932,1.6371,1.0305,0.3071,0.5532,0.3418,0.0,0.0,0.0,0.0,0.0,0.0,0.0,0.0,0.0,0.0,0.0,0.0,0.0,0.0,0.4746,1.0307,1.4947,1.5264,1.4744,0.0,0.0,0.0,0.0,0.0,0.0,0.0,0.0,0.0,0.0,0.0,2.3323,0.0,0.0,0.0,0.0,0.0,0.0,2.6394,0.0,2.5132,2.5683,2.4817,2.4321,2.419,2.419,2.419,2.419,2.419,2.419,2.4209,2.4339,2.4375,2.4393,2.4591,2.4685,2.47,2.485,2.493,2.4943,2.5049,2.5118,2.5163,-0.5198,0.0,-0.4613,0.0,-0.3428,-0.3027,-0.2111,-0.1975,-0.1461,-0.0181,0.0,0.0,0.0,0.119,0.1988,0.201,0.3412,0.4462,0.4857,0.553,0.6145,0.6793,0.8216,0.0,0.8781,1.0308,1.1273,1.1626,1.2113,0.0,0.0,0.0,0.0,0.0,1.6293,1.6522,1.6522,1.6522,1.6522,1.6522,1.6522,1.6522,1.6522,1.6522,1.6522,1.6522,1.6522,1.6522,1.6271,1.4651,0.9981,0.4294,0.1029,0.0,0.0,0.0,0.0,0.0,0.0,0.0,0.0,0.0,0.0,0.0,0.0,0.2413,0.4647,0.4647,0.8012,1.2053,1.5774,1.6393,1.612,1.5576,0.0,0.0,0.0,0.0,0.0,0.0,0.0,2.1486,2.2354,0.0,0.0,0.0,0.0,0.0,0.0,0.0,0.0,0.0,0.0,0.0,0.0,2.4884,2.4445,2.4284,2.4339,2.4375,2.4375,2.4375,2.4375,2.4393,2.4528,2.4575,2.4591,2.4785,2.4869,2.4864,2.503,2.5088,2.5099,2.5253,2.5303,2.5303,-0.6072,-0.5883,-0.5746,-0.5009,-0.4278,-0.3373,-0.2205,-0.1896,-0.1361,-0.0158,0.0,0.0,0.0,0.119,0.1978,0.2005,0.3757,0.4907,0.4907,0.6389,0.7583,0.0,0.0,1.0348,1.1603,1.1702,1.2338,1.3648,0.0,0.0,1.4698,0.0,1.5908,1.6479,1.6522,1.6522,1.6522,1.6522,1.6522,1.6522,1.6522,1.6522,1.6522,1.6522,1.6522,1.6522,1.6522,1.6522,1.5693,1.0244,1.1927,1.44,0.3452,0.0,0.0,0.0,0.0,0.0,0.0,0.0,0.0,0.0,0.0,0.0,0.0,0.8094,1.5604,1.5604,1.6459,1.7018,1.6418,1.7258,1.7894,1.7353,0.0,0.0,0.0,0.0,0.0,0.0,2.0942,2.1945,2.3076,0.0,0.0,0.0,0.0,0.0,0.0,0.0,0.0,2.5702,2.5706,0.0,2.5702,2.4884,2.4495,2.4495,2.47,2.479,2.479,2.479,2.479,2.479,2.479,2.4804,2.4818,2.4937,2.501,2.5022,2.5214,2.5303,2.5303,2.5303,2.5303,2.5303,-0.6481,-0.585,-0.5247,-0.4451,-0.3821,-0.318,-0.2261,-0.1855,-0.1393,-0.0588,-0.0196,0.0,0.0,0.1046,0.1766,0.0,0.3427,0.4618,0.0,0.6551,0.7623,0.8289,0.9882,1.116,1.1931,1.2712,1.3538,1.44,0.0,0.0,0.0,1.592,1.6337,1.6522,1.6522,1.6522,1.6522,1.6522,1.6522,1.6522,1.6522,1.671,1.6993,1.6637,1.6522,1.6019,1.2266,1.3333,1.6245,1.45,1.5065,1.4588,0.349,0.5185,0.978,0.221,0.0,0.0,0.0,0.0,0.0,0.0,0.0,0.0,0.0,0.8199,1.6308,1.8107,1.7359,1.6831,1.8223,1.7895,1.7609,1.8201,1.8507,0.0,0.0,0.0,0.0,0.0,2.1362,2.1848,0.0,2.3369,0.0,0.0,0.0,0.0,0.0,0.0,0.0,0.0,2.5579,0.0,2.5901,2.4968,2.4495,2.4495,2.4559,2.467,2.4804,2.4804,2.4804,2.4804,2.4891,2.4943,2.4937,2.513,2.5203,2.5214,2.5274,2.5303,2.5303,2.5303,2.5303,2.5303,-0.6561,-0.5783,-0.5137,-0.4595,-0.3942,-0.3252,-0.2563,-0.209,-0.1549,-0.0816,-0.0445,-0.0187,-0.0038,0.09,0.0,0.1732,0.3233,0.4504,0.5171,0.6387,0.7575,0.8612,0.9947,1.1132,1.2208,0.0,0.0,1.4488,1.4673,1.4974,1.5356,1.5927,1.6208,1.622,1.6421,1.6522,1.6522,1.6522,1.6522,1.6522,1.6522,1.6837,1.7271,1.6909,1.6658,1.6031,1.3035,1.2587,1.3531,1.4149,1.5582,1.5826,0.8391,1.1229,1.5811,0.8372,0.4433,0.2479,0.2479,0.2479,0.288,0.4545,0.3957,0.3492,0.5486,1.1047,1.6322,1.8093,1.7637,1.7338,1.8718,1.8623,1.8542,1.922,1.9375,1.96,2.0043,0.0,0.0,0.0,0.0,0.0,0.0,2.3482,0.0,0.0,0.0,0.0,0.0,0.0,0.0,2.6087,2.5314,0.0,2.554,2.4972,2.4693,2.4693,2.4752,2.4869,2.4994,2.4994,2.4994,2.4987,2.5084,2.5111,2.5111,2.5253,2.5303,2.5303,2.5303,2.5303,2.5303,2.5303,2.5303,2.5303,-0.6357,-0.5701,0.0,0.0,-0.446,0.0,-0.3007,-0.252,-0.1877,-0.0913,-0.0773,-0.0548,-0.0108,0.0725,0.1361,0.1577,0.0,0.0,0.0,0.609,0.747,0.9129,0.9581,1.0623,1.2478,1.296,1.3535,1.4217,1.4658,1.4916,1.4954,1.5432,1.563,1.5668,1.617,1.6409,1.6409,1.6446,1.6459,1.6459,1.6459,1.6799,1.7299,1.722,1.6851,1.6487,1.7575,1.4046,0.9169,1.0667,1.4194,1.7747,1.6574,1.7181,1.8093,1.669,1.1989,0.7262,0.7167,0.6878,0.7683,1.2178,1.0567,0.9293,1.4584,1.5799,1.5957,1.6476,1.7517,1.833,1.833,1.9401,2.027,2.0307,2.0335,2.0516,2.0991,0.0,0.0,0.0,0.0,0.0,0.0,2.3837,2.4303,0.0,0.0,0.0,0.0,0.0,2.5638,2.4842,2.4924,2.4937,2.4818,2.4943,2.4998,2.501,2.5192,2.5293,2.5303,2.5303,2.5303,2.5303,2.5303,2.5303,2.5303,2.5303,2.5303,2.5303,2.5303,2.5303,2.5303,2.5303,2.5303,2.5303,0.0,0.0,-0.4783,-0.4783,-0.4314,-0.3788,-0.3298,-0.2851,-0.2371,-0.178,-0.1375,-0.101,-0.0582,0.0304,0.098,0.1354,0.3194,0.447,0.4701,0.6671,0.8024,0.8465,0.9862,1.1243,1.2563,1.2999,1.3858,1.5158,1.4967,1.5057,1.5335,1.5184,1.5104,1.5104,1.5203,1.5266,1.5291,1.5718,1.5894,1.5935,1.6237,1.6727,1.722,1.6631,1.6593,1.6869,1.6584,1.5915,1.5143,1.4872,1.5529,1.6572,1.6908,1.6577,1.5811,1.4403,1.3989,1.3807,1.2889,0.9678,0.7829,1.2904,1.1006,0.9293,1.4584,1.5799,1.6334,1.8171,1.8075,1.8287,2.0372,2.0395,2.032,2.1146,2.1023,2.0991,2.1399,2.1411,0.0,0.0,2.276,2.3124,2.3544,2.4098,2.4444,0.0,0.0,0.0,0.0,2.5722,2.5749,2.4823,2.4924,2.4986,2.4949,2.4877,2.4904,2.501,2.5046,2.5152,2.5303,2.5303,2.5303,2.5303,2.5303,2.5303,2.5303,2.5303,2.5303,2.5303,2.5303,2.5303,2.5303,2.5303,2.5303,2.5303,-0.6239,-0.5467,-0.4922,-0.4922,-0.457,-0.4178,-0.3946,-0.3556,-0.3126,-0.2662,-0.22,-0.1769,-0.1335,-0.03,0.0568,0.1003,0.2663,0.3944,0.4484,0.5776,0.7062,0.816,0.8965,1.0157,1.1839,1.2124,1.3067,1.477,1.4734,1.484,1.5036,1.5069,1.5092,1.5105,1.5156,1.5159,1.5184,1.5479,1.562,1.5646,1.6058,1.6575,1.7057,1.6617,1.6656,1.6913,1.6809,1.6742,1.6678,1.6402,1.6364,1.6445,1.6564,1.6502,1.6085,1.4536,1.4722,1.5413,1.5258,1.2745,1.0928,1.3929,1.2929,1.1997,1.5084,1.5926,1.6517,1.8253,1.8215,1.8577,2.0976,2.0776,2.0482,2.1287,2.1354,2.133,2.1563,2.1849,0.0,2.2855,2.3262,2.3608,2.3826,2.4317,2.4651,2.4723,0.0,0.0,2.5149,2.5551,2.5562,2.5043,2.5096,2.5141,2.5141,2.5061,2.5061,2.5141,2.5141,2.5184,2.5303,2.5303,2.5303,2.5303,2.5303,2.5303,2.5303,2.5303,2.5303,2.5303,2.5303,2.5303,2.5303,2.5303,2.5303,2.5303,-0.5967,-0.5505,-0.5219,-0.5235,-0.4859,-0.4577,-0.459,-0.4279,-0.3879,-0.3468,-0.3118,-0.2692,-0.2156,-0.103,-0.0067,0.0534,0.185,0.3145,0.4272,0.4609,0.5782,0.7941,0.787,0.8774,1.0862,1.1226,1.2241,1.4,1.4342,1.4533,1.461,1.4993,1.5161,1.5188,1.5238,1.526,1.526,1.5351,1.5391,1.5428,1.5874,1.6355,1.6772,1.6737,1.667,1.6678,1.7234,1.6804,1.6036,1.644,1.6686,1.6695,1.6069,1.6638,1.7285,1.5802,1.5091,1.5003,1.5661,1.5286,1.4721,1.4876,1.509,1.5404,1.5784,1.6212,1.6846,1.7936,1.8473,1.9273,2.1039,2.1061,2.0972,2.1366,2.1664,2.1838,2.1868,0.0,2.301,2.3338,2.3794,2.4118,2.4118,2.4548,2.4877,2.4998,2.5022,2.5111,0.0,2.5303,2.5303,2.5303,2.5303,2.5303,2.5303,2.5303,2.5303,2.5303,2.5303,2.5303,2.5303,2.5303,2.5303,2.5303,2.5303,2.5303,2.5303,2.5303,2.5303,2.5303,2.5303,2.5303,2.5303,2.5303,2.5303,2.5303,-0.5536,-0.5166,-0.4877,-0.4892,-0.4618,-0.4477,-0.4601,-0.4359,-0.4113,-0.3931,-0.3826,-0.349,-0.2695,-0.2052,-0.1189,0.0,0.1007,0.2253,0.394,0.508,0.617,0.7215,0.8176,0.9241,1.0388,1.1925,1.3266,1.4406,1.447,1.4658,1.5013,1.4756,1.4607,1.4607,1.4279,1.4132,1.4172,1.4612,1.4822,1.4893,1.5672,1.6081,1.6221,1.6029,1.6021,1.6108,1.6099,1.598,1.5832,1.5919,1.6138,1.6368,1.6253,1.655,1.6891,1.6601,1.6496,1.627,1.5446,1.5431,1.5507,1.5165,1.5594,1.612,1.6219,1.6968,1.7952,1.9017,1.9794,2.0644,2.19,2.2258,2.2375,2.2462,2.2735,2.3005,2.3177,0.0,2.3874,2.4099,2.4447,2.4678,2.4678,2.4858,2.4986,2.501,2.5163,2.5264,2.5303,2.5303,2.5303,2.5303,2.5303,2.5303,2.5303,2.5303,2.5303,2.5303,2.5303,2.5303,2.5303,2.5303,2.5303,2.5303,2.5303,2.5303,2.5303,2.5303,2.5303,2.5303,2.5303,2.5303,2.5303,2.5303,2.5303,2.5303,-0.5658,-0.528,-0.4982,-0.4815,-0.4697,-0.4643,-0.4693,-0.4592,-0.4497,-0.4425,-0.424,-0.3831,-0.3116,-0.2411,-0.1618,-0.0665,0.019,0.1348,0.2834,0.4367,0.576,0.7032,0.763,0.8548,0.9881,1.1994,1.3486,1.4323,1.4874,1.5432,1.6006,1.5836,1.5751,1.5707,1.5108,1.4836,1.4819,1.4906,1.4915,1.498,1.5829,1.6173,1.6212,1.6322,1.6388,1.6418,1.6366,1.6355,1.6355,1.6355,1.6448,1.6581,1.6581,1.6686,1.6789,1.6789,1.6789,1.6686,1.6172,1.616,1.6285,1.6062,1.6282,1.6675,1.7065,1.7695,1.8539,1.9844,2.0334,2.0943,2.2278,2.2434,2.2412,2.2526,2.3017,0.0,0.0,2.3822,2.4258,2.4545,2.4757,2.4917,2.4917,2.5053,2.5163,2.5163,2.5253,2.5303,2.5303,2.5303,2.5303,2.5303,2.5303,2.5303,2.5303,2.5303,2.5303,2.5303,2.5303,2.5303,2.5303,2.5303,2.5303,2.5303,2.5303,2.5303,2.5303,2.5303,2.5303,2.5303,2.5303,2.5303,2.5293,2.5339,2.5346,2.5363,-0.5604,-0.5303,-0.5013,-0.4834,-0.4731,-0.4731,-0.4862,-0.4843,-0.4821,-0.487,-0.4565,-0.4118,-0.3558,-0.2913,-0.2179,-0.1393,-0.0663,0.0247,0.1511,0.311,0.4815,0.6577,0.7111,0.8088,0.9722,1.1763,1.3267,1.421,1.5124,1.6028,1.6789,1.6789,1.6789,1.6763,1.6056,1.5747,1.5719,1.5375,1.5285,1.5404,1.605,1.6355,1.6448,1.6686,1.6789,1.6789,1.6789,1.6789,1.6789,1.6789,1.6841,1.6917,1.6917,1.6968,1.7043,1.7043,1.7076,1.7076,1.6866,1.6789,1.6815,1.6876,1.709,1.745,1.8084,1.876,1.9589,2.0716,2.1044,2.147,2.2613,2.267,2.2596,2.2767,0.0,0.0,0.0,2.4107,2.4584,2.4883,2.5005,2.5077,2.5077,2.5214,2.5303,2.5303,2.5303,2.5303,2.5303,2.5303,2.5303,2.5303,2.5303,2.5303,2.5303,2.5303,2.5303,2.5303,2.5303,2.5303,2.5303,2.5303,2.5303,2.5303,2.5303,2.5303,2.5303,2.5303,2.5303,2.5313,2.5322,2.5312,2.533,2.5398,2.5421,2.5434,-0.4876,-0.4755,-0.4746,-0.4793,-0.4552,-0.453,-0.5083,-0.4965,-0.4893,-0.5146,-0.4929,-0.4599,-0.4171,-0.407,-0.3481,-0.2047,-0.1762,-0.109,0.0242,0.1621,0.3259,0.5251,0.7132,0.8753,1.0142,1.1362,1.2722,1.421,1.4973,1.5826,1.6789,1.6789,1.6789,1.6789,1.6343,1.615,1.6123,1.5734,1.579,1.6138,1.6243,1.6474,1.6763,1.6789,1.6789,1.6789,1.6789,1.6789,1.6789,1.6789,1.7002,1.7272,1.7272,1.7479,1.7743,1.7743,1.7888,1.7915,1.7052,1.6789,1.685,1.7117,1.7973,1.8818,1.913,2.0565,2.1869,2.1975,2.2523,2.3024,2.3147,2.353,2.3858,2.3877,0.0,0.0,2.4854,2.4917,2.5022,2.5243,2.5264,2.5274,2.5274,2.5284,2.5303,2.5303,2.5303,2.5303,2.5303,2.5303,2.5303,2.5303,2.5303,2.5303,2.5303,2.5303,2.5303,2.5303,2.5303,2.5303,2.5303,2.5303,2.5303,2.5303,2.5303,2.5303,2.5303,2.5303,2.5303,2.5322,2.5379,2.5379,2.5394,2.5477,2.5484,2.5484,-0.5049,-0.4952,-0.49,-0.4767,-0.463,-0.463,-0.485,-0.4795,-0.4773,-0.4875,-0.4804,-0.4552,-0.4072,-0.3857,-0.3511,-0.2862,-0.2352,-0.1769,-0.1072,0.0058,0.2178,0.5441,0.6775,0.806,0.931,1.052,1.1864,1.3317,1.4137,1.5082,1.6045,1.6045,1.6387,1.6968,1.6623,1.6699,1.7092,1.6256,1.5899,1.588,1.5639,1.5644,1.5782,1.612,1.6555,1.6985,1.6941,1.7244,1.7676,1.7676,1.7743,1.7893,1.8048,1.8191,1.829,1.829,1.8371,1.8373,1.801,1.7924,1.807,1.865,1.9143,1.9598,2.016,2.1238,2.2127,2.2207,2.3004,2.3733,2.3856,2.4226,2.4514,2.4614,0.0,2.4993,2.5152,2.5192,2.5214,2.5284,2.5303,2.5303,2.5303,2.5303,2.5322,2.5354,2.5312,2.5339,2.5415,2.5421,2.5394,2.5352,2.5363,2.5348,2.5303,2.5303,2.5303,2.5303,2.5303,2.5303,2.5303,2.5303,2.5303,2.5303,2.5303,2.5303,2.5293,2.5348,2.5363,2.5371,2.5434,2.5451,2.5463,2.5543,2.5561,2.5564,-0.5434,-0.5358,-0.53,-0.5117,-0.5078,-0.5078,-0.5078,-0.5078,-0.5078,-0.5078,-0.4933,-0.4688,-0.4312,-0.4054,-0.3762,-0.3393,-0.3059,-0.2659,-0.2165,-0.1174,0.1059,0.4821,0.5891,0.6913,0.8017,0.9361,1.0759,1.2134,1.3155,1.4267,1.5412,1.5542,1.6006,1.6701,1.641,1.6601,1.7067,1.623,1.5835,1.5725,1.5392,1.5291,1.5406,1.5828,1.6304,1.6737,1.6738,1.7067,1.7478,1.7557,1.7733,1.7984,1.8175,1.8391,1.8622,1.8697,1.8734,1.8752,1.8807,1.8807,1.9004,1.9735,2.0128,2.0543,2.1453,2.2287,2.289,2.3051,2.3712,2.4296,2.4444,2.4685,2.4891,2.4986,2.5046,2.5152,2.5274,2.5303,2.5303,2.5303,2.5322,2.533,2.533,2.5346,2.5376,2.5421,2.5383,2.5406,2.5508,2.5493,2.5488,2.5434,2.5428,2.5398,2.533,2.5313,2.5303,2.5303,2.5303,2.5303,2.5303,2.5303,2.5313,2.533,2.533,2.5329,2.5371,2.5401,2.5428,2.5434,2.5513,2.5539,2.5543,2.5605,2.5634,2.5636,-0.5936,-0.5911,-0.5911,-0.5911,-0.5911,-0.5911,-0.5911,-0.5911,-0.5911,-0.5911,-0.544,-0.5107,-0.5107,-0.4919,-0.4455,-0.3584,-0.3994,-0.3915,-0.2993,-0.2032,-0.0122,0.2999,0.44,0.5474,0.6359,0.7878,0.9351,1.0664,1.2038,1.3487,1.5006,1.5395,1.5678,1.5884,1.5695,1.5714,1.5884,1.5533,1.5588,1.5884,1.5672,1.5708,1.592,1.6116,1.6046,1.592,1.6116,1.6063,1.5938,1.615,1.673,1.74,1.74,1.7966,1.8659,1.8931,1.9001,1.9052,1.9261,1.9305,1.9444,2.0047,2.0788,2.1735,2.2998,2.3915,2.4543,2.4741,2.4804,2.4804,2.4804,2.4917,2.501,2.501,2.5163,2.5303,2.5303,2.5303,2.5303,2.5303,2.5354,2.5406,2.5394,2.5451,2.5493,2.5493,2.5493,2.5493,2.5493,2.5493,2.5493,2.5493,2.5493,2.5477,2.5394,2.5339,2.5303,2.5303,2.5303,2.5313,2.5313,2.5313,2.5339,2.5394,2.5394,2.5441,2.5493,2.5493,2.5493,2.5517,2.5567,2.5601,2.5605,2.5682,2.5703,2.5703,-0.5936,-0.5911,-0.5911,-0.5911,-0.5911,-0.5911,-0.5911,-0.5911,-0.5911,-0.5911,-0.576,-0.5667,-0.5667,-0.543,-0.5115,-0.4659,-0.4596,-0.459,-0.4575,-0.4068,-0.3133,-0.1785,0.1237,0.3241,0.4083,0.6236,0.7917,0.9022,1.0977,1.2375,1.3248,1.3903,1.4604,1.5338,1.5418,1.5784,1.628,1.5662,1.5353,1.5221,1.4627,1.445,1.4531,1.4709,1.5106,1.5541,1.5556,1.5882,1.642,1.7037,1.741,1.773,1.8487,1.8899,1.9115,1.918,1.9214,1.9212,1.9274,1.9305,1.9476,2.0217,2.0584,2.1037,2.2018,2.2982,2.3699,2.387,2.446,2.4981,2.5126,2.5182,2.5214,2.5214,2.5264,2.5303,2.5303,2.5348,2.536,2.536,2.5428,2.5477,2.5463,2.5498,2.5526,2.5564,2.5607,2.5629,2.5567,2.5607,2.5629,2.5567,2.5564,2.5543,2.5463,2.5406,2.5379,2.536,2.5379,2.5391,2.5441,2.5441,2.5459,2.5463,2.5463,2.5473,2.5493,2.5554,2.5564,2.559,2.5637,2.5662,2.5662,2.5683,2.5703,2.5703,-0.6433,-0.6416,-0.6416,-0.6416,-0.6416,-0.6416,-0.6416,-0.6341,-0.6295,-0.6295,-0.623,-0.6177,-0.6177,-0.5932,-0.5709,-0.551,-0.5182,-0.5139,-0.55,-0.527,-0.4982,-0.4756,-0.2243,-0.0156,0.1321,0.3506,0.5261,0.652,0.8912,1.0777,1.2085,1.2817,1.371,1.4695,1.4688,1.5042,1.5642,1.513,1.4837,1.4638,1.4289,1.4131,1.4108,1.4252,1.463,1.5062,1.501,1.5279,1.5751,1.6272,1.6853,1.7609,1.8892,1.9305,1.932,1.9413,1.9427,1.9423,1.949,1.9504,1.9615,2.0103,2.0415,2.0939,2.2197,2.3,2.362,2.4106,2.469,2.5152,2.5274,2.5303,2.5303,2.5303,2.5312,2.5348,2.5348,2.5406,2.5447,2.5447,2.5508,2.5543,2.5543,2.5561,2.5601,2.5636,2.5683,2.5683,2.5637,2.5683,2.5683,2.5636,2.5636,2.5605,2.5543,2.5508,2.5471,2.5447,2.5441,2.5465,2.5493,2.5493,2.5503,2.5543,2.5543,2.5554,2.5573,2.5611,2.5636,2.5637,2.5683,2.5703,2.5703,2.5703,2.5703,2.5703,-0.7195,-0.7195,-0.7195,-0.7195,-0.7195,-0.7195,-0.7195,-0.7048,-0.6927,-0.6927,-0.6765,-0.6651,-0.6651,-0.6433,-0.6253,-0.6187,-0.5796,-0.5706,-0.6045,-0.5982,-0.6082,-0.6412,-0.5831,-0.4369,-0.197,0.0124,0.196,0.3516,0.6357,0.8912,1.1144,1.207,1.3042,1.4018,1.3786,1.3971,1.4434,1.4308,1.4252,1.4252,1.4434,1.4485,1.4441,1.4485,1.4555,1.4622,1.4571,1.4508,1.4453,1.4577,1.5698,1.7298,1.875,1.928,1.938,1.9569,1.9609,1.963,1.9774,1.979,1.979,1.979,2.0264,2.119,2.2984,2.3594,2.4079,2.507,2.5303,2.5303,2.5303,2.5303,2.5293,2.5303,2.5363,2.5394,2.5401,2.5477,2.5517,2.5517,2.5564,2.5605,2.5605,2.5661,2.5703,2.5703,2.5703,2.5703,2.5703,2.5703,2.5703,2.5703,2.5683,2.5662,2.5605,2.5607,2.5573,2.5517,2.5517,2.5503,2.5526,2.5526,2.5554,2.5605,2.5605,2.5637,2.5703,2.5703,2.5703,2.5703,2.5703,2.5703,2.5703,2.5703,2.5703,2.5703,-0.7195,-0.7195,-0.7195,-0.7195,-0.7195,-0.7195,-0.7195,-0.7162,-0.713,-0.713,-0.7098,-0.7069,-0.7069,-0.7021,-0.6924,-0.6746,-0.6791,-0.6941,-0.7274,-0.7576,-0.7853,-0.8154,-0.8301,-0.7824,-0.6657,-0.2084,0.0588,0.1212,0.5337,0.7897,0.9022,1.1388,1.2823,1.3436,1.4144,1.4579,1.4785,1.4757,1.4688,1.4595,1.4645,1.4637,1.4648,1.4637,1.4718,1.4822,1.4813,1.4804,1.4869,1.5421,1.6739,1.8191,1.8497,1.9107,1.9695,1.975,1.9762,1.9762,1.9778,1.979,1.979,1.979,1.999,2.0592,2.2212,2.3208,2.4041,2.4893,2.5203,2.5303,2.5303,2.5303,2.5322,2.536,2.5398,2.5415,2.5463,2.5543,2.557,2.557,2.5636,2.5683,2.5683,2.5683,2.5703,2.5703,2.5703,2.5703,2.5703,2.5703,2.5703,2.5703,2.5658,2.564,2.5683,2.5623,2.5586,2.557,2.557,2.5603,2.5659,2.5659,2.5661,2.5683,2.5683,2.5683,2.5703,2.5703,2.5703,2.5703,2.5703,2.5703,2.5703,2.5703,2.5703,2.5703,-0.7546,-0.7591,-0.7606,-0.7546,-0.7546,-0.7546,-0.7546,-0.744,-0.7394,-0.7394,-0.7394,-0.7394,-0.7394,-0.7394,-0.7301,-0.7066,-0.7253,-0.7423,-0.7458,-0.7939,-0.8311,-0.86,-0.9182,-0.9367,-0.9115,-0.5692,-0.2838,-0.064,0.2946,0.5854,0.8068,1.0807,1.2464,1.3233,1.4053,1.4582,1.4904,1.4906,1.4865,1.4804,1.4802,1.481,1.4839,1.4822,1.4902,1.5023,1.4919,1.4904,1.4999,1.5751,1.687,1.7985,1.8331,1.9061,1.9802,1.988,1.9901,1.9912,2.0011,2.0031,2.0031,2.0031,2.0375,2.1015,2.2175,2.2893,2.3668,2.4884,2.5224,2.5303,2.5303,2.5331,2.5354,2.5398,2.5459,2.5517,2.5547,2.5603,2.5658,2.5658,2.5683,2.5703,2.5703,2.5703,2.5703,2.5703,2.5703,2.5683,2.5659,2.5683,2.5662,2.5605,2.5603,2.5603,2.5603,2.5564,2.5564,2.5605,2.5622,2.5661,2.5703,2.5703,2.5703,2.5703,2.5703,2.5703,2.5703,2.5703,2.5703,2.5703,2.5703,2.5703,2.5703,2.5703,2.5703,2.5703,-0.8012,-0.8065,-0.8119,-0.7998,-0.7999,-0.7999,-0.7999,-0.7812,-0.7695,-0.7695,-0.7665,-0.765,-0.768,-0.7724,-0.765,-0.7427,-0.7606,-0.765,-0.7412,-0.7907,-0.8369,-0.8824,-0.9502,-1.006,-1.0423,-0.9461,-0.6982,-0.2963,0.0028,0.3274,0.6776,0.9658,1.1738,1.3129,1.3761,1.4399,1.4962,1.4972,1.4971,1.4938,1.4926,1.496,1.5011,1.4962,1.5042,1.5199,1.504,1.4965,1.5082,1.5712,1.6564,1.7482,1.8132,1.906,1.992,2.0012,2.0059,2.0087,2.0246,2.0296,2.0296,2.0296,2.0812,2.1509,2.2269,2.2748,2.3408,2.4812,2.5187,2.5293,2.5322,2.5363,2.5413,2.5421,2.5531,2.5603,2.5627,2.5661,2.5703,2.5703,2.5703,2.5703,2.5703,2.5703,2.5703,2.5683,2.5683,2.5659,2.5595,2.5634,2.5607,2.5493,2.5547,2.5547,2.5493,2.5498,2.5526,2.5573,2.5636,2.5662,2.5683,2.5683,2.5683,2.5683,2.5703,2.5703,2.5703,2.5703,2.5703,2.5703,2.5703,2.5703,2.5703,2.5683,2.5683,2.5683,-0.8338,-0.8348,-0.8348,-0.8338,-0.8338,-0.8338,-0.8338,-0.816,-0.802,-0.802,-0.7926,-0.7913,-0.8022,-0.8187,-0.8282,-0.824,-0.8269,-0.8282,-0.824,-0.8424,-0.9037,-1.0189,-1.0448,-1.0825,-1.1401,-1.1795,-1.0475,-0.7343,-0.2821,0.0565,0.2865,0.6705,0.9996,1.2731,1.3485,1.4355,1.5241,1.5248,1.5183,1.5067,1.5077,1.5077,1.5096,1.5086,1.5171,1.5278,1.5264,1.5248,1.5231,1.5235,1.631,1.7646,1.7712,1.8873,2.0249,2.025,2.026,2.0273,2.0289,2.0295,2.0295,2.0295,2.0418,2.0755,2.1553,2.2871,2.3995,2.4225,2.4812,2.5322,2.5376,2.5391,2.5434,2.5554,2.5595,2.5629,2.5683,2.5683,2.5703,2.5703,2.5703,2.5703,2.5703,2.5703,2.5682,2.5629,2.5607,2.5573,2.5526,2.5511,2.5526,2.5493,2.5453,2.5453,2.5489,2.5447,2.5453,2.5503,2.5511,2.5558,2.5607,2.5607,2.5607,2.5629,2.5662,2.5703,2.5703,2.5703,2.5703,2.5703,2.5703,2.5703,2.5683,2.5634,2.5607,2.5607,-0.8428,-0.8492,-0.853,-0.8428,-0.8403,-0.8403,-0.8403,-0.8335,-0.8267,-0.8267,-0.8216,-0.8203,-0.8253,-0.8422,-0.851,-0.851,-0.851,-0.8472,-0.8399,-0.8533,-0.9221,-1.0601,-1.0982,-1.1611,-1.2647,-1.2905,-1.2389,-1.105,-0.5357,-0.1485,0.0664,0.6315,1.0095,1.2215,1.3751,1.4699,1.5202,1.5307,1.5295,1.5201,1.526,1.526,1.5218,1.5216,1.5242,1.5296,1.5296,1.5618,1.6029,1.5967,1.7074,1.848,1.8448,1.9288,2.0308,2.0302,2.0302,2.0315,2.0351,2.0352,2.0352,2.0352,2.037,2.05,2.0862,2.1873,2.3037,2.396,2.483,2.5415,2.5459,2.5493,2.5535,2.5595,2.5634,2.5661,2.5703,2.5703,2.5703,2.5703,2.5703,2.5683,2.5658,2.5637,2.5629,2.5551,2.5547,2.5503,2.5447,2.5488,2.5471,2.5391,2.5398,2.5398,2.5383,2.5363,2.5376,2.5447,2.5413,2.5447,2.5547,2.5547,2.5547,2.5551,2.5587,2.5595,2.5595,2.5595,2.5595,2.5595,2.5595,2.5595,2.5573,2.5554,2.5547,2.5547]}]]